     2              OBSERVATION DATA    GPS                 RINEX VERSION / TYPE
teqc 1997Jul24 19970814                                     PGM / RUN BY / DATE
                                                            COMMENT
Original Marker Name: 0703                                  COMMENT
Campaign Name: HPGN 1991                                    COMMENT
4-Character Station Name: 0703                              COMMENT
6-Character Antenna Code: TRMSST                            COMMENT
Vertical Measurement Point: BPA                             COMMENT
Vertical Offset to Rinex Ref. Point: 0.0000                 COMMENT
Radial Measurement Point: RRP                               COMMENT
Radial Offset to Rinex Ref. Point: 0.0000                   COMMENT
Antenna Height from Field Measurement: 2.2200 m             COMMENT
Original XYZ: -2561616.5362 -4628369.9502 3551284.4204      COMMENT
New XYZ position is based on association with SCEC monument COMMENT
E1C7X1E5+0011. Position of that monument is believed to be  COMMENT
valid to within 1 m horizontally; vertical accuracy         COMMENT
should be no worse than 3-times this value.                 COMMENT
                                                            COMMENT
Revised Rinex header created by UCSD GPS archive for        COMMENT
GSAC on 06-Apr-1999 (1999:096) 02:41:05 GMT                 COMMENT
For assistance contact dagnew@ucsd.edu or hjohnson@ucsd.edu COMMENT
                                                            COMMENT
HPGN-CALIF STA 07-03 1991                                   MARKER NAME
unknown NATIONAL GEODETIC SURVEY                            OBSERVER / AGENCY
483 TRIMBLE 4000 SST NP 4.30 / SP 4.20                      REC # / TYPE / VERS
19 TR 4000SST L1/L2 GEO                                     ANT # / TYPE
 -2561615.0000 -4628374.0000  3551282.0000                  APPROX POSITION XYZ
        2.2200        0.0000        0.0000                  ANTENNA: DELTA H/E/N
     1     1     0                                          WAVELENGTH FACT L1/2
     3    C1    L1    L2                                    # / TYPES OF OBSERV
     0                                                      INTERVAL
  1991     4    24    19    53   45.000000                  TIME OF FIRST OBS
  1991     4    25     1    53   60.000000                  TIME OF LAST OBS
     0                                                      # OF SATELLITES
                                                            END OF HEADER
 91  4 24 19 53 45.0000000  0  4G18G11G19G 2
  20663113.7814         -0.64958        -0.45372
  23697881.695          -0.00516        -0.20631
  20847992.6024         -0.90956        -0.43172
  23580056.078          -0.00616
 91  4 24 19 54  0.0000000  0  4G18G11G19G 2
  20666664.727       18664.440 8     14543.74822
  23692176.125      -29988.675 6    -23367.88321
  20847688.0084      -1587.51246     -1236.73662
  23571249.703      -46261.127 6        -0.22131
 91  4 24 19 54 15.0000000  0  4G18G11G19G 2
  20670224.6334      37372.51948     29121.44263
  23686474.859      -59946.310 6    -46711.38521
  20847381.7814      -3199.89246     -2493.13262
  23562446.4614     -92540.01946    -36061.53961
 91  4 24 19 54 30.0000000  0  4G18G11G19G 2
  20673797.1484      56146.38448     43750.39963
  23680784.641      -89849.704 6    -70012.62621
  20847072.7734      -4815.20446     -3751.81362
  23553639.2194    -138813.61546    -72118.73261
 91  4 24 19 54 45.0000000  0  4G18G11G19G 2
  20677381.5004      74983.31348     58428.50263
  23675103.5944    -119700.99946    -93273.27961
  20846766.5164      -6435.92046     -5014.70462
  23544833.3524    -185084.37246   -108173.71961
 91  4 24 19 55  0.0000000  0  4G18G11G19G 2
  20680979.8444      93890.19148     73161.10263
  23669432.148     -149493.245 6   -116487.91021
  20846456.1334      -8055.48146     -6276.69362
  23536028.0944    -231345.51746   -144221.21361
 91  4 24 19 55 15.0000000  0  4G18G11G19G 2
  20684592.2344     112870.89948     87951.22262
  23663774.8364    -179222.25646   -139653.25261
  20846150.7034      -9670.00646     -7534.75862
  23527228.7274    -277593.07246   -180258.11661
 91  4 24 19 55 30.0000000  0  4G18G11G19G 2
  20688219.2034     131931.18948    102803.36662
  23658130.0234    -208881.56946   -162764.27761
  20845848.0084     -11273.34446     -8784.10662
  23518434.5004    -323821.01846   -216279.73761
 91  4 24 19 55 45.0000000  0  4G18G11G19G 2
  20691861.7504     151075.07548    117720.64162
  23652503.5554    -238467.11746   -185817.84361
  20845545.7344     -12861.94846    -10021.98062
  23509641.414     -370025.187 6   -252282.81721
 91  4 24 19 56  0.0000000  0  4G18G11G19G 2
  20695523.0084     170306.32348    132705.99762
  23646886.234     -267974.739 6   -208810.67621
  20845245.1024     -14432.05046    -11245.43562
  23500853.3284    -416201.61846   -288264.31261
 91  4 24 19 56 15.0000000  0  4G18G11G19G 2
  20699197.875      189621.907 8    147757.05922
  23641287.211     -297406.867 6   -231744.69421
  20844948.5314     -15986.41046    -12456.62262
  23492070.1884    -462353.01046   -324226.28261
 91  4 24 19 56 30.0000000  0  4G18G11G19G 2
  20702890.1954     209028.54848    162879.07862
  23635702.063     -326756.511 6   -254614.44221
  20844654.3134     -17518.38246    -13650.36062
  23483293.023     -508472.380 6   -360163.32321
 91  4 24 19 56 45.0000000  0  4G18G11G19G 2
  20706600.1254     228522.59948    178069.20762
  23630130.3204    -356026.97646   -277422.51661
  20844369.8284     -19031.59646    -14829.48362
  23474523.078     -554563.158 6   -396078.07221
 91  4 24 19 57  0.0000000  0  4G18G11G19G 2
  20710328.008      248106.599 8    193329.42522
  23624577.9614    -385215.31646   -300166.54861
  20844082.0704     -20523.37546    -15991.90562
  23465757.609     -600622.626 6   -431968.42521
 91  4 24 19 57 15.0000000  0  4G18G11G19G 2
  20714069.8674     267779.31848    208658.78162
  23619035.008     -414322.314 5   -322847.20621
  20843809.5864     -21995.00546    -17138.62962
  23456999.4844    -646652.01346   -467835.33961
 91  4 24 19 57 30.0000000  0  4G18G11G19G 2
  20717829.8054     287539.97148    224056.65062
  23613512.672     -443348.046 5   -345464.54821
  20843528.3054     -23446.81146    -18269.90762
  23448244.133     -692651.418 6   -503678.88721
 91  4 24 19 57 45.0000000  0  4G18G11G19G 2
  20721608.9144     307391.67048    239525.47062
  23608009.109     -472289.430 6   -368016.16721
  20843257.5864     -24876.18346    -19383.70062
  23439497.1884    -738617.83846   -539496.74361
 91  4 24 19 58  0.0000000  0  4G18G11G19G 2
  20725404.633      327337.839 8    255067.89823
  23602516.234     -501142.619 6   -390499.06321
  20842986.4844     -26279.77946    -20477.41062
  23430759.063     -784547.694 6   -575286.11121
 91  4 24 19 58 15.0000000  0  4G18G11G19G 2
  20729219.641      347387.517 8    270690.97922
  23597044.477     -529898.011 6   -412905.76821
  20842730.4774     -27648.38746    -21543.86462
  23422029.547     -830431.667 6   -611039.71821
 91  4 24 19 58 30.0000000  0  4G18G11G19G 2
  20733054.2114     367534.76848    286390.09663
  23591593.9304    -558561.25746   -435240.64661
  20842475.1484     -28987.82746    -22587.58062
  23413301.828     -876275.487 6   -646762.04221
 91  4 24 19 58 45.0000000  0  4G18G11G19G 2
  20736905.766      387778.553 8    302164.42422
  23586154.000     -587132.926 6   -457504.18721
  20842226.5944     -30298.97246    -23609.24962
  23404589.453     -922080.064 6   -682453.78021
 91  4 24 19 59  0.0000000  0  4G18G11G19G 2
  20740776.2194     408122.19648    318016.57963
  23580735.3204    -615609.31946   -479693.48361
  20841982.8444     -31578.70246    -24606.44062
  23395877.0704    -967841.79346   -718112.14861
 91  4 24 19 59 15.0000000  0  4G18G11G19G 2
  20744667.4064     428566.50748    333947.17363
  23575336.1564    -643989.46446   -501807.78661
  20841744.6564     -32826.29246    -25578.58762
  23387180.461    -1013559.827 6   -753736.45221
 91  4 24 19 59 30.0000000  0  4G18G11G19G 2
  20748577.102      449110.195 8    349955.19922
  23569952.1024    -672274.03646   -523847.61661
  20841511.1024     -34042.82546    -26526.53562
  23378485.3754   -1059235.16946   -789327.50661
 91  4 24 19 59 45.0000000  0  4G18G11G19G 2
  20752505.5704     469755.33148    366042.28262
  23564589.6484    -700460.58546   -545811.06261
  20841287.8054     -35226.05146    -27448.52262
  23369799.617    -1104865.409 6   -824883.42221
 91  4 24 20  0  0.0000000  0  4G18G11G19G 2
  20756454.7114     490498.85848    382206.02362
  23559240.008     -728551.726 6   -567700.15821
  20841066.3914     -36379.03746    -28346.94762
  23361125.8594   -1150453.29446   -860406.31461
 91  4 24 20  0 15.0000000  0  4G18G11G19G 2
  20760417.734      511339.903 8    398445.75222
  23553911.7664    -756548.01946   -589515.35561
  20840852.1024     -37502.60346    -29222.44862
  23352460.7344   -1195999.58546   -895896.79861
 91  4 24 20  0 30.0000000  0  4G18G11G19G 2
  20764404.742      532280.560 8    414763.10322
  23548602.367     -784446.849 6   -611254.60321
  20840644.9534     -38594.56846    -30073.32862
  23343798.6254   -1241501.87346   -931352.99761
 91  4 24 20  0 45.0000000  0  4G18G11G19G 2
  20768407.195      553323.722 8    431160.32822
  23543314.8674    -812245.14746   -632915.52261
  20840445.6954     -39652.21246    -30897.46262
  23335155.266    -1286957.352 6   -966772.73521
 91  4 24 20  1  0.0000000  0  4G18G11G19G 2
  20772432.766      574465.988 8    447634.77822
  23538045.0474    -839945.88746   -654500.41461
  20840251.7424     -40678.81446    -31697.40062
  23326509.1564   -1332369.32446  -1002158.56061
 91  4 24 20  1 15.0000000  0  4G18G11G19G 2
  20776475.4534     595710.69548    464189.05662
  23532789.6954    -867545.27546   -676006.35761
  20840058.8284     -41670.92046    -32470.46762
  23317876.1724   -1377734.10246  -1037507.61461
 91  4 24 20  1 30.0000000  0  4G18G11G19G 2
  20780537.6414     617056.15647    480821.83962
  23527559.656     -895044.551 6   -697434.28021
  20839881.1724     -42630.18946    -33217.95062
  23309257.773    -1423052.981 6  -1072820.89221
 91  4 24 20  1 45.0000000  0  4G18G11G19G 2
  20784617.117      638500.774 7    497531.88423
  23522344.6804    -922444.92146   -718785.12061
  20839698.992      -43557.965 6    -33940.89822
  23300642.148    -1468327.282 6  -1108099.43521
 91  4 24 20  2  0.0000000  0  4G18G11G19G 2
  20788717.633      660042.441 7    514317.56122
  23517148.8594    -949748.17246   -740060.29861
  20839532.1804     -44456.64046    -34641.15962
  23292031.6954   -1513559.09846  -1143344.87061
 91  4 24 20  2 15.0000000  0  4G18G11G19G 2
  20792835.8364     681684.59947    531181.53963
  23511971.6884    -976950.50246   -761256.82261
  20839364.8754     -45322.71846    -35316.03062
  23283428.4694   -1558744.74646  -1178554.35061
 91  4 24 20  2 30.0000000  0  4G18G11G19G 2
  20796973.313      703425.835 7    548122.71923
  23506812.586    -1004053.156 6   -782375.69721
  20839204.9064     -46157.74446    -35966.69762
  23274844.094    -1603885.641 6  -1213728.96521
 91  4 24 20  2 45.0000000  0  4G18G11G19G 2
  20801127.5004     725263.71747    565139.21063
  23501676.727    -1031057.703 6   -803418.12621
  20839051.7344     -46963.62246    -36594.65462
  23266258.6414   -1648983.41146  -1248869.95261
 91  4 24 20  3  0.0000000  0  4G18G11G19G 2
  20805302.477      747202.795 7    582234.55123
  23496556.125    -1057959.202 6   -824380.24421
  20838909.2974     -47735.69646    -37196.27062
  23257686.938    -1694033.393 6  -1283973.72921
 91  4 24 20  3 15.0000000  0  4G18G11G19G 2
  20809495.227      769241.336 7    599407.39722
  23491454.578    -1084759.232 6   -845263.31221
  20838763.3134     -48475.88346    -37773.03962
  23249124.1484   -1739037.46446  -1319041.69961
 91  4 24 20  3 30.0000000  0  4G18G11G19G 2
  20813710.781      791378.718 8    616657.25722
  23486379.258    -1111457.849 6   -866067.35221
  20838629.7814     -49184.76246    -38325.41662
  23240571.4064   -1783995.72346  -1354073.99161
 91  4 24 20  3 45.0000000  0  4G18G11G19G 2
  20817941.516      813616.234 8    633985.14122
  23481313.188    -1138053.781 6   -886791.34421
  20838500.1484     -49861.20646    -38852.51462
  23232022.4304   -1828907.08346  -1389069.72761
 91  4 24 20  4  0.0000000  0  4G18G11G19G 2
  20822192.797      835954.181 8    651391.28722
  23476271.055    -1164546.242 6   -907434.76421
  20838377.6024     -50504.66646    -39353.90862
  23223482.7194   -1873770.87946  -1424028.40961
 91  4 24 20  4 15.0000000  0  5G18G11G19G 2G16
  20826462.156      858395.452 7    668877.94722
  23471252.125    -1190931.887 6   -927994.93421
  20838263.4844     -51112.22946    -39827.33462
  23214958.867    -1918583.930 6  -1458947.55321
  24251376.8594         -0.26854
 91  4 24 20  4 30.0000000  0  5G18G11G19G 2G16
  20830752.211      880933.820 7    686440.26722
  23466253.859    -1217216.504 6   -948476.39621
  20838153.0394     -51690.03346    -40277.57662
  23206436.648    -1963352.236 6  -1493831.82821
  24245840.3984     -29106.22044
 91  4 24 20  4 45.0000000  0  5G18G11G19G 2G16
  20835059.727      903571.952 7    704080.32522
  23461269.305    -1243396.949 6   -968876.66621
  20838048.4924     -52235.44446    -40702.57662
  23197922.938    -2008072.948 6  -1528679.02021
  24240313.4844     -58105.40844
 91  4 24 20  5  0.0000000  0  5G18G11G19G 2G16
  20839387.891      926310.797 7    721798.86222
  23456305.031    -1269471.897 6   -989194.72821
  20837951.8284     -52747.18746    -41101.33262
  23189423.0944   -2052744.93846  -1563488.24261
  24234821.7734     -86996.60945        -0.46971
 91  4 24 20  5 15.0000000  0  5G18G11G19G 2G16
  20843732.547      949153.128 7    739598.02622
  23451366.375    -1295438.032 6  -1009428.00421
  20837860.4454     -53222.43646    -41471.65962
  23180939.2734   -2097365.01646  -1598257.01061
  24229338.711     -115776.600 4    -22426.47021
 91  4 24 20  5 30.0000000  0  5G18G11G19G 2G16
  20848099.766      972099.624 7    757478.36822
  23446446.836    -1321294.549 6  -1029575.86021
  20837778.6174     -53660.47146    -41812.99062
  23172453.2734   -2141932.46746  -1632984.77061
  24223886.2504    -144444.33844    -44764.92661
 91  4 24 20  5 45.0000000  0  5G18G11G19G 2G16
  20852485.383      995147.963 7    775438.06523
  23441546.563    -1347043.354 6  -1049639.78321
  20837700.1884     -54063.59546    -42127.11862
  23163981.875    -2186449.356 6  -1667673.14421
  24218453.9694    -173002.12645    -67017.77561
 91  4 24 20  6  0.0000000  0  5G18G11G19G 2G16
  20856890.273     1018296.553 7    793475.87823
  23436666.7734   -1372685.51446  -1069620.62461
  20837634.2114     -54433.30446    -42415.20862
  23155521.8364   -2230917.06446  -1702323.18561
  24213043.4844    -201451.19945    -89185.86661
 91  4 24 20  6 15.0000000  0  5G18G11G19G 2G16
  20861314.039     1041543.448 8    811590.29223
  23431804.8524   -1398222.78146  -1089519.72761
  20837567.148      -54771.605 6    -42678.82722
  23147068.797    -2275337.260 6  -1736936.21621
  24207649.164     -229793.537 5   -111270.79321
 91  4 24 20  6 30.0000000  0  5G18G11G19G 2G16
  20865756.953     1064893.132 8    829784.80023
  23426966.2114   -1423650.15246  -1109333.17861
  20837509.3834     -55073.78346    -42914.29262
  23138624.6724   -2319705.26046  -1771508.56261
  24202275.938     -258023.983 5   -133268.53121
 91  4 24 20  6 45.0000000  0  5G18G11G19G 2G16
  20870219.758     1088343.830 8    848058.02423
  23422148.773    -1448969.162 6  -1129062.20321
  20837459.4614     -55341.51746    -43122.92162
  23130194.227    -2364022.526 6  -1806041.39221
  24196923.4224    -286144.11945   -155180.31661
 91  4 24 20  7  0.0000000  0  5G18G11G19G 2G16
  20874703.031     1111896.758 8    866410.89923
  23417352.180    -1474177.910 6  -1148705.30021
  20837417.4384     -55573.46546    -43303.65562
  23121768.3984   -2408287.46946  -1840533.42661
  24191595.3984    -314152.50845   -177005.04461
 91  4 24 20  7 15.0000000  0  5G18G11G19G 2G16
  20879203.3834    1135551.48748    884843.09562
  23412573.8834   -1499276.41946  -1168262.49961
  20837378.1644     -55770.02246    -43456.81762
  23113353.453    -2452500.426 6  -1874984.98021
  24186284.3284    -342048.96945   -198742.55061
 91  4 24 20  7 30.0000000  0  5G18G11G19G 2G16
  20883724.820     1159311.555 8    903357.38022
  23407822.117    -1524261.163 6  -1187731.05221
  20837346.9924     -55927.88246
  23104953.047    -2496658.035 6  -1909393.38921
  24180999.172     -369830.469 5   -220390.45121
 91  4 24 20  7 45.0000000  0  5G18G11G19G 2G16
  20888265.5784    1183171.87048    921949.77762
  23403087.875    -1549136.744 6  -1207114.54521
  20837321.5864     -56051.89946
  23096559.3914   -2540765.02646  -1943762.35261
  24175730.852     -397501.619 5   -241952.38021
 91  4 24 20  8  0.0000000  0  5G18G11G19G 2G16
  20892824.422     1207133.725 7    940621.30122
  23398374.7814   -1573901.45046  -1226411.66661
  20837310.2194     -56140.74446
  23088171.625    -2584819.763 6  -1978090.61321
  24170488.4224    -425060.68645   -263426.96961
 91  4 24 20  8 15.0000000  0  5G18G11G19G 2G16
  20897403.914     1231196.915 7    959371.78123
  23393680.7034   -1598554.93446  -1245622.10561
  20837298.4614     -56194.20146
  23079801.9774   -2628821.95446  -2012377.92061
  24165269.3134    -452507.37245   -284814.00661
 91  4 24 20  8 30.0000000  0  5G18G11G19G 2G16
  20902003.922     1255369.290 7    978207.35223
  23389015.047    -1623089.116 6  -1264739.57621
  20837295.9924     -56204.60646
  23071440.8284   -2672763.83546  -2046618.23361
  24160067.3134    -479833.93745   -306107.43461
 91  4 24 20  8 45.0000000  0  5G18G11G19G 2G16
  20906628.055     1279656.541 8    997132.43123
  23384368.391    -1647497.794 6  -1283759.24221
  20837301.5704     -56166.23346
  23063089.258    -2716639.437 6  -2080806.90221
  24154890.5784    -507034.24945   -327302.44961
 91  4 24 20  9  0.0000000  0  5G18G11G19G 2G16
  20911267.852     1304044.074 8   1016135.64923
  23379740.266    -1671795.328 6  -1302692.30221
  20837315.3444     -56093.56346
  23054750.883    -2760463.253 6  -2114955.21821
  24149737.961     -534122.768 5   -348410.39221
 91  4 24 20  9 15.0000000  0  5G18G11G19G 2G16
  20915927.578     1328532.401 8   1035217.40823
  23375142.3984   -1695980.72046  -1321537.99961
  20837336.3914     -55985.83446
  23046423.2194   -2804234.31646  -2149062.41661
  24144601.4844    -561098.48745   -369430.45661
 91  4 24 20  9 30.0000000  0  5G18G11G19G 2G16
  20920607.7344    1353125.87648   1054381.10063
  23370562.266    -1720049.157 6  -1340292.55821
  20837363.828      -55838.631 6
  23038099.9694   -2847947.99146  -2183124.90661
  24139492.6484    -587956.98645   -390359.14261
 91  4 24 20  9 45.0000000  0  5G18G11G19G 2G16
  20925307.4844    1377828.37748   1073629.74563
  23366007.836    -1743996.414 6  -1358952.68021
  20837400.359      -55648.045 6
  23029794.969    -2891600.300 6  -2217139.57621
  24134402.641     -614693.985 5   -411193.13921
 91  4 24 20 10  0.0000000  0  5G18G11G19G 2G16
  20930027.742     1402629.947 8   1092955.58723
  23361472.6414   -1767832.14946  -1377525.90161
  20837443.2504     -55424.05446    -43187.27662
  23021499.656    -2935201.015 6  -2251114.04821
  24129338.0394    -641319.27944   -431940.16561
 91  4 24 20 10 15.0000000  0  5G18G11G19G 2G16
  20934767.539     1427534.601 8   1112361.76123
  23356956.109    -1791551.910 6  -1396008.75621
  20837491.1954     -55162.51146    -42983.47962
  23013212.953    -2978745.881 6  -2285045.00421
  24124295.742     -667828.497 5   -452596.67221
 91  4 24 20 10 30.0000000  0  5G18G11G19G 2G16
  20939526.258     1452541.890 8   1131847.90123
  23352467.141    -1815155.470 6  -1414401.07921
  20837547.4694     -54863.50746    -42750.48862
  23004937.172    -3022234.727 6  -2318932.30921
  24119272.6414    -694221.74545   -473162.86861
 91  4 24 20 10 45.0000000  0  5G18G11G19G 2G16
  20944305.156     1477652.228 8   1151414.34423
  23347995.0234   -1838642.46946  -1432702.56261
  20837611.8134     -54526.99146    -42488.26762
  22996669.195    -3065667.544 6  -2352775.94721
  24114268.227     -720498.817 4   -493638.52121
 91  4 24 20 11  0.0000000  0  5G18G11G19G 2G16
  20949102.109     1502869.159 7   1171063.84723
  23343547.8674   -1862008.75646  -1450909.97961
  20837688.9774     -54149.12046    -42193.83462
  22988417.484    -3109040.176 6  -2386572.69521
  24109293.6254    -746655.40945   -514020.30761
 91  4 24 20 11 15.0000000  0  5G18G11G19G 2G16
  20953922.4844    1528193.36847   1190796.93963
  23339126.4384   -1885253.22846  -1469022.48861
  20837764.8364     -53729.02947    -41866.49562
  22980177.6954   -3152351.78046  -2420321.87761
  24104341.7504    -772690.50145   -534307.37961
 91  4 24 20 11 30.0000000  0  5G18G11G19G 2G16
  20958760.531     1553621.771 7   1210611.22423
  23334726.453    -1908378.812 6  -1487042.34221
  20837855.2974     -53269.84246    -41508.69162
  22971940.281    -3195605.332 6  -2454025.82221
  24099402.813     -798607.156 4   -554502.20621
 91  4 24 20 11 45.0000000  0  5G18G11G19G 2G16
  20963619.7424    1579152.45347   1230505.21163
  23330348.484    -1931386.917 6  -1504970.65321
  20837946.3134     -52773.14946    -41121.66262
  22963727.156    -3238802.604 6  -2487685.92721
  24094495.570     -824406.893 4   -574605.93321
 91  4 24 20 12  0.0000000  0  5G18G11G19G 2G16
  20968496.773     1604789.275 7   1250481.90123
  23325989.2194   -1954273.32546  -1522804.14361
  20838049.1884     -52235.03746    -40702.36062
  22955515.570    -3281939.404 6  -2521298.89921
  24089607.6254    -850085.88144   -594615.52661
 91  4 24 20 12 15.0000000  0  5G18G11G19G 2G16
  20973395.523     1630527.500 7   1270537.61023
  23321658.320    -1977042.266 6  -1540546.12721
  20838158.0234     -51660.18846    -40254.43162
  22947316.1484   -3325020.17646  -2554868.21761
  24084746.2504    -875648.67845   -614534.54461
 91  4 24 20 12 30.0000000  0  5G18G11G19G 2G16
  20978312.4144    1656366.75747   1290672.03163
  23317349.6174   -1999693.83846  -1558196.60961
  20838272.5784     -51048.86046    -39778.07562
  22939131.578    -3368044.948 6  -2588393.90721
  24079906.0944    -901095.23545   -634363.03961
 91  4 24 20 12 45.0000000  0  5G18G11G19G 2G16
  20983249.109     1682308.979 7   1310886.69823
  23313061.813    -2022225.545 6  -1575753.70321
  20838399.3984     -50399.03846    -39271.72462
  22930953.9384   -3411011.51146  -2621874.23161
  24075084.328     -926423.247 5   -654099.18321
 91  4 24 20 13  0.0000000  0  5G18G11G19G 2G16
  20988206.3914    1708354.83548   1331182.11263
  23308798.055    -2044636.503 6  -1593216.70921
  20838529.5864     -49710.08946    -38734.88362
  22922790.938    -3453919.113 6  -2655308.61721
  24070288.7584    -951631.69645   -673742.17161
 91  4 24 20 13 15.0000000  0  5G18G11G19G 2G16
  20993180.8204    1734501.70548   1351556.23663
  23304552.0784   -2066928.96746  -1610587.40761
  20838667.5634     -48984.28946    -38169.32562
  22914637.570    -3496770.183 6  -2688698.95121
  24065511.7274    -976722.53845   -693293.48261
 91  4 24 20 13 30.0000000  0  5G18G11G19G 2G16
  20998175.102     1760746.331 7   1372006.53623
  23300332.164    -2089105.909 6  -1627868.06321
  20838815.1954     -48224.98646    -37577.66662
  22906491.5864   -3539567.73446  -2722047.57861
  24060759.2114   -1001699.42645   -712756.00261
 91  4 24 20 13 45.0000000  0  5G18G11G19G 2G16
  21003190.2584    1787095.60347   1392538.37963
  23296135.8444   -2111160.04146  -1645053.02361
  20838963.8754     -47425.10546    -36954.39062
  22898356.563    -3582304.712 6  -2755349.00521
  24056027.7274   -1026555.09045   -732124.05961
 91  4 24 20 14  0.0000000  0  5G18G11G19G 2G16
  21008222.883     1813549.233 7   1413151.53823
  23291961.648    -2133091.064 6  -1662142.07221
  20839128.9534     -46584.85346    -36299.64962
  22890234.281    -3624981.113 6  -2788603.23121
  24051323.000    -1051289.656 5   -751397.77721
 91  4 24 20 14 15.0000000  0  5G18G11G19G 2G16
  21013277.1644    1840102.19947   1433842.09863
  23287812.789    -2154903.755 6  -1679138.89721
  20839292.820      -45709.092 6    -35617.24822
  22882126.273    -3667601.648 6  -2821813.93821
  24046641.5634   -1075907.82445   -770580.77361
 91  4 24 20 14 30.0000000  0  5G18G11G19G 2G16
  21018349.1724    1866756.30347   1454611.46263
  23283686.273    -2176595.889 6  -1696041.78421
  20839466.8674     -44795.88246    -34905.66862
  22874025.828    -3710164.138 6  -2854979.40921
  24041977.172    -1100407.510 5   -789671.43721
 91  4 24 20 14 45.0000000  0  5G18G11G19G 2G16
  21023440.0314    1893512.27247   1475460.20963
  23279580.5784   -2198166.35346  -1712849.87561
  20839644.305      -43844.374 6    -34164.24222
  22865933.2034   -3752667.72246  -2888098.98861
  24037340.6644   -1124787.49046   -808668.84761
 91  4 24 20 15  0.0000000  0  5G18G11G19G 2G16
  21028551.5784    1920369.33047   1496387.72463
  23275498.2734   -2219615.61646  -1729563.52261
  20839833.625      -42855.259 6    -33393.51822
  22857862.281    -3795112.952 6  -2921173.09121
  24032720.773    -1149048.550 5   -827573.61621
 91  4 24 20 15 15.0000000  0  5G18G11G19G 2G16
  21033681.9454    1947330.19747   1517396.13563
  23271440.172    -2240940.378 6  -1746180.16521
  20840029.078      -41825.615 6    -32591.21122
  22849795.750    -3837496.923 6  -2954199.43821
  24028126.727    -1173187.521 5   -846383.22321
 91  4 24 20 15 30.0000000  0  5G18G11G19G 2G16
  21038831.1644    1974393.83047   1538484.62163
  23267405.016    -2262141.526 6  -1762700.47421
  20840235.5704     -40756.46046    -31758.11462
  22841743.4844   -3879820.60146  -2987178.81461
  24023558.719    -1197205.441 5   -865098.50621
 91  4 24 20 15 45.0000000  0  5G18G11G19G 2G16
  21044002.6024    2001561.58947   1559654.24663
  23263394.523    -2283217.233 6  -1779123.04721
  20840443.3674     -39646.23346    -30893.00962
  22833701.7734   -3922082.18346  -3020109.80061
  24019008.414    -1221100.352 5   -883717.96221
 91  4 24 20 16  0.0000000  0  5G18G11G19G 2G16
  21049189.9454    2028831.62847   1580903.56563
  23259407.1884   -2304168.84346  -1795448.91161
  20840662.9064     -38496.64046    -29997.23062
  22825669.9614   -3964283.04646  -3052993.49661
  24014482.977    -1244874.098 5   -902242.96421
 91  4 24 20 16 15.0000000  0  5G18G11G19G 2G16
  21054400.2274    2056205.32147   1602233.65563
  23255442.984    -2324994.643 6  -1811676.73321
  20840890.9454     -37306.03846    -29069.49762
  22817648.2424   -4006421.69146  -3085828.71561
  24009981.9534   -1268524.79845   -920672.10261
 91  4 24 20 16 30.0000000  0  5G18G11G19G 2G16
  21059628.6334    2083683.82947   1623645.41963
  23251506.3524   -2345693.22546  -1827805.44161
  20841127.1174     -36073.45946    -28109.05062
  22809647.0554   -4048497.09646  -3118614.65561
  24005503.8834   -1292051.26645   -939004.41461
 91  4 24 20 16 45.0000000  0  6G18G11G19G 2G16G 6
  21064877.6884    2111263.73947   1645136.19963
  23247587.719    -2366267.671 6  -1843837.42321
  20841367.1804     -34802.31446    -27118.54662
  22801646.4844   -4090512.33246  -3151353.70261
  24001052.9614   -1315456.45745   -957242.25561
  24411386.2974         -0.56653
 91  4 24 20 17  0.0000000  0  6G18G11G19G 2G16G 6
  21070144.4064    2138941.25347   1666703.03163
  23243698.031    -2386720.922 6  -1859774.97721
  20841613.9694     -33495.51946    -26100.27662
  22793661.391    -4132470.527 6  -3184048.29421
  23996623.3674   -1338743.88845   -975388.32061
  24404883.1644     -34132.96443
 91  4 24 20 17 15.0000000  0  6G18G11G19G 2G16G 6
  21075432.0704    2166721.16847   1688349.65363
  23239831.766    -2407048.582 6  -1875614.65521
  20841870.9384     -32148.98346    -25051.03362
  22785689.328    -4174367.243 6  -3216694.98021
  23992216.148    -1361909.116 5   -993439.16021
  24398388.2274     -68253.47643
 91  4 24 20 17 30.0000000  0  6G18G11G19G 2G16G 6
  21080736.5004    2194602.74047   1710075.48963
  23235986.0634   -2427250.80246  -1891356.58561
  20842137.1174     -30763.17546    -23971.19162
  22777729.9924   -4216202.77046  -3249293.98961
  23987826.828    -1384952.153 4  -1011394.80121
  24391900.750     -102362.524 3
 91  4 24 20 17 45.0000000  0  6G18G11G19G 2G16G 6
  21086059.5164    2222584.37547   1731879.29362
  23232165.359    -2447328.583 6  -1907001.55721
  20842404.3284     -29339.19846    -22861.60662
  22769779.031    -4257978.388 6  -3281846.31421
  23983466.547    -1407874.153 4  -1029256.12021
  24385411.5864    -136461.59144        -0.20571
 91  4 24 20 18  0.0000000  0  6G18G11G19G 2G16G 6
  21091403.9614    2250665.69847   1753760.78263
  23228370.945    -2467282.108 6  -1922549.72021
  20842683.9844     -27877.62946    -21722.73562
  22761838.8364   -4299694.36246  -3314352.17061
  23979126.2664   -1430675.62944  -1047023.54961
  24378921.844     -170551.071 4    -26563.30721
 91  4 24 20 18 15.0000000  0  6G18G11G19G 2G16G 6
  21096768.1254    2278846.25047   1775719.59463
  23224597.773    -2487111.225 6  -1938000.91921
  20842968.7894     -26378.57346    -20554.64762
  22753916.6644   -4341350.62746  -3346811.50061
  23974809.094    -1453356.655 4  -1064697.07721
  24372436.727     -204631.180 4    -53119.10121
 91  4 24 20 18 30.0000000  0  6G18G11G19G 2G16G 6
  21102149.602     2307125.362 7   1797755.20723
  23220844.844    -2506816.330 6  -1953355.50521
  20843263.0314     -24842.64146    -19357.82662
  22745999.5634   -4382947.75946  -3379224.75061
  23970518.3444   -1475917.74744  -1082277.16561
  24365952.0704    -238702.57044    -79668.09261
 91  4 24 20 18 45.0000000  0  6G18G11G19G 2G16G 6
  21107549.5944    2335509.02947   1819872.29463
  23217117.5394   -2526390.78846  -1968608.29161
  20843562.1414     -23263.44446    -18127.28262
  22738092.422    -4424479.192 6  -3411586.80321
  23966249.5784   -1498352.09944  -1099758.50361
  24359473.0004    -272759.02843   -106205.46861
 91  4 24 20 19  0.0000000  0  6G18G11G19G 2G16G 6
  21112971.6644    2363994.01247   1842068.32463
  23213419.3754   -2545837.72546  -1983761.69761
  20843873.7814     -21644.32246    -16865.63762
  22730204.8364   -4465948.25246  -3443900.26261
  23962004.0784   -1520662.91344  -1117143.52461
  24352992.2814    -306803.91143   -132733.79361
 91  4 24 20 19 15.0000000  0  6G18G11G19G 2G16G 6
  21118408.8594    2392576.52547   1864340.35163
  23209744.0394   -2565160.71946  -1998818.51361
  20844186.1644     -19989.01746    -15575.79862
  22722325.2814   -4507358.65246  -3476168.00661
  23957781.586    -1542854.241 4  -1134435.48421
  24346510.0164    -340841.11943   -159256.17361
 91  4 24 20 19 30.0000000  0  6G18G11G19G 2G16G 6
  21123867.4144    2421258.47647   1886689.86563
  23206088.7894   -2584357.26046  -2013776.79661
  20844510.0704     -18295.27146    -14256.00162
  22714455.4064   -4548707.98646  -3508388.17561
  23953581.3054   -1564923.28245  -1151632.14361
  24340041.430     -374868.285 3
 91  4 24 20 19 45.0000000  0  6G18G11G19G 2G16G 6
  21129345.5234    2450033.71448   1909112.07063
  23202459.7814   -2603433.21846  -2028641.14261
  20844835.8364     -16569.32746    -12911.11762
  22706597.2504   -4590002.29746  -3540565.46061
  23949404.266    -1586876.344 5  -1168738.45921
  24333566.281     -408891.923 3
 91  4 24 20 20  0.0000000  0  6G18G11G19G 2G16G 6
  21134839.7974    2478908.43348   1931611.78563
  23198852.930    -2622382.009 6  -2043406.39021
  20845173.1804     -14804.80646    -11536.17762
  22698753.1254   -4631235.02846  -3572694.76361
  23945251.7894   -1608706.80145  -1185749.19661
  24327094.742     -442905.594 3
 91  4 24 20 20 15.0000000  0  6G18G11G19G 2G16G 6
  21140351.8204    2507884.14347   1954190.19563
  23195271.3134   -2641201.82346  -2058071.15361
  20845516.266      -12999.993 6    -10129.84022
  22690916.547    -4672404.587 6  -3604774.83921
  23941121.086    -1630412.956 5  -1202663.06621
  24320623.039     -476907.710 3        -0.04531
 91  4 24 20 20 30.0000000  0  6G18G11G19G 2G16G 6
  21145886.4304    2536960.42447   1976846.97862
  23191716.4144   -2659892.77746  -2072635.46661
  20845870.2274     -11155.21446     -8692.36262
  22683094.1174   -4713511.17146  -3636805.84961
  23937015.4534   -1651995.19045  -1219480.41161
  24314153.563     -510898.712 3    -26486.44521
 91  4 24 20 20 45.0000000  0  6G18G11G19G 2G16G 6
  21151436.6484    2566135.39647   1999580.65962
  23188183.039    -2678456.096 6  -2087100.35221
  20846224.8674      -9272.01346     -7224.93762
  22675281.000    -4754556.124 6  -3668788.82821
  23932932.1414   -1673454.80645  -1236202.22261
  24307685.1724    -544880.21543    -52965.39461
 91  4 24 20 21  0.0000000  0  6G18G11G19G 2G16G 6
  21157007.766     2595407.139 7   2022389.74922
  23184672.8524   -2696893.20646  -2101466.89461
  20846591.5554      -7352.10946     -5728.91962
  22667481.6334   -4795541.13546  -3700725.09961
  23928872.641    -1694793.457 5  -1252829.75521
  24301225.0944    -578853.99544    -79438.34061
 91  4 24 20 21 15.0000000  0  6G18G11G19G 2G16G 6
  21162597.6024    2624777.30347   2045275.52662
  23181186.4454   -2715202.25046  -2115733.64961
  20846962.1174      -5393.68546     -4202.87762
  22659698.555    -4836464.294 6  -3732613.17421
  23924832.8674   -1716009.32545  -1269361.57561
  24294760.9144    -612818.32544   -105903.91861
 91  4 24 20 21 30.0000000  0  6G18G11G19G 2G16G 6
  21168203.8674    2654243.49547   2068236.13062
  23177731.9694   -2733385.41346  -2129902.28261
  20847342.0394      -3399.21546     -2648.75062
  22651920.3444   -4877328.09046  -3764454.99761
  23920818.6484   -1737104.63545  -1285799.46461
  24288297.664     -646775.747 4   -132364.13921
 91  4 24 20 21 45.0000000  0  6G18G11G19G 2G16G 6
  21173829.3524    2683805.23647   2091271.18763
  23174292.883    -2751442.928 6  -2143973.03421
  20847729.820       -1369.164 6     -1066.90022
  22644155.9924   -4918132.66246  -3796250.67361
  23916823.1094   -1758079.38845  -1302143.43461
  24281841.797     -680726.786 4   -158819.38021
 91  4 24 20 22  0.0000000  0  6G18G11G19G 2G16G 6
  21179474.0784    2713467.59647   2114384.64963
  23170883.977    -2769369.407 6  -2157941.67221
  20848124.1334        701.71246       546.76462
  22636405.3834   -4958872.72346  -3827996.07861
  23912854.9844   -1778928.57745  -1318389.57961
  24275380.8674    -714666.32844   -185265.62361
 91  4 24 20 22 15.0000000  0  6G18G11G19G 2G16G 6
  21185136.7274    2743226.64347   2137573.45563
  23167496.867    -2787168.317 6  -2171810.88921
  20848525.2664       2809.74446      2189.37662
  22628661.8594   -4999551.74046  -3859693.90861
  23908911.742    -1799655.993 5  -1334540.79221
  24268922.609     -748598.086 4   -211705.85621
 91  4 24 20 22 30.0000000  0  6G18G11G19G 2G16G 6
  21190818.3754    2773081.49847   2160836.90963
  23164133.477    -2804839.782 6  -2185580.81521
  20848933.1414       4954.49746      3860.60362
  22620932.9614   -5040170.27746  -3891344.62761
  23904993.9614   -1820261.73245  -1350597.19061
  24262468.203     -782522.677 4   -238140.48221
 91  4 24 20 22 45.0000000  0  6G18G11G19G 2G16G 6
  21196517.102     2803032.121 7   2184174.98523
  23160789.9144   -2822383.67446  -2199251.34361
  20849346.336        7135.907 6      5560.39222
  22613213.078    -5080728.311 6  -3922948.18121
  23901092.0004   -1840746.23545  -1366559.15061
  24256012.859     -816440.147 4   -264569.56321
 91  4 24 20 23  0.0000000  0  6G18G11G19G 2G16G 6
  21202234.8984    2833078.64247   2207587.79163
  23157481.6254   -2839799.49346  -2212822.07161
  20849768.5864       9354.25946      7288.97362
  22605508.4774   -5121225.25346  -3954504.14361
  23897223.4534   -1861108.51745  -1382425.83961
  24249559.1094    -850350.21644   -290992.89261
 91  4 24 20 23 15.0000000  0  6G18G11G19G 2G16G 6
  21207970.9774    2863221.19547   2231075.42562
  23154190.7734   -2857086.73346  -2226292.58861
  20850199.3284      11609.95846      9046.65362
  22597815.594    -5161660.900 6  -3986012.33421
  23893368.7424   -1881348.25245  -1398197.07661
  24243106.7584    -884252.74645   -317410.34261
 91  4 24 20 23 30.0000000  0  6G18G11G19G 2G16G 6
  21213725.8364    2893460.85547   2254638.73363
  23150925.2114   -2874244.16546  -2239661.97361
  20850637.4614      13903.82146     10834.07362
  22590129.3754   -5202034.20746  -4017471.96761
  23889537.3594   -1901464.70145  -1413872.16761
  24236653.273     -918146.697 4   -343821.13221
 91  4 24 20 23 45.0000000  0  6G18G11G19G 2G16G 6
  21219499.1884    2923799.98447   2278279.54262
  23147683.9844   -2891268.88246  -2252927.91761
  20851080.1564      16238.54246     12653.33462
  22582459.4694   -5242342.25546  -4048880.74661
  23885731.3914   -1921454.80245  -1429448.88461
  24230213.6024    -952029.70445   -370223.32861
 91  4 24 20 24  0.0000000  0  6G18G11G19G 2G16G 6
  21225289.2344    2954226.97347   2301988.81262
  23144469.289    -2908172.206 6  -2266099.29421
  20851532.0554      18602.75946     14495.57662
  22574801.7274   -5282596.31746  -4080247.46061
  23881950.9924   -1941330.03445  -1444936.06261
  24223763.094     -985913.115 5   -396625.89221
 91  4 24 20 24 15.0000000  0  6G18G11G19G 2G16G 6
  21231100.5234    2984751.09647   2325773.77262
  23141277.492    -2924944.379 6  -2279168.47521
  20851987.8834      21005.96746     16368.20062
  22567151.3984   -5322787.03346  -4111564.81261
  23878197.2114   -1961080.51445  -1460326.04261
  24217317.6954   -1019787.57844   -423021.45561
 91  4 24 20 24 30.0000000  0  6G18G11G19G 2G16G 6
  21236926.9614    3015370.58547   2349633.04363
  23138109.016    -2941586.873 6  -2292136.59221
  20852452.7344      23446.47246     18269.88562
  22559516.539    -5362916.000 6  -4142834.03821
  23874458.4774   -1980708.23745  -1475620.36961
  24210870.2664   -1053654.78544   -449411.38261
 91  4 24 20 24 45.0000000  0  6G18G11G19G 2G16G 6
  21242768.4924    3046084.24347   2373565.69562
  23134966.2504   -2958100.51946  -2305004.33061
  20852921.297       25923.335 6     20199.88922
  22551890.734    -5402983.890 6  -4174055.65921
  23870746.430    -2000213.929 5  -1490819.62821
  24204430.367    -1087515.769 4   -475796.46021
 91  4 24 20 25  0.0000000  0  6G18G11G19G 2G16G 6
  21248632.3444    3076896.83647   2397575.43762
  23131848.750    -2974480.336 6  -2317767.76921
  20853401.367       28441.385 7     22161.99222
  22544276.688    -5442985.868 6  -4205225.94521
  23867059.5474   -2019592.68745  -1505919.95461
  24197986.719    -1121365.909 4   -502173.08721
 91  4 24 20 25 15.0000000  0  6G18G11G19G 2G16G 6
  21254515.383     3107805.492 7   2421660.02822
  23128760.867    -2990728.572 6  -2330428.69021
  20853889.1174      30998.16646     24154.27962
  22536678.9144   -5482924.31746  -4236346.72161
  23863401.117    -2038846.912 5  -1520923.25021
  24191541.797    -1155207.719 4   -528543.25021
 91  4 24 20 25 30.0000000  0  6G18G11G19G 2G16G 6
  21260411.938     3138804.300 7   2445814.87022
  23125692.5864   -3006851.12146  -2342991.64561
  20854382.2814      33587.58446     26172.00262
  22529089.000    -5522805.325 6  -4267422.74221
  23859758.875    -2057982.916 5  -1535834.44321
  24185102.500    -1189047.431 4   -554911.74321
 91  4 24 20 25 45.0000000  0  6G18G11G19G 2G16G 6
  21266329.7664    3169894.88047   2470041.21962
  23122646.7034   -3022845.58046  -2355454.80461
  20854881.2664      36211.74646     28216.79562
  22521510.063    -5562626.559 6  -4298452.19421
  23856135.336    -2076998.192 5  -1550651.54821
  24178664.672    -1222882.954 5   -581276.98021
 91  4 24 20 26  0.0000000  0  6G18G11G19G 2G16G 6
  21272263.406     3201078.514 7   2494340.09022
  23119628.016    -3038710.724 6  -2367817.19521
  20855392.5474      38871.86546     30289.61662
  22513948.1024   -5602386.95346  -4329434.22761
  23852543.102    -2095891.642 5  -1565373.74721
  24172227.5554   -1256713.07645   -607637.98861
 91  4 24 20 26 15.0000000  0  6G18G11G19G 2G16G 6
  21278215.8524    3232353.81947   2518710.38262
  23116632.852    -3054447.306 6  -2380079.40621
  20855900.4454      41566.88546     32389.62562
  22506392.2814   -5642087.37246  -4360369.51961
  23848970.844    -2114664.186 5  -1580001.70721
  24165794.102    -1290539.119 5   -633995.84021
 91  4 24 20 26 30.0000000  0  6G18G11G19G 2G16G 6
  21284183.453     3263723.444 7   2543154.17323
  23113659.891    -3070052.429 6  -2392239.19021
  20856424.0164      44299.49546     34518.92662
  22498845.672    -5681724.792 6  -4391255.73121
  23845422.484    -2133312.539 5  -1594532.89321
  24159356.313    -1324358.257 5   -660348.28921
 91  4 24 20 26 45.0000000  0  6G18G11G19G 2G16G 6
  21290172.820     3295185.075 7   2567669.66223
  23110719.3134   -3085527.74146  -2404297.84261
  20856947.039       47067.727 6     36675.97922
  22491317.9224   -5721301.30846  -4422094.49161
  23841897.656    -2151838.999 5  -1608969.14121
  24152921.8674   -1358172.46745   -686696.92361
 91  4 24 20 27  0.0000000  0  6G18G11G19G 2G16G 6
  21296178.352     3326738.783 7   2592256.89323
  23107800.3914   -3100873.17746  -2416255.26461
  20857483.953       49871.827 6     38860.97322
  22483794.086    -5760816.684 6  -4452885.60921
  23838393.633    -2170243.198 5  -1623310.10221
  24146490.273    -1391981.780 5   -713041.76921
 91  4 24 20 27 15.0000000  0  6G18G11G19G 2G16G 6
  21302197.9694    3358385.19347   2616916.36063
  23104904.1254   -3116087.83146  -2428110.77061
  20858022.188       52712.466 6     41074.44022
  22476290.031    -5800270.195 6  -4483628.51221
  23834916.3524   -2188524.82245  -1637555.52661
  24140056.734    -1425785.610 4   -739382.32521
 91  4 24 20 27 30.0000000  0  6G18G11G19G 2G16G 6
  21308238.6954    3390128.31447   2641651.19663
  23102032.758    -3131167.273 6  -2439860.93621
  20858568.445       55593.731 6     43319.56522
  22468792.1644   -5839657.59046  -4514319.89661
  23831460.570    -2206679.406 5  -1651701.97521
  24133622.2734   -1459579.94444   -765715.45861
 91  4 24 20 27 45.0000000  0  6G18G11G19G 2G16G 6
  21314296.7664    3421961.77047   2666456.41963
  23099184.570    -3146117.489 6  -2451510.38221
  20859124.250       58509.615 6     45591.67122
  22461309.7114   -5878984.93946  -4544964.49561
  23828028.6334   -2224712.81545  -1665754.00661
  24127193.945    -1493370.870 4   -792045.96121
 91  4 24 20 28  0.0000000  0  6G18G11G19G 2G16G 6
  21320373.031     3453887.507 7   2691333.54822
  23096367.000    -3160936.042 6  -2463057.25821
  20859687.742       61462.130 6     47892.31922
  22453838.359    -5918250.007 6  -4575560.56221
  23824618.6724   -2242622.85745  -1679709.88461
  24120770.2584   -1527156.46045   -818372.29361
 91  4 24 20 28 15.0000000  0  6G18G11G19G 2G16G 6
  21326465.094     3485906.493 7   2716283.33822
  23093576.3834   -3175621.96546  -2474500.78661
  20860254.8134      64452.32946     50222.33262
  22446378.367    -5957451.551 6  -4606107.14121
  23821232.227    -2260408.849 5  -1693569.10021
  24114335.0314   -1560935.75045   -844693.70561
 91  4 24 20 28 30.0000000  0  6G18G11G19G 2G16G 6
  21332574.445     3518012.985 7   2741301.31222
  23090802.4304   -3190180.13146  -2485844.74361
  20860829.9144      67475.05346     52577.69862
  22438930.906    -5996594.663 6  -4636608.19321
  23817874.2114   -2278075.78945  -1707335.54261
  24107910.391    -1594713.949 5   -871014.27221
 91  4 24 20 28 45.0000000  0  6G18G11G19G 2G16G 6
  21338701.492     3550213.463 7   2766392.51922
  23088059.594    -3204604.106 6  -2497084.16021
  20861411.922       70536.567 6     54963.28422
  22431495.3444   -6035673.20546  -4667058.92261
  23814539.375    -2295617.283 5  -1721004.25221
  24101484.102    -1628484.911 5   -897329.17921
 91  4 24 20 29  0.0000000  0  6G18G11G19G 2G16G 6
  21344848.773     3582504.702 7   2791554.45122
  23085336.969    -3218896.688 6  -2508221.19121
  20862003.3444      73633.88446     57376.77362
  22424068.8754   -6074690.13046  -4697461.62861
  23811221.313    -2313036.217 5  -1734577.43921
  24095060.6094   -1662251.54944   -923640.75961
 91  4 24 20 29 15.0000000  0  6G18G11G19G 2G16G 6
  21351009.961     3614888.101 7   2816788.19922
  23082645.617    -3233056.012 6  -2519254.37421
  20862598.305       76768.666 6     59819.43322
  22416655.633    -6113643.388 6  -4727814.71521
  23807932.648    -2330330.726 5  -1748053.66121
  24088631.3594   -1696012.40444   -949947.80361
 91  4 24 20 29 30.0000000  0  6G18G11G19G 2G16G 6
  21357190.227     3647364.352 7   2842094.29122
  23079975.563    -3247081.073 6  -2530182.93821
  20863203.828       79941.908 6     62292.07722
  22409254.3284   -6152532.10546  -4758117.52261
  23804662.5704   -2347499.75545  -1761432.13061
  24082203.2194   -1729766.61744   -976249.68261
 91  4 24 20 29 45.0000000  0  6G18G11G19G 2G16G 6
  21363390.102     3679931.268 7   2867471.03822
  23077330.477    -3260973.722 6  -2541008.33021
  20863813.180       83151.710 6     64793.20422
  22401867.836    -6191358.332 6  -4788371.63621
  23801421.9614   -2364545.49545  -1774714.50561
  24075782.469    -1763516.235 3  -1002547.98821
 91  4 24 20 30  0.0000000  0  6G18G11G19G 2G16G 6
  21369603.234     3712590.125 7   2892919.42422
  23074715.695    -3274732.335 6  -2551729.26921
  20864434.3914      86399.50846     67323.94962
  22394490.656    -6230120.398 6  -4818575.77121
  23798194.4694   -2381466.56145  -1787899.77161
  24069365.6484   -1797259.82444  -1028841.59361
 91  4 24 20 30 15.0000000  0  6G18G11G19G 2G16G 6
  21375833.3834    3745340.34547   2918439.00862
  23072122.3834   -3288357.15746  -2562345.96361
  20865056.492       89684.768 6     69883.87622
  22387127.180    -6268818.853 6  -4848730.33821
  23795001.734    -2398263.313 5  -1800988.13321
  24062945.6414   -1830998.12844  -1055131.08561
 91  4 24 20 30 30.0000000  0  6G18G11G19G 2G16G 6
  21382086.359     3778183.180 7   2944030.75322
  23069555.8134   -3301846.72646  -2572857.28961
  20865688.0164      93008.78146     72474.00462
  22379774.8444   -6307452.23246  -4878834.18561
  23791830.398    -2414934.045 5  -1813978.29821
  24056525.3834   -1864729.75843  -1081415.38161
 91  4 24 20 30 45.0000000  0  6G18G11G19G 2G16G 6
  21388352.859     3811117.635 7   2969693.89122
  23067011.4614   -3315201.50346  -2583263.55161
  20866328.922       96370.759 6     75093.71622
  22372434.336    -6346021.167 6  -4908887.81321
  23788678.8914   -2431479.70745  -1826871.04161
  24050105.313    -1898455.315 3  -1107694.93521
 91  4 24 20 31  0.0000000  0  6G18G11G19G 2G16G 6
  21394635.766     3844142.616 7   2995427.56822
  23064497.078    -3328422.241 6  -2593565.36221
  20866979.5474      99769.98246     77742.45062
  22365109.6564   -6384526.33246  -4938891.74661
  23785557.031    -2447901.094 5  -1839666.92021
  24043689.0004   -1932175.92243  -1133970.63261
 91  4 24 20 31 15.0000000  0  6G18G11G19G 2G16G 6
  21400939.266     3877262.115 7   3021234.89222
  23062008.1954   -3341504.57546  -2603759.35861
  20867631.773      103210.816 6     80423.60422
  22357792.6884   -6422963.46746  -4968842.67361
  23782453.352    -2464193.970 5  -1852362.68321
  24037281.320    -1965887.549 4  -1160239.33321
 91  4 24 20 31 30.0000000  0  6G18G11G19G 2G16G 6
  21407261.422     3910477.224 7   3047116.72222
  23059545.586    -3354447.215 6  -2613844.48021
  20868292.563      106694.462 6     83138.11722
  22350489.398    -6461331.476 6  -4998739.74021
  23779382.8594   -2480357.09145  -1864957.30761
  24030857.086    -1999588.982 4  -1186500.06121
 91  4 24 20 31 45.0000000  0  6G18G11G19G 2G16G 6
  21413596.133     3943784.412 7   3073070.29722
  23057107.172    -3367253.437 6  -2623823.29921
  20868965.359      110217.317 6     85883.18622
  22343203.281    -6499633.625 6  -5028585.48921
  23776332.492    -2496393.643 5  -1877453.34821
  24024452.4534   -2033283.63945  -1212755.53761
 91  4 24 20 32  0.0000000  0  6G18G11G19G 2G16G 6
  21419951.578     3977185.577 7   3099097.10522
  23054696.227    -3379921.008 6  -2633694.09121
  20869644.125      113781.365 6     88660.35222
  22335927.875    -6537867.723 6  -5058378.21321
  23773305.148    -2512301.545 5  -1889849.14921
  24018035.977    -2066969.636 4  -1239004.24321
 91  4 24 20 32 15.0000000  0  6G18G11G19G 2G16G 6
  21426329.555     4010683.691 7   3125199.45122
  23052313.1174   -3392446.38646  -2643454.08661
  20870329.852      117390.186 6     91472.41022
  22328665.750    -6576030.496 6  -5088115.35321
  23770296.2274   -2528077.52645  -1902142.11261
  24011629.000    -2100643.750 4  -1265243.71121
 91  4 24 20 32 30.0000000  0  6G18G11G19G 2G16G 6
  21432721.195     4044273.093 7   3151372.92922
  23049957.9224   -3404834.80346  -2653107.35961
  20871024.7274     121038.30146     94315.08862
  22321417.891    -6614127.099 6  -5117800.93921
  23767323.8204   -2543726.92645  -1914336.47061
  24005222.047    -2134311.244 4  -1291478.01921
 91  4 24 20 32 45.0000000  0  6G18G11G19G 2G16G 6
  21439130.695     4077956.672 7   3177619.79522
  23047624.9534   -3417083.29346  -2662651.59961
  20871726.703      124728.719 6     97190.72722
  22314180.891    -6652154.596 6  -5147432.66621
  23764370.813    -2559246.994 5  -1926430.04421
  23998816.203    -2167969.450 3  -1317705.09721
 91  4 24 20 33  0.0000000  0  6G18G11G19G 2G16G 6
  21445557.906     4111735.602 7   3203940.96422
  23045322.469    -3429190.304 6  -2672085.57821
  20872437.7114     128462.77246    100100.37062
  22306956.813    -6690111.582 6  -5177009.45921
  23761442.563    -2574636.204 5  -1938421.65721
  23992420.3594   -2201617.12144  -1343923.96461
 91  4 24 20 33 15.0000000  0  6G18G11G19G 2G16G 6
  21452003.180     4145606.819 7   3230334.04822
  23043044.680    -3441158.793 6  -2681411.62721
  20873152.664      132237.371 6    103041.60322
  22299746.563    -6728001.255 6  -5206533.80021
  23758538.5554   -2589897.72245  -1950313.77261
  23986011.453    -2235257.398 3  -1370137.05421
 91  4 24 20 33 30.0000000  0  6G18G11G19G 2G16G 6
  21458467.063     4179577.910 7   3256804.94722
  23040793.703    -3452980.301 6  -2690623.14521
  20873882.508      136060.698 6    106020.80722
  22292552.0084   -6765815.05946  -5235999.01861
  23755658.8674   -2605023.23545  -1962099.89061
  23979621.8444   -2268882.04944  -1396337.99761
 91  4 24 20 33 45.0000000  0  6G18G11G19G 2G16G 6
  21464952.445     4213649.161 7   3283353.88722
  23038572.3674   -3464654.22046  -2699719.66761
  20874617.727      139933.291 6    109038.39622
  22285367.3674   -6803552.46146  -5265404.69561
  23752808.539    -2620011.837 5  -1973779.33521
  23973219.602    -2302490.598 4  -1422526.34721
 91  4 24 20 34  0.0000000  0  6G18G11G19G 2G16G 6
  21471456.227     4247823.063 7   3309982.82222
  23036377.8674   -3476178.11046  -2708699.27961
  20875366.164      143857.511 6    112096.21822
  22278204.125    -6841211.057 6  -5294748.97821
  23749981.086    -2634861.336 5  -1985350.38021
  23966831.586    -2336080.790 5  -1448700.42521
 91  4 24 20 34 15.0000000  0  6G18G11G19G 2G16G 6
  21477975.8054    4282095.24347   3336688.32862
  23034214.9844   -3487556.10846  -2717565.21761
  20876121.7584     147828.98946    115190.86962
  22271053.633    -6878794.959 6  -5324035.05422
  23747179.328    -2649575.990 5  -1996816.37321
  23960442.625    -2369657.107 5  -1474863.66021
 91  4 24 20 34 30.0000000  0  6G18G11G19G 2G16G 6
  21484515.484     4316466.383 7   3363470.95822
  23032077.133    -3498786.990 6  -2726316.51021
  20876888.6724     151848.89346    118323.25062
  22263913.086    -6916303.277 6  -5353262.22822
  23744405.6024   -2664154.86245  -2008176.54261
  23954055.930    -2403218.513 5  -1501015.29121
 91  4 24 20 34 45.0000000  0  6G18G11G19G 2G16G 6
  21491076.398     4350936.190 7   3390330.46622
  23029968.9384   -3509870.56646  -2734953.02761
  20877660.8834     155917.62846    121493.68862
  22256789.391    -6953735.870 6  -5382430.40922
  23741660.2034   -2678597.68345  -2019430.68961
  23947673.2664   -2436764.96345  -1527155.26561
 91  4 24 20 35  0.0000000  0  6G18G11G19G 2G16G 6
  21497654.773     4385512.836 7   3417273.22622
  23027887.570    -3520798.286 6  -2743468.09521
  20878448.3204     160043.46246    124708.61462
  22249686.031    -6991084.160 7  -5411532.89521
  23738938.094    -2692896.233 5  -2030572.44021
  23941295.7814   -2470288.06245  -1553277.04761
 91  4 24 20 35 15.0000000  0  6G18G11G19G 2G16G 6
  21504257.281     4420194.389 7   3444297.72822
  23025838.0394   -3531571.81946  -2751863.01361
  20879242.570      164224.378 6    127966.46122
  22242589.102    -7028349.930 6  -5440571.07221
  23736243.0704   -2707052.21545  -2041603.07561
  23934913.547    -2503789.720 5  -1579382.12621
 91  4 24 20 35 30.0000000  0  6G18G11G19G 2G16G 6
  21510874.5164    4454981.20347   3471404.24962
  23023815.6334   -3542190.77346  -2760137.48261
  20880047.758      168460.874 6    131267.61222
  22235516.125    -7065532.693 7  -5469544.57821
  23733575.164    -2721065.402 5  -2052522.46921
  23928544.7974   -2537269.78645  -1605470.41261
 91  4 24 20 35 45.0000000  0  6G18G11G19G 2G16G 6
  21517516.672     4489875.896 7   3498594.84022
  23021826.891    -3552651.957 6  -2768289.00421
  20880866.656      172755.866 6    134614.34922
  22228455.984    -7102629.402 6  -5498451.01521
  23730936.609    -2734932.621 5  -2063328.09621
  23922179.0004   -2570725.30945  -1631539.53261
 91  4 24 20 36  0.0000000  0  6G18G11G19G 2G16G 6
  21524178.4774    4524884.66747   3525874.31462
  23019866.4534   -3562948.96046  -2776312.59961
  20881697.938      177115.710 6    138011.61322
  22221415.336    -7139633.787 6  -5527285.51921
  23728324.758    -2748647.712 5  -2074015.20021
  23915816.734    -2604150.050 5  -1657584.65221
 91  4 24 20 36 15.0000000  0  6G18G11G19G 2G16G 6
  21530861.5704    4560009.06747   3553243.88362
  23017937.7424   -3573079.84346  -2784206.76261
  20882533.047      181542.221 6    141460.82922
  22214390.711    -7176544.053 6  -5556046.68522
  23725748.758    -2762208.854 5  -2084582.34321
  23909466.875    -2637542.260 5  -1683604.44121
 91  4 24 20 36 30.0000000  0  6G18G11G19G 2G16G 6
  21537566.9844    4595249.45847   3580703.83662
  23016044.5634   -3583043.84846  -2791970.88161
  20883395.3834     186036.06946    144962.51562
  22207385.219    -7213359.466 7  -5584733.94621
  23723200.9844   -2775615.18445  -2095028.85761
  23903123.375    -2670901.597 5  -1709598.56421
 91  4 24 20 36 45.0000000  0  6G18G11G19G 2G16G 6
  21544297.391     4630608.073 7   3608255.92022
  23014176.0164   -3592838.37846  -2799602.94561
  20884258.6094     190599.97646    148518.80362
  22200398.758    -7250077.400 7  -5613345.24122
  23720676.086    -2788864.117 5  -2105352.70621
  23896775.961    -2704225.238 5  -1735564.93221
 91  4 24 20 37  0.0000000  0  6G18G11G19G 2G16G 6
  21551050.9924    4666089.06547   3635903.35262
  23012349.086    -3602459.172 6  -2807099.63621
  20885143.7504     195238.06246    152132.88962
  22193429.8284   -7286693.54147  -5641877.22561
  23718183.3914   -2801951.60545  -2115550.76361
  23890438.4774   -2737509.29845  -1761500.43761
 91  4 24 20 37 15.0000000  0  6G18G11G19G 2G16G 6
  21557824.711     4701699.237 7   3663651.45522
  23010552.664    -3611899.094 6  -2814455.36921
  20886041.0394     199957.29946    155810.21062
  22186482.859    -7323200.847 7  -5670324.39821
  23715724.8754   -2814870.68145  -2125617.58361
  23884112.508    -2770746.779 5  -1787399.65421
 91  4 24 20 37 30.0000000  0  6G18G11G19G 2G16G 6
  21564626.297     4737437.127 7   3691499.07422
  23008790.242    -3621159.251 6  -2821671.03621
  20886955.2344     204756.44446    159549.79362
  22179555.703    -7359600.469 6  -5698687.66321
  23713301.297    -2827622.546 5  -2135554.11521
  23877798.2894   -2803938.93445  -1813263.56761
 91  4 24 20 37 45.0000000  0  6G18G11G19G 2G16G 6
  21571452.7274    4773306.02647   3719448.78062
  23007063.5394   -3630236.16846  -2828743.91461
  20887885.109      209638.797 6    163354.21022
  22172649.609    -7395889.155 6  -5726964.48521
  23710903.4454   -2840203.80945  -2145357.69161
  23871493.5704   -2837082.51645  -1839089.62261
 91  4 24 20 38  0.0000000  0  6G18G11G19G 2G16G 6
  21578303.2424    4809308.82947   3747502.82162
  23005371.7734   -3639126.24846  -2835671.20661
  20888831.539      214607.783 6    167226.13222
  22165766.641    -7432063.527 7  -5755152.22221
  23708540.898    -2852610.748 5  -2155025.45721
  23865196.836    -2870174.301 5  -1864875.32621
 91  4 24 20 38 15.0000000  0  6G18G11G19G 2G16G 6
  21585180.2504    4845451.18647   3775665.60162
  23003715.8594   -3647823.58046  -2842448.32061
  20889793.414      219669.289 6    171170.14522
  22158907.352    -7468117.659 7  -5783246.27421
  23706219.1564   -2864837.81145  -2164553.05661
  23858910.9384   -2903208.47045  -1890616.10461
 91  4 24 20 38 30.0000000  0  6G18G11G19G 2G16G 6
  21592084.781     4881731.962 7   3803936.24622
  23002098.4844   -3656329.14946  -2849075.98961
  20890775.625      224822.195 6    175185.38122
  22152067.500    -7504052.443 7  -5811247.32721
  23703919.5234   -2876886.01945  -2173941.30761
  23852635.2734   -2936186.07045  -1916312.82261
 91  4 24 20 38 45.0000000  0  6G18G11G19G 2G16G 6
  21599017.3984    4918155.09147   3832317.81562
  23000515.1024   -3664638.72246  -2855550.95061
  20891772.852      230070.735 6    179275.13622
  22145254.0634   -7539863.68047  -5839152.12362
  23701666.8204   -2888751.46945  -2183187.09061
  23846367.2504   -2969103.17845  -1941962.36961
 91  4 24 20 39  0.0000000  0  6G18G11G19G 2G16G 6
  21605973.5314    4954722.45847   3860811.77962
  22998971.8834   -3672750.03846  -2861871.42361
  20892793.4694     235416.93146    183441.00162
  22138460.7274   -7575549.13647  -5866958.90161
  23699444.0084   -2900431.98845  -2192288.80661
  23840117.469    -3001957.721 5  -1967563.23121
 91  4 24 20 39 15.0000000  0  6G18G11G19G 2G16G 6
  21612963.0084    4991438.78447   3889421.81262
  22997467.797    -3680658.222 6  -2868033.58021
  20893825.5164     240865.91346    187686.95262
  22131693.7424   -7611103.88146  -5894663.83262
  23697257.6094   -2911922.90245  -2201242.75661
  23833874.977    -3034744.739 5  -1993111.42121
 91  4 24 20 39 30.0000000  0  6G18G11G19G 2G16G 6
  21619977.6644    5028304.72147   3918148.42062
  22996002.398    -3688362.322 6  -2874036.73621
  20894885.4144     246418.44646    192013.59462
  22124954.586    -7646527.014 7  -5922266.19921
  23695106.039    -2923222.917 5  -2210047.95521
  23827650.0784   -3067463.63745  -2018606.55361
 91  4 24 20 39 45.0000000  0  6G18G11G19G 2G16G 6
  21627022.6724    5065329.25047   3946998.61062
  22994576.7344   -3695852.68746  -2879873.34861
  20895960.4924     252084.00046    196428.30162
  22118239.344    -7681809.172 7  -5949758.71021
  23692996.391    -2934322.542 5  -2218697.00521
  23821441.203    -3100104.822 5  -2044041.13221
 91  4 24 20 40  0.0000000  0  6G18G11G19G 2G16G 6
  21634095.6484    5102506.68647   3975967.95162
  22993193.2974   -3703134.93546  -2885547.79961
  20897060.539      257856.903 6    200926.65422
  22111552.664    -7716955.913 7  -5977145.70721
  23690919.5474   -2945227.85445  -2227194.64361
  23815239.680    -3132674.364 5  -2069419.86621
 91  4 24 20 40 15.0000000  0  6G18G11G19G 2G16G 6
  21641202.4384    5139845.72547   4005063.21862
  22991845.1174   -3710200.09546  -2891053.08461
  20898179.4614     263745.97146    205515.52762
  22104890.516    -7751958.381 7  -6004420.27422
  23688882.461    -2955929.844 5  -2235533.83721
  23809063.195    -3165163.292 5  -2094735.82821
 91  4 24 20 40 30.0000000  0  6G18G11G19G 2G16G 6
  21648341.1254    5177351.10647   4034288.10562
  22990544.953    -3717042.895 6  -2896385.09721
  20899326.3594     269756.28746    210198.88562
  22098260.766    -7786811.411 7  -6031578.41422
  23686888.0234   -2966423.28045  -2243710.52561
  23802889.188    -3197566.571 5  -2119985.01521
 91  4 24 20 40 45.0000000  0  6G18G11G19G 2G16G 6
  21655510.4844    5215026.07247   4063645.13162
  22989285.2114   -3723659.84546  -2901541.10261
  20900492.3054     275891.52746    214979.58262
  22091656.3284   -7821511.42147  -6058617.31662
  23684926.656    -2976704.881 5  -2251722.15221
  23796742.977    -3229880.773 5  -2145164.80421
 91  4 24 20 41  0.0000000  0  6G18G11G19G 2G16G 6
  21662711.9454    5252870.41247   4093134.13662
  22988068.9224   -3730051.03846  -2906521.21461
  20901682.8674     282151.55846    219857.51762
  22085083.6254   -7856058.65547  -6085537.17662
  23683015.1024   -2986774.95345  -2259568.96361
  23790614.0394   -3262106.23545  -2170275.46861
 91  4 24 20 41 15.0000000  0  6G18G11G19G 2G16G 6
  21669944.5234    5290888.62747   4122758.62162
  22986895.133    -3736211.537 6  -2911321.55021
  20902897.2664     288541.19346    224836.44462
  22078539.0234   -7890448.19747  -6112334.15762
  23681137.188    -2996628.361 5  -2267246.92321
  23784499.227    -3294238.128 4  -2195313.20221
 91  4 24 20 41 30.0000000  0  6G18G11G19G 2G16G 6
  21677214.4304    5329082.90447   4152520.30662
  22985769.250    -3742138.746 6  -2915940.10021
  20904142.2034     295062.69746    229918.12762
  22072025.2734   -7924677.48547  -6139006.26362
  23679308.3134   -3006262.54245  -2274754.07761
  23778396.641    -3326273.982 4  -2220276.12921
 91  4 24 20 41 45.0000000  0  6G18G11G19G 2G16G 6
  21684516.8754    5367460.68347   4182424.98162
  22984688.633    -3747825.115 6  -2920371.00121
  20905408.5004     301723.65146    235108.47062
  22065542.938    -7958738.874 7  -6165547.53222
  23677515.6804   -3015670.48345  -2282084.94661
  23772322.398    -3358206.592 4  -2245158.57921
 91  4 24 20 42  0.0000000  0  6G18G11G19G 2G16G 6
  21691855.7894    5406019.18347   4212470.47262
  22983649.336    -3753273.005 6  -2924616.06721
  20906699.375      308521.802 6    240405.71722
  22059094.0704   -7992634.92147  -6191959.96862
  23675762.4384   -3024854.63845  -2289241.44361
  23766267.6414   -3390038.18844  -2269962.36361
 91  4 24 20 42 15.0000000  0  6G18G11G19G 2G16G 6
  21699226.9844    5444760.16447   4242658.16162
  22982660.2114   -3758480.18546  -2928673.58661
  20908019.0554     315459.25446    245811.51362
  22052674.367    -8026363.542 7  -6218241.93722
  23674063.6334   -3033812.52945  -2296221.61661
  23760226.781    -3421766.902 5  -2294685.93721
 91  4 24 20 42 30.0000000  0  6G18G11G19G 2G16G 6
  21706633.6564    5483683.75247   4272988.13562
  22981714.547    -3763446.576 6  -2932543.45421
  20909367.4454     322536.08646    251325.92562
  22046286.5864   -8059924.56847  -6244393.32062
  23672398.7194   -3042544.42845  -2303025.71861
  23754212.063    -3453392.698 5  -2319329.31821
 91  4 24 20 42 45.0000000  0  6G18G11G19G 2G16G 6
  21714075.367     5522795.168 7   4303464.47022
  22980816.250    -3768166.501 6  -2936221.27021
  20910742.6334     329757.86946    256953.27862
  22039934.6334   -8093312.20547  -6270409.60762
  23670783.055    -3051044.598 5  -2309649.21421
  23748213.320    -3484910.149 5  -2343888.26721
 91  4 24 20 43  0.0000000  0  6G18G11G19G 2G16G 6
  21721554.5554    5562093.15147   4334086.18162
  22979963.836    -3772641.022 6  -2939707.87421
  20912143.3914     337123.60546    262692.81362
  22033612.6024   -8126527.62147  -6296291.68062
  23669209.9774   -3059314.16045  -2316093.03561
  23742235.6254   -3516320.28945  -2368363.61061
 91  4 24 20 43 15.0000000  0  6G18G11G19G 2G16G 6
  21729068.5864    5601576.41847   4364852.26662
  22979158.3284   -3776871.01546  -2943003.93461
  20913572.0234     344632.19846    268543.66162
  22027326.4224   -8159571.84147  -6322040.35962
  23667683.305    -3067354.156 5  -2322357.98221
  23736275.9614   -3547624.12845  -2392756.12161
 91  4 24 20 43 30.0000000  0  6G18G11G19G 2G16G 6
  21736617.0234    5641245.86547   4395763.42562
  22978402.195    -3780855.166 6  -2946108.42621
  20915031.3444     352284.95746    274506.84462
  22021069.570    -8192443.476 7  -6347654.54722
  23666188.7584   -3075163.48045  -2328443.16361
  23730336.4614   -3578820.77345  -2417065.10461
 91  4 24 20 43 45.0000000  0  6G18G11G19G 2G16G 6
  21744201.2424    5681102.96147   4426820.80562
  22977688.9454   -3784591.76546  -2949020.02661
  20916513.117      360083.678 6    280583.75522
  22014848.164    -8225140.704 7  -6373132.83722
  23664749.8524   -3082740.51045  -2334347.36161
  23724426.1174   -3609908.31145  -2441289.09161
 91  4 24 20 44  0.0000000  0  6G18G11G19G 2G16G 6
  21751822.7974    5721149.17747   4458025.55062
  22977022.8204   -3788079.14746  -2951737.43861
  20918024.5394     368029.73846    286775.47862
  22008660.3754   -8257662.14147  -6398474.15062
  23663359.211    -3090083.455 5  -2340069.10421
  23718535.852    -3640885.440 5  -2465427.04321
 91  4 24 20 44 15.0000000  0  6G18G11G19G 2G16G 6
  21759476.9224    5761379.25847   4489373.56662
  22976405.430    -3791322.388 6  -2954264.61021
  20919564.2504     376118.13546    293078.11662
  22002503.0704   -8290012.90946  -6423682.47662
  23661998.727    -3097197.534 5  -2345612.58021
  23712653.477    -3671757.280 5  -2489482.92721
 91  4 24 20 44 30.0000000  0  6G18G11G19G 2G16G 6
  21767168.6414    5801793.22547   4520864.88262
  22975835.6094   -3794321.02346  -2956601.15861
  20921130.3754     384349.26246    299491.97463
  21996381.0474   -8322192.54846  -6448757.45562
  23660690.7664   -3104082.53145  -2350977.52061
  23706800.156    -3702523.574 5  -2513456.58821
 91  4 24 20 44 45.0000000  0  6G18G11G19G 2G16G 6
  21774894.1334    5842389.32247   4552498.10662
  22975314.727    -3797076.516 6  -2958748.27821
  20922723.4144     392721.66446    306015.91662
  21990288.8054   -8354202.39147  -6473700.12562
  23659427.555    -3110740.060 5  -2356165.19921
  23700973.6414   -3733185.78945  -2537349.13161
 91  4 24 20 45  0.0000000  0  6G18G11G19G 2G16G 6
  21782652.953     5883163.402 7   4584270.01722
  22974838.1024   -3799592.70446  -2960708.91261
  20924343.9224     401231.55346    312646.99462
  21984228.727    -8386046.427 7  -6498513.59422
  23658201.0864   -3117173.84445  -2361178.54361
  23695150.7424   -3763747.92045  -2561163.69161
 91  4 24 20 45 15.0000000  0  6G18G11G19G 2G16G 6
  21790443.922     5924113.835 7   4616179.33922
  22974401.7584   -3801871.06746  -2962484.23161
  20925989.6644     409877.32446    319383.95162
  21978200.0474   -8417726.17847  -6523199.04662
  23657018.344    -3123385.588 5  -2366018.88521
  23689353.016    -3794211.627 5  -2584901.58121
 91  4 24 20 45 30.0000000  0  6G18G11G19G 2G16G 6
  21798270.7034    5965238.02547   4648224.06862
  22974011.3674   -3803913.85946  -2964075.98161
  20927660.914      418656.692 6    326225.00522
  21972202.961    -8449243.837 6  -6547758.19022
  23655880.039    -3129377.661 5  -2370688.03921
  23683574.484    -3824579.318 5  -2608564.62821
 91  4 24 20 45 45.0000000  0  6G18G11G19G 2G16G 6
  21806130.1094    6006528.91447   4680398.68862
  22973667.2664   -3805727.60946  -2965489.25561
  20929354.008      427562.976 6    333164.95222
  21966234.8054   -8480605.95046  -6572196.13262
  23654777.4774   -3135157.14945  -2375191.51861
  23677814.4924   -3854857.64945  -2632158.03161
 91  4 24 20 46  0.0000000  0  6G18G11G19G 2G16G 6
  21814018.6884    6047990.02247   4712705.94262
  22973367.797    -3807308.625 6  -2966721.17821
  20931072.203      436599.996 6    340206.77422
  21960295.2974   -8511808.76446  -6596509.95162
  23653721.234    -3140719.734 5  -2379526.01521
  23672069.336    -3885042.996 5  -2655678.98621
 91  4 24 20 46 15.0000000  0  6G18G11G19G 2G16G 6
  21821939.445     6089611.235 7   4745137.95722
  22973108.367    -3808666.713 6  -2967779.41521
  20932814.391      445757.686 6    347342.62122
  21954386.3984   -8542862.20446  -6620707.37562
  23652698.758    -3146075.361 5  -2383699.24521
  23666338.086    -3915145.307 5  -2679135.25221
 91  4 24 20 46 30.0000000  0  6G18G11G19G 2G16G 6
  21829888.7424    6131390.96347   4777693.49562
  22972891.633    -3809803.458 6  -2968665.16821
  20934581.7894     455034.53346    354571.32862
  21948507.0084   -8573767.97747  -6644789.73262
  23651722.602    -3151225.787 5  -2387712.56621
  23660630.5784   -3945166.35645  -2702528.19661
 91  4 24 20 46 45.0000000  0  6G18G11G19G 2G16G 6
  21837869.0234    6173323.22347   4810367.88662
  22972713.813    -3810724.273 6  -2969382.65821
  20936367.5864     464425.29346    361888.79162
  21942650.7114   -8604531.35547  -6668761.13362
  23650776.109    -3156176.762 5  -2391570.47921
  23654930.0164   -3975111.50045  -2725861.96961
 91  4 24 20 47  0.0000000  0  6G18G11G19G 2G16G 6
  21845877.391     6215400.146 7   4843154.99322
  22972580.5394   -3811436.86646  -2969937.90461
  20938175.5084     473922.27846    369289.03362
  21936823.273    -8635160.043 7  -6692627.57522
  23649871.758    -3160936.104 5  -2395279.06421
  23649247.7584   -4004988.54645  -2749142.66261
 91  4 24 20 47 15.0000000  0  6G18G11G19G 2G16G 6
  21853909.000     6257621.632 7   4876054.74622
  22972483.875    -3811941.079 6  -2970330.77721
  20940002.9224     483525.33746    376771.93262
  21931021.6414   -8665653.92847  -6716388.97362
  23649004.711    -3165503.664 5  -2398838.23621
  23643576.7974   -4034797.54945  -2772370.37761
 91  4 24 20 47 30.0000000  0  6G18G11G19G 2G16G 6
  21861969.992     6299981.228 7   4909062.11822
  22972429.297    -3812242.976 6  -2970565.99421
  20941850.172      493228.375 6    384332.72722
  21925242.1884   -8696019.15146  -6740050.11962
  23648169.031    -3169885.732 5  -2402252.86021
  23637914.8674   -4064544.70245  -2795549.89961
 91  4 24 20 47 45.0000000  0  6G18G11G19G 2G16G 6
  21870058.891     6342472.842 7   4942172.35522
  22972406.508    -3812348.163 6
  20943713.156      503025.898 6    391967.15222
  21919485.8834   -8726261.41546  -6763615.46762
  23647367.0554   -3174087.87945  -2405527.28761
  23632261.4924   -4094235.70345  -2818685.64261
 91  4 24 20 48  0.0000000  0  6G18G11G19G 2G16G 6
  21878169.031     6385096.403 7   4975385.41222
  22972424.297    -3812256.866 6
  20945593.984      512917.895 6    399675.18422
  21913757.3364   -8756381.10847  -6787085.29562
  23646604.3054   -3178110.08745  -2408661.50161
  23626619.383    -4123870.874 5  -2841777.87321
 91  4 24 20 48 15.0000000  0  6G18G11G19G 2G16G 6
  21886302.664     6427840.495 7   5008692.38322
  22972475.1954   -3811980.06846
  20947493.9924     522893.06746    407448.03362
  21908043.5704   -8786389.06447  -6810468.05462
  23645869.953    -3181963.906 5  -2411664.50421
  23620989.9534   -4153461.40545  -2864835.33061
 91  4 24 20 48 30.0000000  0  6G18G11G19G 2G16G 6
  21894458.438     6470708.223 7   5042095.70522
  22972564.117    -3811514.319 6
  20949411.6564     532954.85046    415288.37062
  21902356.9384   -8816281.74747  -6833760.99662
  23645171.1644   -3185646.11745  -2414533.78061
  23615366.2504   -4183003.82245  -2887855.30561
 91  4 24 20 48 45.0000000  0  6G18G11G19G 2G16G 6
  21902639.664     6513696.802 7   5075593.19522
  22972689.1644   -3810862.13346  -2969489.92261
  20951338.8054     543100.92146    423194.39262
  21896691.3444   -8846061.74747  -6856966.12362
  23644502.398    -3189159.144 5  -2417271.28521
  23609755.2034   -4212500.68245  -2910839.76661
 91  4 24 20 49  0.0000000  0  6G18G11G19G 2G16G 6
  21910841.391     6556798.084 6   5109178.49922
  22972852.3754   -3810031.50246  -2968842.63961
  20953287.0704     553323.32546    431159.89162
  21891043.9454   -8875736.89747  -6880089.56262
  23643866.1334   -3192510.82845  -2419882.96861
  23604149.6724   -4241960.11245  -2933795.07961
 91  4 24 20 49 15.0000000  0  6G18G11G19G 2G16G 6
  21919065.930     6600007.874 7   5142848.36422
  22973038.1484   -3809026.41146  -2968059.41061
  20955244.2664     563617.86646    439181.60462
  21885414.453    -8905311.076 7  -6903134.32122
  23643254.133    -3195705.220 5  -2422372.15221
  23598550.0864   -4271386.25045  -2956724.43061
 91  4 24 20 49 30.0000000  0  6G18G11G19G 2G16G 6
  21927309.133     6643323.754 7   5176600.88622
  22973264.5164   -3807848.66946  -2967141.69261
  20957216.6484     573982.69046    447258.07962
  21879803.8284   -8934786.39947
  23642680.383    -3198744.435 5  -2424740.38721
  23592953.8754   -4300781.00845
 91  4 24 20 49 45.0000000  0  6G18G11G19G 2G16G 6
  21935571.9224    6686750.70147   5210439.94862
  22973522.0084   -3806493.31446  -2966085.53561
  20959203.531      584422.739 6    455393.17122
  21874217.8134   -8964157.84347
  23642130.086    -3201623.677 5  -2426983.99121
  23587371.1884   -4330139.46745
 91  4 24 20 50  0.0000000  0  6G18G11G19G 2G16G 6
  21943855.6564    6730280.10547   5244358.85062
  22973810.563    -3804968.510 6  -2964897.36221
  20961200.6094     594929.87746    463580.53862
  21868643.1484   -8993433.60747
  23641611.0084   -3204351.18645  -2429109.33361
  23581785.2114   -4359469.91345
 91  4 24 20 50 15.0000000  0  6G18G11G19G 2G16G 6
  21952157.023     6773908.802 7   5278355.12122
  22974134.000    -3803277.315 6  -2963579.53021
  20963212.1884     605501.14446    471817.88162
  21863092.4384   -9022616.60647  -6994540.97162
  23641119.9614   -3206930.11045  -2431118.92661
  23576209.0164   -4388775.47245
 91  4 24 20 50 30.0000000  0  6G18G11G19G 2G16G 6
  21960477.1254    6817634.82347   5312427.22761
  22974481.516    -3801421.595 6  -2962133.50421
  20965237.7424     616134.83846    480103.87462
  21857556.5164   -9051708.81147  -7017210.16262
  23640657.680    -3209362.389 5  -2433014.22521
  23570636.2424   -4418058.00545  -3008144.15861
 91  4 24 20 50 45.0000000  0  6G18G11G19G 2G16G 6
  21968818.5474    6861453.41247   5346571.45962
  22974872.6644   -3799405.59546  -2960562.58961
  20967272.0554     626826.60646    488435.10562
  21852036.578    -9080714.498 7  -7039811.95222
  23640223.734    -3211652.346 5  -2434798.65521
  23565070.4224   -4447321.89745  -3030947.07961
 91  4 24 20 51  0.0000000  0  6G18G11G19G 2G16G 6
  21977173.047     6905367.118 6   5380789.81821
  22975284.008    -3797226.296 6  -2958864.44021
  20969321.3914     637579.34846    496813.86462
  21846533.711    -9109630.708 7  -7062344.01322
  23639812.1804   -3213796.96245  -2436469.80661
  23559509.133    -4476564.337 5  -3053733.33821
 91  4 24 20 51 15.0000000  0  6G18G11G19G 2G16G 6
  21985549.1174    6949372.78447   5415079.83162
  22975729.3914   -3794886.85646  -2957041.46461
  20971375.7194     648390.03646    505237.76762
  21841048.7974   -9138460.46047  -7084808.69762
  23639433.6334   -3215799.51145  -2438030.27661
  23553943.844    -4505788.370 5  -3076505.20821
 91  4 24 20 51 30.0000000  0  6G18G11G19G 2G16G 6
  21993937.4064    6993461.91847   5449434.88262
  22976203.242    -3792395.511 6  -2955100.13821
  20973445.2344     659250.38646    513700.36762
  21835575.8284   -9167212.05347  -7107212.48062
  23639079.367    -3217668.378 5  -2439486.58821
  23548385.5704   -4535002.45945  -3099269.35261
 91  4 24 20 51 45.0000000  0  6G18G11G19G 2G16G 6
  22002344.1334    7037631.74047   5483852.80761
  22976706.000    -3789754.837 6  -2953042.44921
  20975517.453      670157.900 6    522199.71322
  21830118.5634   -9195887.98747  -7129557.30362
  23638747.8834   -3219406.36945  -2440840.86661
  23542825.7664   -4564209.13545  -3122027.71861
 91  4 24 20 52  0.0000000  0  6G18G11G19G 2G16G 6
  22010762.7194    7081884.77647   5518335.57062
  22977237.188    -3786962.063 6  -2950866.24821
  20977604.500      681115.396 6    530738.00622
  21824676.7734   -9224485.52947  -7151841.03962
  23638440.8914   -3221010.59545  -2442090.97961
  23537270.0004   -4593405.79045  -3144778.26561
 91  4 24 20 52 15.0000000  0  6G18G11G19G 2G16G 6
  22019202.0704    7126221.82347   5552883.80061
  22977796.547    -3784015.737 6  -2948570.39421
  20979695.0634     692124.24746    539316.32062
  21819251.258    -9253003.189 7  -7174062.54222
  23638166.6724   -3222479.85045  -2443235.89261
  23531720.9384   -4622590.95345  -3167519.90561
 91  4 24 20 52 30.0000000  0  6G18G11G19G 2G16G 6
  22027654.8444    7170640.11147   5587495.32661
  22978386.6564   -3780918.61146  -2946157.05261
  20981803.9304     703181.74546    547932.54962
  21813839.180    -9281443.777 7  -7196223.98522
  23637906.6094   -3223816.54245  -2444277.52061
  23526166.0164   -4651767.44745  -3190254.74161
 91  4 24 20 52 45.0000000  0  6G18G11G19G 2G16G 6
  22036122.9144    7215136.19947   5622167.47461
  22979003.8984   -3777673.94246  -2943628.72461
  20983914.563      714284.633 6    556584.13022
  21808440.133    -9309810.498 7  -7218327.87222
  23637679.953    -3225024.166 5  -2445218.54821
  23520614.0164   -4680938.68845  -3212985.50361
 91  4 24 20 53  0.0000000  0  6G18G11G19G 2G16G 6
  22044603.7894    7259712.59447   5656902.19761
  22979651.508    -3774279.004 6  -2940983.29321
  20986040.1484     725435.59246    565273.17762
  21803056.039    -9338100.544 7  -7240372.00822
  23637473.1804   -3226100.36245  -2446057.19361
  23515066.789    -4710101.956 5  -3235710.05421
 91  4 24 20 53 15.0000000  0  6G18G11G19G 2G16G 6
  22053099.2194    7304368.63946   5691698.99161
  22980327.6484   -3770734.10246  -2938221.04261
  20988169.063      736634.311 6    573999.43722
  21797687.867    -9366314.409 7  -7262356.78522
  23637292.258    -3227045.498 5  -2446793.69621
  23509517.688    -4739257.701 5  -3258428.73421
 91  4 24 20 53 30.0000000  0  6G18G11G19G 2G16G 6
  22061615.6484    7349100.39147   5726554.77761
  22981030.844    -3767042.897 6  -2935344.76021
  20990310.500      747877.264 6    582760.16322
  21792332.156    -9394455.523 7  -7284284.87622
  23637137.172    -3227863.554 5  -2447431.17221
  23503966.5394   -4768409.59445  -3281144.41561
 91  4 24 20 53 45.0000000  0  6G18G11G19G 2G16G 6
  22070138.8594    7393905.73946   5761467.90861
  22981757.9694   -3763207.49446  -2932356.11361
  20992455.484      759162.464 6    591553.81022
  21786991.406    -9422525.949 7  -7306157.88222
  23637002.8914   -3228556.39445  -2447971.08461
  23498422.4454   -4797559.77645  -3303858.77461
 91  4 24 20 54  0.0000000  0  6G18G11G19G 2G16G 6
  22078681.102     7438783.935 7   5796437.79521
  22982511.7344   -3759228.11246  -2929255.31361
  20994611.1174     770489.60546    600380.14662
  21781663.3524   -9450526.16647  -7327976.18462
  23636900.109    -3229124.443 5  -2448413.77421
  23492875.664    -4826708.433 5  -3326571.93321
 91  4 24 20 54 15.0000000  0  6G18G11G19G 2G16G 6
  22087238.3754    7483740.07547   5831468.42862
  22983301.6484   -3755099.47346  -2926038.18061
  20996775.305      781864.005 6    609243.29622
  21776346.992    -9478450.818 7  -7349735.59622
  23636812.7424   -3229562.45445  -2448755.11261
  23487325.461    -4855850.564 5  -3349280.01321
 91  4 24 20 54 30.0000000  0  6G18G11G19G 2G16G 6
  22095805.9774    7528766.98047   5866554.20662
  22984113.5004   -3750828.39146  -2922710.04061
  20998945.563      793278.974 6    618138.06222
  21771048.852    -9506306.585 7  -7371441.33622
  23636752.227    -3229877.187 5  -2449000.39921
  23481784.359    -4884992.807 5  -3371988.19521
 91  4 24 20 54 45.0000000  0  6G18G11G19G 2G16G 6
  22104387.977     7573866.924 7   5901696.89022
  22984953.9774   -3746412.64246  -2919269.18161
  21001126.523      804736.792 6    627066.21722
  21765761.102    -9534091.310 7  -7393091.71922
  23636713.7664   -3230066.62145
  23476236.2814   -4914133.10645  -3394694.84361
 91  4 24 20 55  0.0000000  0  6G18G11G19G 2G16G 6
  22112982.2274    7619038.71747   5936895.56762
  22985824.203    -3741853.154 6  -2915716.32121
  21003315.414      816236.574 6    636027.06622
  21760487.4304   -9561805.72547  -7414687.32662
  23636707.0554   -3230132.03945
  23470691.4614   -4943272.33245  -3417400.65561
 91  4 24 20 55 15.0000000  0  6G18G11G19G 2G16G 6
  22121594.016     7664282.316 7   5972150.19022
  22986714.109    -3737149.506 6  -2912051.13421
  21005511.852      827778.638 6    645020.86222
  21755226.469    -9589449.358 7  -7436227.76922
  23636720.2424   -3230072.91345
  23465148.0634   -4972410.24845  -3440105.45061
 91  4 24 20 55 30.0000000  0  6G18G11G19G 2G16G 6
  22130216.3524    7709597.80546   6007460.83262
  22987642.2344   -3732301.21146  -2908273.23461
  21007715.063      839363.633 6    654048.11422
  21749977.320    -9617021.960 7  -7457712.87222
  23636754.258    -3229888.827 5
  23459601.7034   -5001546.33545  -3462808.81561
 91  4 24 20 55 45.0000000  0  6G18G11G19G 2G16G 6
  22138850.617     7754982.328 6   6042825.26322
  22988586.1174   -3727310.96946  -2904384.72061
  21009928.109      850988.861 6    663106.71522
  21744745.6254   -9644526.12347  -7479144.63062
  23636810.0314   -3229582.62545
  23454062.328    -5030683.391 5  -3485512.94021
 91  4 24 20 56  0.0000000  0  6G18G11G19G 2G16G 6
  22147501.5164    7800440.75146   6078247.28161
  22989567.8284   -3722173.60846  -2900381.59961
  21012152.578      862659.402 6    672200.62922
  21739525.750    -9671956.774 7  -7500519.11122
  23636892.6024   -3229149.25045  -2448433.40561
  23448515.422    -5059816.399 5  -3508213.90421
 91  4 24 20 56 15.0000000  0  6G18G11G19G 2G16G 6
  22156166.688     7845969.884 6   6113724.38921
  22990568.6884   -3716892.26146  -2896266.26061
  21014377.328      874372.262 6    681327.51022
  21734318.5864   -9699316.92247  -7521838.64162
  23636997.758    -3228592.006 5  -2447999.23621
  23442964.781    -5088948.304 5  -3530914.01521
 91  4 24 20 56 30.0000000  0  6G18G11G19G 2G16G 6
  22164843.398     7891562.485 6   6149250.95621
  22991603.813    -3711473.935 6  -2892044.15321
  21016616.422      886120.557 6    690482.00822
  21729124.188    -9726613.487 7  -7543108.64122
  23637128.7034   -3227917.76045  -2447473.88261
  23437428.2814   -5118086.20745  -3553618.78961
 91  4 24 20 56 45.0000000  0  6G18G11G19G 2G16G 6
  22173530.6724    7937222.70646   6184830.19961
  22992662.508    -3705914.329 6  -2887711.99321
  21018858.5004     897908.63246    699667.49962
  21723942.156    -9753842.049 7  -7564325.65122
  23637277.6094   -3227122.44845  -2446854.18861
  23431877.469    -5147225.914 5  -3576324.99021
 91  4 24 20 57  0.0000000  0  6G18G11G19G 2G16G 6
  22182230.477     7982951.378 6   6220462.79621
  22993745.8204   -3700212.32846  -2883268.87061
  21021109.422      909737.651 6    708884.89322
  21718775.3444   -9781001.61047  -7585488.91162
  23637451.320    -3226204.934 5  -2446139.28021
  23426335.320    -5176366.231 5  -3599031.64721
 91  4 24 20 57 15.0000000  0  6G18G11G19G 2G16G 6
  22190951.828     8028750.341 6   6256150.16621
  22994858.6174   -3694365.77346  -2878713.07761
  21023365.953      921609.733 6    718135.84922
  21713619.750    -9808089.951 7  -7606596.66222
  23637647.461    -3225163.024 5  -2445327.45921
  23420793.250    -5205505.027 5  -3621737.14721
 91  4 24 20 57 30.0000000  0  6G18G11G19G 2G16G 6
  22199676.859     8074615.653 6   6291889.23721
  22995998.2274   -3688378.43146  -2874047.62661
  21025634.867      933521.264 6    727417.54322
  21708478.391    -9835110.766 7  -7627651.80122
  23637870.7664   -3224000.87845  -2444421.91361
  23415243.9614   -5234646.18045  -3644444.46461
 91  4 24 20 57 45.0000000  0  6G18G11G19G 2G16G 6
  22208416.734     8120547.632 6   6327680.24921
  22997163.9064   -3682249.69946  -2869271.97361
  21027911.055      945472.864 6    736730.46122
  21703349.578    -9862063.329 7  -7648653.73922
  23638116.891    -3222717.962 5  -2443422.25921
  23409695.836    -5263789.066 5  -3667153.12421
 91  4 24 20 58  0.0000000  0  6G18G11G19G 2G16G 6
  22217169.6644    8166543.37746   6363520.96161
  22998359.344    -3675982.414 6  -2864388.37421
  21030192.9304     957461.89846    746072.55562
  21698231.375    -9888950.560 7  -7669604.77422
  23638380.6334   -3221316.98545  -2442330.62661
  23404152.3984   -5292936.47645  -3689865.32661
 91  4 24 20 58 15.0000000  0  6G18G11G19G 2G16G 6
  22225936.5234    8212608.12246   6399415.42661
  22999577.578    -3669571.015 6  -2859392.47421
  21032479.734      969493.998 6    755448.19622
  21693130.867    -9915766.858 7  -7690500.54122
  23638670.391    -3219792.467 5  -2441142.72121
  23398605.211    -5322082.893 5  -3712576.75621
 91  4 24 20 58 30.0000000  0  6G18G11G19G 2G16G 6
  22234717.383     8258740.728 6   6435362.77921
  23000823.1174   -3663016.28546  -2854284.88661
  21034778.891      981568.387 6    764856.78922
  21688040.289    -9942513.025 7  -7711341.66322
  23638984.203    -3218145.458 5  -2439859.39721
  23393061.430    -5351229.247 5  -3735288.13921
 91  4 24 20 58 45.0000000  0  6G18G11G19G 2G16G 6
  22243509.039     8304941.574 6   6471363.29821
  23002100.141    -3656317.716 6  -2849065.21421
  21037083.227      993685.759 6    774298.87622
  21682964.430    -9969188.470 7  -7732127.67822
  23639321.2344   -3216375.37545  -2438480.13061
  23387510.8914   -5380374.83245  -3757998.91261
 91  4 24 20 59  0.0000000  0  6G18G11G19G 2G16G 6
  22252306.328     8351208.037 6   6507414.95321
  23003398.6804   -3649477.67846  -2843735.31161
  21039399.250     1005843.625 6    783772.51622
  21677900.047    -9995795.430 7  -7752860.32422
  23639683.1884   -3214484.83545  -2437007.03461
  23381965.664    -5409522.211 5  -3780711.09321
 91  4 24 20 59 15.0000000  0  6G18G11G19G 2G16G 6
  22261124.8284    8397540.30846   6543517.87261
  23004725.2664   -3642495.83246  -2838294.91761
  21041722.891     1018042.433 6    793278.06822
  21672850.883   -10022333.650 7  -7773539.40722
  23640064.578    -3212473.377 5  -2435439.70921
  23376421.4384   -5438670.99445  -3803424.35861
 91  4 24 20 59 30.0000000  0  6G18G11G19G 2G16G 6
  22269957.4694    8443937.08346   6579671.06161
  23006086.3914   -3635373.02646  -2832744.67461
  21044047.875     1030281.207 6    802814.75222
  21667813.5784  -10048803.93147  -7794165.54262
  23640474.6024   -3210342.20945  -2433779.10861
  23370873.7504   -5467822.12145  -3826139.47361
 91  4 24 20 59 45.0000000  0  6G18G11G19G 2G16G 6
  22278799.5234    8490401.22446   6615876.72661
  23007468.0864   -3628106.58546  -2827082.50961
  21046385.195     1042562.983 6    812384.95222
  21662791.359   -10075203.334 7  -7814736.45522
  23640899.266    -3208088.349 5  -2432022.91521
  23365323.852    -5496972.829 5  -3848854.24721
 91  4 24 21  0  0.0000000  0  6G18G11G19G 2G16G 6
  22287650.211     8536928.521 6   6652131.62021
  23008876.8204   -3620700.26246  -2821311.34561
  21048731.195     1054884.024 6    821985.74022
  21657780.438   -10101535.659 7  -7835255.09922
  23641350.305    -3205715.823 5  -2430174.22121
  23359775.266    -5526126.743 5  -3871571.50521
 91  4 24 21  0 15.0000000  0  6G18G11G19G 2G16G 6
  22296520.1174    8583516.23546   6688433.59261
  23010310.9224   -3613156.51646  -2815433.10461
  21051082.516     1067241.884 6    831615.21922
  21652780.516   -10127803.439 7  -7855723.44722
  23641827.555    -3203227.040 5  -2428234.98421
  23354229.1644   -5555286.49745  -3894293.31361
 91  4 24 21  0 30.0000000  0  6G18G11G19G 2G16G 6
  22305398.7814    8630166.18446   6724784.05161
  23011774.4064   -3605473.31746  -2809446.20561
  21053441.680     1079638.648 6    841275.01222
  21647795.547   -10154004.588 7  -7876139.88222
  23642325.0234   -3200620.33445  -2426203.82661
  23348680.625    -5584450.006 5  -3917018.07021
 91  4 24 21  0 45.0000000  0  6G18G11G19G 2G16G 6
  22314284.9694    8676885.86946   6761188.85261
  23013264.156    -3597642.962 6  -2803344.63521
  21055808.078     1092082.159 6    850971.23722
  21642823.125   -10180131.371 7  -7896498.36022
  23642843.156    -3197887.900 5  -2424074.71721
  23343132.563    -5613609.582 5  -3939739.75221
 91  4 24 21  1  0.0000000  0  6G18G11G19G 2G16G 6
  22323189.586     8723672.205 6   6797645.59621
  23014783.3984   -3589668.45746  -2797130.73061
  21058187.9774    1104569.35246    860701.51062
  21637866.516   -10206186.784 7  -7916801.23022
  23643383.2274   -3195033.07045  -2421850.23261
  23337580.445    -5642768.273 5  -3962460.73321
 91  4 24 21  1 15.0000000  0  6G18G11G19G 2G16G 6
  22332105.0164    8770522.54146   6834152.20261
  23016324.648    -3581551.968 6  -2790806.22621
  21060568.250     1117098.290 6    870464.30122
  21632920.391   -10232172.895 7  -7937050.09622
  23643953.1954   -3192057.95245  -2419532.01461
  23332036.2034   -5671928.23246  -3985182.70861
 91  4 24 21  1 30.0000000  0  6G18G11G19G 2G16G 6
  22341036.2344    8817435.64846   6870707.71861
  23017898.4144   -3573294.81046  -2784372.07261
  21062963.930     1129667.615 6    880258.56222
  21627988.727   -10258091.061 7  -7957246.02122
  23644538.0784   -3188963.81845  -2417121.04661
  23326481.688    -5701090.799 5  -4007906.71021
 91  4 24 21  1 45.0000000  0  6G18G11G19G 2G16G 6
  22349968.1564    8864414.07946   6907314.13761
  23019498.0084   -3564893.95446  -2777825.95461
  21065357.625     1142280.620 6    890086.86522
  21623069.859   -10283938.091 7  -7977386.51322
  23645155.5474   -3185747.92345  -2414615.19661
  23320933.289    -5730252.820 5  -4030630.30421
 91  4 24 21  2  0.0000000  0  6G18G11G19G 2G16G 6
  22358927.0554    8911458.22346   6943971.76161
  23021124.2814   -3556348.86546  -2771167.45361
  21067770.891     1154937.985 6    899949.72922
  21618162.617   -10309713.483 7  -7997471.19322
  23645785.8754   -3182409.74345  -2412014.06861
  23315385.3594   -5759413.83145  -4053353.10661
 91  4 24 21  2 15.0000000  0  6G18G11G19G 2G16G 6
  22367889.9614    8958570.28246   6980682.30861
  23022772.6024   -3547657.22546  -2764394.75061
  21070187.164     1167642.016 6    909848.94922
  21613273.695   -10335414.829 7  -8017498.17222
  23646445.000    -3178947.005 5  -2409315.88521
  23309837.0234   -5788571.52345  -4076073.32361
 91  4 24 21  2 30.0000000  0  6G18G11G19G 2G16G 6
  22376865.2424    9005743.67046   7017440.63861
  23024456.578    -3538825.129 6  -2757512.61321
  21072609.523     1180386.813 6    919779.94322
  21608394.391   -10361048.221 7  -8037472.19322
  23647125.641    -3175366.017 5  -2406525.57821
  23304285.3364   -5817732.01745  -4098795.73261
 91  4 24 21  2 45.0000000  0  6G18G11G19G 2G16G 6
  22385856.5864    9052982.09546   7054249.64561
  23026162.398    -3529849.001 6  -2750518.23421
  21075044.188     1193176.078 6    929745.58822
  21603530.313   -10386609.853 7  -8057390.31122
  23647832.5864   -3171663.15445  -2403640.30661
  23298736.992    -5846891.544 5  -4121517.39521
 91  4 24 21  3  0.0000000  0  6G18G11G19G 2G16G 6
  22394854.414     9100284.236 6   7091108.30521
  23027899.1254   -3520729.92346  -2743412.48161
  21077490.703     1206008.619 6    939744.95622
  21598680.711   -10412100.566 7  -8077253.15622
  23648560.4454   -3167839.62545  -2400660.98261
  23293192.3204   -5876051.16045  -4144239.11961
 91  4 24 21  3 15.0000000  0  6G18G11G19G 2G16G 6
  22403870.0164    9147644.82546   7128012.51061
  23029665.2974   -3511472.94046  -2736199.24561
  21079937.844     1218879.672 6    949774.32122
  21593841.375   -10437525.557 7  -8097064.79022
  23649306.375    -3163900.517 5  -2397591.63821
  23287636.7734   -5905215.97445  -4166964.88161
 91  4 24 21  3 30.0000000  0  6G18G11G19G 2G16G 6
  22412896.4694    9195066.36546   7164964.20361
  23031447.219    -3502075.199 6  -2728876.35121
  21082399.063     1231792.098 6    959835.93622
  21589016.430   -10462882.108 7  -8116823.09322
  23650082.8054   -3159842.87345  -2394429.91161
  23282086.484    -5934382.974 5  -4189692.36621
 91  4 24 21  3 45.0000000  0  6G18G11G19G 2G16G 6
  22421932.1174    9242549.28146   7201963.72361
  23033265.430    -3492536.257 6  -2721443.43221
  21084860.922     1244746.485 6    969930.24122
  21584204.406   -10488169.405 7  -8136527.42922
  23650874.6804   -3155666.63045  -2391175.77461
  23276535.6024   -5963551.78445  -4212421.24261
 91  4 24 21  4  0.0000000  0  6G18G11G19G 2G16G 6
  22430977.0634    9290095.36846   7239012.46561
  23035105.664    -3482854.121 6  -2713898.93221
  21087336.8134    1257744.86546    980058.82462
  21579405.844   -10513385.405 7  -8156176.21522
  23651690.6954   -3151369.87945  -2387827.71561
  23270985.9064   -5992720.45645  -4235150.02761
 91  4 24 21  4 15.0000000  0  6G18G11G19G 2G16G 6
  22440036.3914    9337700.47446   7276107.20461
  23036974.156    -3473032.614 6  -2706245.81921
  21089813.977     1270783.412 6    990218.71122
  21574622.000   -10538534.190 7  -8175772.62622
  23652533.4844   -3146956.46045  -2384388.74361
  23265432.5234   -6021892.72045  -4257881.60061
 91  4 24 21  4 30.0000000  0  6G18G11G19G 2G16G 6
  22449109.2664    9385365.54746   7313248.66661
  23038873.2344   -3463070.56946  -2698483.18661
  21092305.609     1283863.526 6   1000410.98622
  21569847.383   -10563614.440 7  -8195315.63422
  23653397.070    -3142425.512 5  -2380858.19621
  23259878.586    -6051067.402 5  -4280615.05821
 91  4 24 21  4 45.0000000  0  6G18G11G19G 2G16G 6
  22458190.2344    9433091.88546   7350437.86461
  23040796.2274   -3452966.59046  -2690609.96161
  21094800.656     1296986.689 6   1010636.80522
  21565086.9144  -10588624.57847  -8214804.01262
  23654279.219    -3137775.512 5  -2377234.88521
  23254333.6804   -6080243.22245  -4303349.38261
 91  4 24 21  5  0.0000000  0  6G18G11G19G 2G16G 6
  22467282.531     9480878.817 6   7387674.26821
  23042746.8284   -3442721.10846  -2682626.48761
  21097306.703     1310152.637 6   1020895.95822
  21560342.8524  -10613565.01847  -8234238.07962
  23655187.594    -3133006.750 5  -2373519.03621
  23248778.609    -6109420.368 5  -4326084.74921
 91  4 24 21  5 15.0000000  0  6G18G11G19G 2G16G 6
  22476388.3984    9528727.97546   7424959.16961
  23044716.8054   -3432332.19446  -2674531.25661
  21099818.016     1323363.510 6   1031190.12422
  21555610.6094  -10638433.77147  -8253616.29262
  23656119.6724   -3128117.27545  -2369709.12661
  23243224.3054   -6138596.90945  -4348819.65261
 91  4 24 21  5 30.0000000  0  6G18G11G19G 2G16G 6
  22485503.586     9576633.952 6   7462288.33621
  23046724.1954   -3421805.01646  -2666328.25861
  21102346.500     1336614.000 6   1041515.15522
  21550891.742   -10663235.846 7  -8272942.53722
  23657071.125    -3123112.636 5  -2365809.47721
  23237673.039    -6167777.966 5  -4371558.05821
 91  4 24 21  5 45.0000000  0  6G18G11G19G 2G16G 6
  22494631.961     9624601.041 6   7499665.11821
  23048758.1644   -3411135.24546  -2658014.15261
  21104868.9144    1349908.80846   1051874.71962
  21546182.7274  -10687966.98547  -8292213.51162
  23658049.672    -3117988.613 5  -2361816.80321
  23232121.3914   -6196959.26645  -4394296.65761
 91  4 24 21  6  0.0000000  0  6G18G11G19G 2G16G 6
  22503774.734     9672629.578 6   7537089.78421
  23050814.2814   -3400322.33346  -2649588.50261
  21107408.969     1363248.504 6   1062269.26622
  21541493.047   -10712626.547 7  -8311428.71222
  23659044.789    -3112744.572 5  -2357730.61921
  23226570.469    -6226140.140 5  -4417034.91921
 91  4 24 21  6 15.0000000  0  6G18G11G19G 2G16G 6
  22512924.336     9720716.252 6   7574559.75821
  23052897.6334   -3389369.55346  -2641053.88061
  21109954.1884    1376630.06946   1072696.44062
  21536810.4694  -10737217.43847  -8330590.40062
  23660063.0704   -3107383.94745  -2353553.59561
  23221011.8834   -6255323.70245  -4439775.30561
 91  4 24 21  6 30.0000000  0  6G18G11G19G 2G16G 6
  22522083.023     9768860.812 6   7612074.83721
  23055006.0704   -3378276.80746  -2632410.19361
  21112513.336     1390053.614 6   1083156.32122
  21532145.031   -10761739.778 7  -8349698.67422
  23661109.281    -3101906.845 5  -2349285.78221
  23215459.3594   -6284509.86245  -4462517.71261
 91  4 24 21  6 45.0000000  0  6G18G11G19G 2G16G 6
  22531260.805     9817068.054 6   7649638.75921
  23057147.539    -3367039.051 6  -2623653.52621
  21115074.0704    1403524.39546   1093653.00062
  21527493.133   -10786188.528 7  -8368749.60222
  23662172.789    -3096308.276 5  -2344923.32321
  23209906.4534   -6313693.54445  -4485258.18361
 91  4 24 21  7  0.0000000  0  6G18G11G19G 2G16G 6
  22540444.273     9865332.677 6   7687247.39721
  23059308.9694   -3355661.49346  -2614787.88961
  21117647.195     1417037.243 6   1104182.46922
  21522854.922   -10810568.820 7  -8387747.18622
  23663263.2274   -3090593.16645  -2340470.04261
  23204353.7894   -6342879.84045  -4508000.68261
 91  4 24 21  7 15.0000000  0  6G18G11G19G 2G16G 6
  22549639.0634    9913656.83346   7724902.42061
  23061503.7344   -3344141.67746  -2605811.40761
  21120225.2034    1430594.72246   1114746.71062
  21518228.3984  -10834878.01847  -8406689.37562
  23664371.9384   -3084759.35645  -2335924.27761
  23198797.2194   -6372066.32445  -4530743.34161
 91  4 24 21  7 30.0000000  0  6G18G11G19G 2G16G 6
  22558846.094     9962041.206 6   7762604.36821
  23063722.7664   -3332478.68846  -2596723.36661
  21122815.242     1444197.749 6   1125346.45222
  21513613.8984  -10859115.26347  -8425575.50162
  23665502.5554   -3078805.99645  -2331285.36661
  23193246.805    -6401252.080 5  -4553485.42321
 91  4 24 21  7 45.0000000  0  6G18G11G19G 2G16G 6
  22568065.117    10010487.762 6   7800354.75321
  23065967.391    -3320670.618 6  -2587522.28821
  21125411.0004    1457848.62046   1135983.46462
  21509017.500   -10883278.250 7  -8444403.75922
  23666661.1254   -3072731.38745  -2326551.98861
  23187693.8364   -6430435.03945  -4576225.34161
 91  4 24 21  8  0.0000000  0  6G18G11G19G 2G16G 6
  22577293.7584   10058991.08146   7838149.37561
  23068241.5234   -3308722.77446  -2578212.30161
  21128017.680     1471542.162 6   1146653.73822
  21504431.3594  -10907372.29247  -8463178.29762
  23667840.813    -3066540.754 5  -2321728.22621
  23182138.6334   -6459620.47045  -4598967.17261
 91  4 24 21  8 15.0000000  0  6G18G11G19G 2G16G 6
  22586537.5164   10107552.42746   7875989.19761
  23070544.266    -3296633.460 6  -2568792.04821
  21130633.711     1485280.287 6   1157358.74322
  21499859.148   -10931395.694 7  -8481897.79222
  23669040.047    -3060232.546 5  -2316812.80621
  23176582.945    -6488806.575 5  -4621709.55121
 91  4 24 21  8 30.0000000  0  6G18G11G19G 2G16G 6
  22595791.789    10156176.598 6   7913877.99321
  23072872.148    -3284397.946 6  -2559257.87021
  21133257.0704    1499067.63046   1168102.10062
  21495303.172   -10955343.590 7  -8500558.45022
  23670262.8674   -3053802.12645  -2311802.18861
  23171029.5394   -6517988.62845  -4644448.75261
 91  4 24 21  8 45.0000000  0  6G18G11G19G 2G16G 6
  22605052.961    10204859.421 6   7951812.48521
  23075221.539    -3272019.938 6  -2549612.70221
  21135889.3834    1512900.53646   1178880.95562
  21490758.094   -10979219.630 7  -8519163.11222
  23671508.5784   -3047253.38045  -2306699.36561
  23165473.9924   -6547170.14645  -4667187.54561
 91  4 24 21  9  0.0000000  0  6G18G11G19G 2G16G 6
  22614328.5474   10253600.72246   7989792.54561
  23077611.852    -3259499.328 6  -2539856.39721
  21138530.4924    1526779.51746   1189695.71462
  21486231.2974  -11003023.50647  -8537711.55062
  23672778.0084   -3040586.15345  -2301504.22661
  23159929.1174   -6576351.10045  -4689925.88561
 91  4 24 21  9 15.0000000  0  6G18G11G19G 2G16G 6
  22623614.867    10302400.426 6   8027818.11621
  23080019.7974   -3246836.23846  -2529989.04361
  21141175.4534    1540704.48046   1200546.30662
  21481714.695   -11026755.336 7  -8556203.84122
  23674071.7344   -3033800.37145  -2296216.64661
  23154370.180    -6605531.456 5  -4712663.76021
 91  4 24 21  9 30.0000000  0  6G18G11G19G 2G16G 6
  22632911.0784   10351257.51946   8065888.40661
  23082459.703    -3234031.521 6  -2520011.32721
  21143836.531     1554674.651 6   1211432.12622
  21477211.6484  -11050415.98247  -8574640.67162
  23675382.2584   -3026897.64345  -2290838.00961
  23148819.367    -6634711.983 5  -4735401.77821
 91  4 24 21  9 45.0000000  0  6G18G11G19G 2G16G 6
  22642220.8834   10400172.15846   8104003.52961
  23084914.758    -3221084.722 6  -2509922.94221
  21146506.500     1568690.596 6   1222353.62222
  21472723.758   -11074004.851 7  -8593021.55822
  23676716.5004   -3019877.21745  -2285367.62261
  23143264.3444   -6663892.20845  -4758139.56961
 91  4 24 21 10  0.0000000  0  6G18G11G19G 2G16G 6
  22651538.094    10449142.718 6   8142162.23121
  23087410.6644   -3207997.51346  -2499725.13761
  21149182.5314    1582750.97046   1233309.72762
  21468247.344   -11097523.551 7  -8611347.77022
  23678080.4694   -3012740.52945  -2279806.63561
  23137709.2664   -6693073.65545  -4780878.28861
 91  4 24 21 10 15.0000000  0  6G18G11G19G 2G16G 6
  22660870.2974   10498169.56846   8180364.79661
  23089931.4844   -3194769.11946  -2489417.30061
  21151864.3914    1596856.64246   1244301.12962
  21463786.031   -11120971.089 7  -8629618.53422
  23679452.2344   -3005486.97545  -2274154.59261
  23132160.6334   -6722255.47745  -4803617.30061
 91  4 24 21 10 30.0000000  0  6G18G11G19G 2G16G 6
  22670211.7584   10547252.15046   8218610.77261
  23092470.9844   -3181400.29646  -2479000.04161
  21154561.102     1611006.978 6   1255327.34522
  21459336.461   -11144348.321 7  -8647834.51722
  23680858.7274   -2998117.37045  -2268412.12761
  23126606.5864   -6751438.27545  -4826357.08661
 91  4 24 21 10 45.0000000  0  6G18G11G19G 2G16G 6
  22679558.6884   10596390.91146   8256900.53361
  23095044.336    -3167890.277 6  -2468472.75921
  21157259.8914    1625202.90246   1266389.07162
  21454901.7034  -11167654.30147  -8665994.98762
  23682286.7344   -2990631.09545  -2262578.74361
  23121053.6024   -6780621.21546  -4849096.96561
 91  4 24 21 11  0.0000000  0  6G18G11G19G 2G16G 6
  22688923.211    10645585.238 6   8295233.59921
  23097643.9844   -3154239.43546  -2457835.77761
  21159968.2034    1639444.25646   1277486.20962
  21450481.0084  -11190889.30847  -8684100.15462
  23683732.4614   -2983028.92245  -2256655.04761
  23115498.1024   -6809804.64846  -4871837.23761
 91  4 24 21 11 15.0000000  0  6G18G11G19G 2G16G 6
  22698291.0784   10694838.67546   8333612.71761
  23100262.141    -3140443.975 6  -2447086.08521
  21162683.6024    1653734.95746   1288621.79162
  21446075.0164  -11214049.53547  -8702147.05462
  23685201.6174   -2975307.01745  -2250638.06361
  23109944.953    -6838984.782 5  -4894574.96621
 91  4 24 21 11 30.0000000  0  6G18G11G19G 2G16G 6
  22707675.9614   10744148.53046   8372035.79661
  23102919.766    -3126506.433 6  -2436225.63621
  21165414.6644    1668072.58146   1299793.93862
  21441679.7664  -11237137.18747  -8720137.39362
  23686696.164    -2967467.984 5  -2244529.80621
  23104393.5394   -6868163.92745  -4917311.89661
 91  4 24 21 11 45.0000000  0  6G18G11G19G 2G16G 6
  22717076.117    10793514.554 6   8410502.65621
  23105599.0314   -3112426.88146  -2425254.55261
  21168151.672     1682457.256 6   1311002.74622
  21437301.4774  -11260152.55947  -8738071.40662
  23688205.5634   -2959511.74845  -2238330.22961
  23098840.0554   -6897342.15145  -4940048.10561
 91  4 24 21 12  0.0000000  0  6G18G11G19G 2G16G 6
  22726479.1254   10842938.87546   8449014.92261
  23108302.133    -3098203.197 6  -2414171.19121
  21170901.2344    1696891.45846   1322250.14262
  21432936.539   -11283093.322 7  -8755947.28322
  23689744.688    -2951436.386 5  -2232037.80621
  23093293.3444   -6926517.01645  -4962781.70861
 91  4 24 21 12 15.0000000  0  6G18G11G19G 2G16G 6
  22735896.070    10892421.104 6   8487572.31221
  23111038.016    -3083835.298 6
  21173656.5234    1711375.27646
  21428582.672   -11305959.221 7  -8773764.82022
  23691308.5474   -2943241.87445  -2225652.54661
  23087734.3984   -6955688.58945  -4985512.74561
 91  4 24 21 12 30.0000000  0  6G18G11G19G 2G16G 6
  22745323.1954   10941962.08246   8526175.49561
  23113801.867    -3069322.644 6
  21176422.0704    1725909.54346
  21424247.6564  -11328749.65547  -8791523.56062
  23692884.547    -2934927.610 5  -2219173.97521
  23082186.7894   -6984856.04745  -5008240.57861
 91  4 24 21 12 45.0000000  0  6G18G11G19G 2G16G 6
  22754757.719    10991561.417 6   8564824.13521
  23116592.859    -3054665.342 6  -2380245.64421
  21179200.1024    1740494.17146   1356226.19762
  21419923.4454  -11351464.69447  -8809223.55763
  23694485.844    -2926493.767 5  -2212602.22021
  23076642.391    -7014019.528 5  -5030965.31321
 91  4 24 21 13  0.0000000  0  6G18G11G19G 2G16G 6
  22764210.727    11041221.206 6   8603519.88121
  23119407.9304   -3039860.89146  -2368709.71461
  21181980.3204    1755131.75546   1367632.07562
  21415615.1334  -11374101.65847  -8826862.71963
  23696117.445    -2917938.422 5  -2205935.78921
  23071091.016    -7043176.454 5  -5053684.93121
 91  4 24 21 13 15.0000000  0  6G18G11G19G 2G16G 6
  22773670.133    11090936.396 6   8642258.79721
  23122252.648    -3024914.361 6  -2357063.08821
  21184776.9614    1769817.47446   1379075.45962
  21411322.6174  -11396665.49647  -8844444.89863
  23697767.156    -2909266.110 5  -2199178.23321
  23065543.2424   -7072331.60045  -5076403.16961
 91  4 24 21 13 30.0000000  0  6G18G11G19G 2G16G 6
  22783142.273    11140710.545 6   8681043.65521
  23125124.2734   -3009822.00246  -2345302.80161
  21187586.1414    1784555.18346   1390559.35762
  21407044.6884  -11419152.33347  -8861967.07362
  23699443.000    -2900473.247 5  -2192326.70521
  23059994.7814   -7101481.27545  -5099117.12361
 91  4 24 21 13 45.0000000  0  6G18G11G19G 2G16G 6
  22792620.8204   11190540.50046   8719871.99961
  23128021.0084   -2994586.75946  -2333431.19561
  21190397.5634    1799342.14246   1402081.63362
  21402778.3204  -11441564.97347  -8879431.43262
  23701133.781    -2891562.963 5  -2185383.72221
  23054449.5164   -7130628.20045  -5121828.95661
 91  4 24 21 14  0.0000000  0  6G18G11G19G 2G16G 6
  22802118.5864   11240427.44546   8758744.74061
  23130948.859    -2979207.088 6  -2321447.07221
  21193222.523     1814180.043 6   1413643.60622
  21398528.7974  -11463901.93147  -8896836.81062
  23702853.1094   -2882534.01045  -2178348.24961
  23048901.3984   -7159770.82446  -5144537.42661
 91  4 24 21 14 15.0000000  0  6G18G11G19G 2G16G 6
  22811623.5864   11290368.09946   8797659.34261
  23133899.664    -2963686.532 6  -2309353.16721
  21196054.6804    1829065.78546   1425242.85662
  21394291.430   -11486166.384 7  -8914185.68722
  23704595.258    -2873389.684 5  -2171222.89721
  23043359.148    -7188912.461 6  -5167245.13921
 91  4 24 21 14 30.0000000  0  6G18G11G19G 2G16G 6
  22821133.5864   11340364.45946   8836617.33861
  23136884.5164   -2948022.77346  -2297147.64761
  21198894.477     1844001.610 6   1436881.14122
  21390068.656   -11508356.002 7  -8931476.25922
  23706355.0554   -2864127.65645  -2164005.82261
  23037808.8754   -7218050.69946  -5189950.19161
 91  4 24 21 14 45.0000000  0  6G18G11G19G 2G16G 6
  22830664.141    11390421.020 6   8875622.25221
  23139891.0004   -2932211.24246  -2284826.97761
  21201745.4224    1858992.30846   1448562.16762
  21385862.563   -11530466.276 7  -8948705.00123
  23708136.453    -2854743.330 5  -2156693.41721
  23032269.1884   -7247180.91346  -5212648.99061
 91  4 24 21 15  0.0000000  0  6G18G11G19G 2G16G 6
  22840196.5084   11440532.11246   8914669.64961
  23142926.8984   -2916257.39146  -2272395.38461
  21204606.7894    1874032.76846   1460281.96762
  21381667.2974  -11552502.51847  -8965876.06063
  23709952.367    -2845242.759 5  -2149290.45221
  23026729.156    -7276308.480 6  -5235345.72921
 91  4 24 21 15 15.0000000  0  6G18G11G19G 2G16G 6
  22849745.883    11490700.153 6   8953761.42221
  23145990.5004   -2900158.63846  -2259850.92561
  21207479.4694    1889125.63846   1472042.61162
  21377489.2194  -11574462.03547  -8982987.33663
  23711782.7344   -2835623.36945  -2141794.88061
  23021184.453    -7305430.640 6  -5258038.24821
 91  4 24 21 15 30.0000000  0  6G18G11G19G 2G16G 6
  22859302.953    11540919.847 6   8992893.45321
  23149081.438    -2883920.365 6  -2247197.75621
  21210363.9694    1904265.83046   1483840.13162
  21373323.0944  -11596349.92647  -9000042.79363
  23713632.781    -2825890.371 5  -2134210.81321
  23015641.6414   -7334552.51046  -5280730.56461
 91  4 24 21 15 45.0000000  0  6G18G11G19G 2G16G 6
  22868865.5864   11591198.06646   9032071.06961
  23152201.7274   -2867535.37246  -2234430.26161
  21213255.4064    1919460.67646   1495680.24462
  21369174.6414  -11618158.92847  -9017036.78963
  23715511.7974   -2816036.70745  -2126532.69861
  23010102.2584   -7363666.75346  -5303416.92461
 91  4 24 21 16  0.0000000  0  6G18G11G19G 2G16G 6
  22878449.531    11641533.399 6   9071293.19921
  23155344.836    -2851004.721 6  -2221549.26921
  21216157.281     1934709.047 6   1507562.06522
  21365037.7814  -11639890.16647  -9033970.18163
  23717408.969    -2806063.435 5  -2118761.43921
  23004565.0784   -7392774.53846  -5326098.26461
 91  4 24 21 16 15.0000000  0  6G18G11G19G 2G16G 6
  22888039.9614   11691926.59546   9110560.40261
  23158519.2584   -2834327.77546  -2208554.23361
  21219066.2894    1950011.96646   1519486.37862
  21360918.6884  -11661542.87047  -9050842.38363
  23719327.9614   -2795969.70945  -2110896.27361
  22999023.359    -7421875.091 6  -5348773.96721
 91  4 24 21 16 30.0000000  0  6G18G11G19G 2G16G 6
  22897637.766    11742375.690 6   9149871.18921
  23161719.4304   -2817506.12546  -2195446.44261
  21221996.2894    1965368.03346   1531452.11862
  21356813.3444  -11683118.41147  -9067654.45563
  23721271.1174   -2785757.51145  -2102938.82261
  22993486.6024   -7450969.71546  -5371445.04361
 91  4 24 21 16 45.0000000  0  6G18G11G19G 2G16G 6
  22907250.781    11792877.705 6   9189223.19421
  23164947.586    -2800543.045 6  -2182228.48921
  21224920.914     1980774.074 6   1543456.78322
  21352720.2974  -11704619.83447  -9084408.76963
  23723237.1484   -2775430.13945  -2094891.62661
  22987951.875    -7480061.476 6  -5394113.87821
 91  4 24 21 17  0.0000000  0  6G18G11G19G 2G16G 6
  22916870.1334   11843431.84546   9228615.81961
  23168202.180    -2783438.932 6  -2168900.66321
  21227864.1884    1996229.93646   1555500.28562
  21348644.7344  -11726047.45347  -9101105.57563
  23725221.9924   -2764988.08045  -2086755.02261
  22982416.8984   -7509150.77546  -5416780.81161
 91  4 24 21 17 15.0000000  0  6G18G11G19G 2G16G 6
  22926498.281    11894036.883 6   9268048.09721
  23171489.008    -2766194.986 6  -2155463.84321
  21230809.1644    2011734.82846   1567581.98962
  21344578.2274  -11747402.34547  -9117745.71163
  23727231.0314   -2754432.56045  -2078530.05261
  22976883.086    -7538238.531 6  -5439446.53421
 91  4 24 21 17 30.0000000  0  6G18G11G19G 2G16G 6
  22936139.844    11944698.368 6   9307524.36921
  23174794.4454   -2748805.18546  -2141913.36961
  21233774.2664    2027294.88846   1579706.67962
  21340529.5084  -11768678.48347  -9134324.47963
  23729263.4844   -2743757.66645  -2070212.02261
  22971349.852    -7567318.648 6  -5462106.31221
 91  4 24 21 17 45.0000000  0  6G18G11G19G 2G16G 6
  22945786.477    11995413.209 6   9347042.20121
  23178124.5164   -2731272.89246  -2128251.84761
  21236747.5004    2042906.89646   1591871.85162
  21336494.2344  -11789879.10947  -9150844.40963
  23731312.3134   -2732966.70145  -2061803.57761
  22965815.0784   -7596394.43246  -5484762.70761
 91  4 24 21 18  0.0000000  0  6G18G11G19G 2G16G 6
  22955447.430    12046174.788 6   9386596.45921
  23181489.9144   -2713604.55646  -2114484.30161
  21239728.1334    2058564.42346   1604072.48062
  21332475.2894  -11811010.52047  -9167310.41163
  23733392.430    -2722066.509 5  -2053309.99321
  22960282.3134   -7625472.16046  -5507420.62761
 91  4 24 21 18 15.0000000  0  6G18G11G19G 2G16G 6
  22965118.3444   12096987.75946   9426190.77161
  23184881.6334   -2695795.27246  -2100606.97461
  21242713.0234    2074272.72346   1616312.68662
  21328466.1334  -11832067.62547  -9183718.50563
  23735486.813    -2711051.907 5  -2044727.29321
  22954749.5704   -7654546.70146  -5530076.07461
 91  4 24 21 18 30.0000000  0  6G18G11G19G 2G16G 6
  22974800.516    12147853.615 6   9465826.26921
  23188295.523    -2677843.231 6  -2086618.40121
  21245712.6484    2090033.95846   1628594.13262
  21324476.5704  -11853048.47447  -9200067.18963
  23737604.7504   -2699921.21945  -2036054.12261
  22949219.9304   -7683616.13746  -5552727.51361
 91  4 24 21 18 45.0000000  0  6G18G11G19G 2G16G 6
  22984486.0084   12198771.03046   9505501.96461
  23191740.633    -2659749.982 6  -2072519.77821
  21248723.4064    2105846.81746   1640915.82062
  21320496.1644  -11873954.51847  -9216357.57563
  23739745.445    -2688675.882 5  -2027291.61921
  22943687.742    -7712681.712 6  -5575375.96421
 91  4 24 21 19  0.0000000  0  6G18G11G19G 2G16G 6
  22994188.570    12249739.612 6   9545217.51221
  23195208.5314   -2641515.58846  -2058311.16161
  21251740.6414    2121711.14846   1653277.59962
  21316531.9224  -11894785.67947  -9232589.61563
  23741905.156    -2677316.211 5  -2018440.02721
  22938156.320    -7741743.565 6  -5598021.52221
 91  4 24 21 19 15.0000000  0  6G18G11G19G 2G16G 6
  23003895.867    12300759.071 6   9584972.70821
  23198706.6094   -2623140.02146  -2043992.55661
  21254771.5864    2137627.08446   1665679.59262
  21312581.1334  -11915542.00847  -9248763.34363
  23744091.750    -2665842.398 5  -2009499.47021
  22932627.445    -7770801.495 6  -5620664.02221
 91  4 24 21 19 30.0000000  0  6G18G11G19G 2G16G 6
  23013617.945    12351831.885 6   9624769.47821
  23202232.563    -2604620.978 6  -2029562.17921
  21257811.6254    2153597.40246   1678123.96462
  21308646.9614  -11936220.98847  -9264876.80363
  23746293.6254   -2654252.04445  -2000468.12861
  22927097.9774   -7799853.00446  -5643301.52361
 91  4 24 21 19 45.0000000  0  6G18G11G19G 2G16G 6
  23023347.2274   12402956.86446   9664606.88461
  23205779.7504   -2585959.59046  -2015020.84161
  21260860.5864    2169621.41546   1690610.17162
  21304724.6954  -11956823.33347  -9280930.54062
  23748523.7424   -2642545.98145  -1991346.61861
  22921572.711    -7828898.935 6  -5665934.66121
 91  4 24 21 20  0.0000000  0  6G18G11G19G 2G16G 6
  23033081.422    12454130.587 6   9704482.27921
  23209358.938    -2567159.008 6  -2000371.06721
  21263919.000     2185695.741 6   1703135.59522
  21300821.0554  -11977352.24547  -9296927.06563
  23750774.672    -2630727.925 5  -1982137.86321
  22916040.8284   -7857942.30945  -5688565.81161
 91  4 24 21 20 15.0000000  0  6G18G11G19G 2G16G 6
  23042830.1254   12505351.17846   9744394.19161
  23212961.4144   -2548221.00446  -1985614.20861
  21266983.6564    2201819.11546   1715699.23162
  21296928.1724  -11997809.34347  -9312867.62663
  23753043.781    -2618799.529 5  -1972843.14721
  22910516.0554   -7886984.73146  -5711196.23661
 91  4 24 21 20 30.0000000  0  6G18G11G19G 2G16G 6
  23052584.7504   12556619.09446   9784342.98061
  23216595.008    -2529145.065 6  -1970749.87121
  21270065.7894    2217992.11846   1728301.54762
  21293048.8524  -12018194.04147  -9328751.77063
  23755336.953    -2606760.193 5  -1963461.91921
  22904986.227    -7916025.547 5  -5733825.39621
 91  4 24 21 20 45.0000000  0  6G18G11G19G 2G16G 6
  23062351.8204   12607935.39946   9824329.49961
  23220251.8284   -2509930.00746  -1955777.09661
  21273147.7504    2234216.08746   1740943.56262
  21289184.180   -12038505.006 7  -9344578.45223
  23757643.3914   -2594609.07245  -1953993.60761
  22899461.180    -7945063.486 6  -5756452.30621
 91  4 24 21 21  0.0000000  0  6G18G11G19G 2G16G 6
  23072126.367    12659301.123 6   9864354.50721
  23223933.727    -2490574.520 6  -1940694.91321
  21276249.461     2250492.688 6   1753626.60222
  21285331.3054  -12058740.73547  -9360346.51663
  23759981.648    -2582344.900 5  -1944437.22021
  22893936.2734   -7974097.01046  -5779075.77561
 91  4 24 21 21 15.0000000  0  6G18G11G19G 2G16G 6
  23081911.8984   12710720.71846   9904421.47961
  23227641.5634   -2471074.12646  -1925499.82661
  21279353.6884    2266826.54046   1766354.25062
  21281497.4304  -12078896.79547  -9376052.50763
  23762335.0314   -2569963.20645  -1934789.22161
  22888419.508    -8003121.535 6  -5801692.23821
 91  4 24 21 21 30.0000000  0  6G18G11G19G 2G16G 6
  23091707.398    12762188.368 6   9944525.91421
  23231382.766    -2451434.511 6  -1910196.27221
  21282476.4534    2283212.21546   1779122.28362
  21277674.2194  -12098978.70947  -9391700.71963
  23764718.3594   -2557469.82245  -1925054.20861
  22882895.4774   -8032142.52346  -5824305.93661
 91  4 24 21 21 45.0000000  0  6G18G11G19G 2G16G 6
  23101509.4924   12813705.02546   9984668.52761
  23235141.9454   -2431654.66846  -1894783.39261
  21285604.4454    2299650.96046   1791931.66362
  21273868.594   -12118985.326 7  -9407290.27223
  23767113.4304   -2544863.61445  -1915231.29561
  22877374.508    -8061158.718 6  -5846915.90221
 91  4 24 21 22  0.0000000  0  6G18G11G19G 2G16G 6
  23111319.4384   12865270.85646  10024849.44961
  23238937.4454   -2411734.23146  -1879261.00561
  21288741.430     2316143.464 6   1804782.94522
  21270074.2894  -12138916.02047  -9422820.64663
  23769538.1414   -2532144.33345  -1905320.26161
  22871849.5784   -8090169.60446  -5869521.72561
 91  4 24 21 22 15.0000000  0  6G18G11G19G 2G16G 6
  23121142.6414   12916883.04746  10065066.49861
  23242753.2424   -2391676.00346  -1863631.25861
  21291890.805     2332687.116 6   1817674.07622
  21266297.3594  -12158773.56047  -9438294.02763
  23771974.344    -2519314.953 5  -1895323.45421
  22866332.6094   -8119177.85646  -5892125.49261
 91  4 24 21 22 30.0000000  0  6G18G11G19G 2G16G 6
  23130972.5704   12968544.43546  10105321.89561
  23246598.945    -2371477.112 6  -1847891.87821
  21295049.1804    2349284.87946   1830607.36562
  21262533.1174  -12178554.81747  -9453707.94963
  23774439.3284   -2506372.38245  -1885238.45461
  22860811.8914   -8148180.38346  -5914724.80461
 91  4 24 21 22 45.0000000  0  6G18G11G19G 2G16G 6
  23140815.000    13020253.632 6  10145614.52021
  23250464.6414   -2351138.95246  -1832043.97561
  21298217.5314    2365935.79146   1843582.07362
  21258782.9064  -12198260.90847  -9469063.30663
  23776921.0474   -2493318.42545  -1875066.63361
  22855295.6174   -8177178.28546  -5937320.50061
 91  4 24 21 23  0.0000000  0  6G18G11G19G 2G16G 6
  23150667.2814   13072009.88946  10185943.82861
  23254364.500    -2330661.747 6  -1816087.73321
  21301396.9694    2382639.74046   1856598.11062
  21255047.2274  -12217892.22547  -9484360.39662
  23779428.117    -2480153.166 5  -1864808.06021
  22849779.664    -8206171.697 6  -5959912.69921
 91  4 24 21 23 15.0000000  0  6G18G11G19G 2G16G 6
  23160521.3674   13123812.34046  10226309.12461
  23258285.7274   -2310046.42146  -1800023.87561
  21304584.8674    2399395.96846   1869654.88262
  21251324.9384  -12237449.41547  -9499599.72863
  23781954.711    -2466877.577 5  -1854463.53921
  22844260.9844   -8235161.46446  -5982502.06261
 91  4 24 21 23 30.0000000  0  6G18G11G19G 2G16G 6
  23170386.4144   13175664.05346  10266712.80861
  23262239.500    -2289289.655 6  -1783849.78921
  21307783.984     2416208.109 6   1882755.23022
  21247619.0944  -12256928.80147  -9514778.44263
  23784502.1804   -2453488.30445  -1844030.44461
  22838745.578    -8264143.969 6  -6005085.76121
 91  4 24 21 23 45.0000000  0  6G18G11G19G 2G16G 6
  23180265.016    13227560.849 6  10307151.62921
  23266208.8204   -2268395.71846  -1767568.82861
  21310993.6954    2433072.18746   1895896.04262
  21243923.7114  -12276334.63447  -9529899.83663
  23787068.8754   -2439989.65945  -1833512.12061
  22833230.820    -8293123.244 6  -6027666.95821
 91  4 24 21 24  0.0000000  0  6G18G11G19G 2G16G 6
  23190148.1884   13279500.47546  10347623.81061
  23270211.3284   -2247366.76546  -1751182.65461
  21314211.930     2449986.177 6   1909075.73722
  21240245.930   -12295668.905 7  -9544965.47923
  23789658.6254   -2426384.12145  -1822910.53961
  22827716.453    -8322101.228 6  -6050247.14321
 91  4 24 21 24 15.0000000  0  6G18G11G19G 2G16G 6
  23200043.016    13331484.636 6  10388130.71121
  23274241.375    -2226200.941 6  -1734689.83121
  21317439.2034    2466952.30946   1922296.07662
  21236580.7114  -12314929.69447  -9559973.85363
  23792269.836    -2412669.722 5  -1812224.09321
  22822199.2114   -8351075.87346  -6072824.73761
 91  4 24 21 24 30.0000000  0  6G18G11G19G 2G16G 6
  23209943.898    13383515.359 6  10428673.88021
  23278297.688    -2204896.258 6  -1718088.80521
  21320679.875     2483972.688 6   1935558.68322
  21232930.6024  -12334114.93447  -9574923.35963
  23794896.1484   -2398844.29745  -1801451.15061
  22816692.586    -8380044.930 6  -6095397.96321
 91  4 24 21 24 45.0000000  0  6G18G11G19G 2G16G 6
  23219853.5554   13435593.28046  10469253.84061
  23282377.2664   -2183451.86346  -1701378.88761
  21323925.1804    2501048.36446   1948864.37062
  21229293.0474  -12353223.61847  -9589813.20862
  23797555.1414   -2384907.46445  -1790591.36261
  22811178.992    -8409007.536 6  -6117966.18421
 91  4 24 21 25  0.0000000  0  6G18G11G19G 2G16G 6
  23229770.391    13487713.857 6  10509867.01221
  23286482.7584   -2161872.18346  -1684563.58761
  21327190.6414    2518175.06046   1962209.80662
  21225670.7814  -12372259.89347  -9604646.63963
  23800221.4064   -2370863.46945  -1779648.08261
  22805668.609    -8437967.908 6  -6140532.66121
 91  4 24 21 25 15.0000000  0  6G18G11G19G 2G16G 6
  23239696.719    13539876.980 6  10550513.35121
  23290613.3134   -2140157.20046  -1667642.86661
  21330452.414     2535353.259 6   1975595.39622
  21222061.0394  -12391223.47347  -9619423.41762
  23802919.3754   -2356712.64645  -1768621.56061
  22800156.648    -8466925.741 6  -6163097.14121
 91  4 24 21 25 30.0000000  0  6G18G11G19G 2G16G 6
  23249632.4694   13592085.61146  10591195.15761
  23294776.0004   -2118304.00046  -1650614.40861
  21333738.2814    2552586.21746   1989023.65062
  21218468.0554  -12410111.63347  -9634141.43262
  23805631.6334   -2342452.03445  -1757509.50461
  22794646.898    -8495877.906 6  -6185657.22321
 91  4 24 21 25 45.0000000  0  6G18G11G19G 2G16G 6
  23259577.164    13644333.903 6  10631907.86121
  23298955.453    -2096318.216 6  -1633482.62621
  21337023.8914    2569868.39946   2002490.24862
  21214887.0864  -12428929.98147  -9648805.04662
  23808365.156    -2328087.302 5  -1746316.30221
  22789138.977    -8524829.962 6  -6208217.20521
 91  4 24 21 26  0.0000000  0  6G18G11G19G 2G16G 6
  23269525.742    13696621.190 6  10672650.95821
  23303166.6724   -2074200.42046  -1616247.99661
  21340326.2194    2587199.42846   2015994.91462
  21211320.6564  -12447678.84547  -9663414.51962
  23811116.102    -2313618.877 5  -1735042.32621
  22783630.672    -8553782.198 6  -6230777.33321
 91  4 24 21 26 15.0000000  0  6G18G11G19G 2G16G 6
  23279483.6094   13748954.29246  10713429.74061
  23307402.336    -2051943.753 6  -1598905.21121
  21343630.6334    2604586.29446   2029543.08262
  21207766.1724  -12466350.80447  -9677964.06463
  23813894.367    -2299039.681 5  -1723682.00521
  22778120.305    -8582727.414 6  -6253332.00221
 91  4 24 21 26 30.0000000  0  6G18G11G19G 2G16G 6
  23289450.6884   13801330.86545  10754242.40361
  23311663.4614   -2029550.44446  -1581455.88461
  21346950.930     2622027.146 6   2043133.33322
  21204227.2894  -12484948.10147  -9692455.43563
  23816687.2424   -2284352.35945  -1712237.46561
  22772613.570    -8611667.678 6  -6275882.79821
 91  4 24 21 26 45.0000000  0  6G18G11G19G 2G16G 6
  23299424.0474   13853746.52746  10795085.54061
  23315947.969    -2007024.810 6  -1563903.46021
  21350279.180     2639517.975 6   2056762.50922
  21200701.945   -12503475.061 7  -9706892.00323
  23819501.3364   -2269561.36345  -1700712.12361
  22767108.227    -8640607.085 6  -6298432.94221
 91  4 24 21 27  0.0000000  0  6G18G11G19G 2G16G 6
  23309409.859    13906202.338 6  10835959.93221
  23320261.0164   -1984365.62346  -1546247.01061
  21353616.172     2657060.155 6   2070431.71422
  21197191.000   -12521930.239 7  -9721272.63723
  23822338.414    -2254665.581 5  -1689105.12421
  22761600.891    -8669544.246 6  -6320981.33021
 91  4 24 21 27 15.0000000  0  6G18G11G19G 2G16G 6
  23319397.9694   13958697.82846  10876865.26561
  23324598.023    -1961573.607 6  -1528487.04721
  21356964.5004    2674653.49346   2084140.78262
  21193690.930   -12540313.807 7  -9735597.47023
  23825192.031    -2239665.631 5  -1677416.94921
  22756095.375    -8698479.458 6  -6343528.19521
 91  4 24 21 27 30.0000000  0  6G18G11G19G 2G16G 6
  23329395.305    14011233.478 6  10917801.88621
  23328960.2974   -1938648.13146  -1510623.06061
  21360321.6094    2692298.87146   2097890.38662
  21190207.0164  -12558625.19747  -9749866.05663
  23828067.6254   -2224560.80745  -1665647.06061
  22750589.391    -8727411.962 6  -6366072.96121
 91  4 24 21 27 45.0000000  0  6G18G11G19G 2G16G 6
  23339401.0234   14063810.21546  10958770.52861
  23333351.1094   -1915588.04846  -1492654.16061
  21363690.4454    2709997.57146   2111681.55362
  21186737.8444  -12576863.16847  -9764077.43262
  23830965.2344   -2209350.11145  -1653794.67261
  22745082.141    -8756340.466 6  -6388614.61021
 91  4 24 21 28  0.0000000  0  6G18G11G19G 2G16G 6
  23349415.484    14116426.444 6  10999769.92721
  23337761.4534   -1892394.66846  -1474581.44961
  21367069.7504    2727748.09546   2125513.09362
  21183280.3754  -12595028.95947  -9778232.55862
  23833876.4844   -2194035.09945  -1641861.02961
  22739578.5554   -8785266.14645  -6411154.06161
 91  4 24 21 28 15.0000000  0  6G18G11G19G 2G16G 6
  23359433.484    14169083.238 6  11040800.94021
  23342202.5234   -1869067.03446  -1456404.09561
  21370454.500     2745552.041 6   2139386.25922
  21179836.2734  -12613121.50447  -9792330.60562
  23836818.9304   -2178614.66845  -1629845.20861
  22734074.492    -8814187.756 5  -6433690.33021
 91  4 24 21 28 30.0000000  0  6G18G11G19G 2G16G 6
  23369458.9384   14221779.28745  11081862.52461
  23346666.5314   -1845606.19346  -1438122.96161
  21373854.3364    2763408.66446   2153300.47362
  21176408.0394  -12631141.61947  -9806372.21362
  23839764.2274   -2163089.91445  -1617748.11861
  22728573.4144   -8843105.99345  -6456223.98361
 91  4 24 21 28 45.0000000  0  6G18G11G19G 2G16G 6
  23379493.078    14274513.195 5  11122953.63821
  23351153.922    -1822013.580 6  -1419739.12321
  21377262.4144    2781316.88846   2167254.90162
  21172991.5394  -12649090.56547  -9820358.37263
  23842742.2974   -2147462.12345  -1605570.70661
  22723066.3444   -8872022.11145  -6478755.99861
 91  4 24 21 29  0.0000000  0  6G18G11G19G 2G16G 6
  23389540.539    14327286.111 5  11164075.12521
  23355671.3204   -1798287.83346  -1401251.56561
  21380682.0164    2799278.19546   2181250.68362
  21169589.297   -12666966.712 7  -9834287.81123
  23845732.3134   -2131730.34645  -1593312.28761
  22717571.469    -8900934.528 5  -6501285.09621
 91  4 24 21 29 15.0000000  0  6G18G11G19G 2G16G 6
  23399589.7894   14380096.67545  11205225.94161
  23360214.102    -1774430.456 6  -1382661.41921
  21384104.9614    2817291.37646   2195286.90462
  21166202.109   -12684771.285 7  -9848161.48123
  23848748.1564   -2115896.03945  -1580973.99261
  22712068.984    -8929844.493 5  -6523812.30921
 91  4 24 21 29 30.0000000  0  6G18G11G19G 2G16G 6
  23409644.820    14432946.492 5  11246407.36121
  23364777.5634   -1750439.66346  -1363967.31761
  21387547.9144    2835358.46746   2209365.11862
  21162825.820   -12702502.478 7  -9861977.97223
  23851774.039    -2099957.350 5  -1568554.34721
  22706565.094    -8958749.915 6  -6546335.96621
 91  4 24 21 29 45.0000000  0  6G18G11G19G 2G16G 6
  23419708.8284   14485831.92845  11287616.52361
  23369367.5234   -1726319.13046  -1345172.12461
  21390993.1564    2853476.11146   2223482.72662
  21159466.883   -12720163.926 7  -9875740.11423
  23854830.3984   -2083917.99845  -1556056.28561
  22701064.211    -8987654.416 6  -6568858.87021
 91  4 24 21 30  0.0000000  0  6G18G11G19G 2G16G 6
  23429785.695    14538755.138 6  11328855.12421
  23373982.742    -1702066.425 6  -1326273.96221
  21394449.8134    2871646.87146   2237641.72862
  21156121.0474  -12737753.19947  -9889446.01563
  23857903.9694   -2067775.85945  -1543478.10361
  22695565.9144   -9016555.23746  -6591378.94861
 91  4 24 21 30 15.0000000  0  6G18G11G19G 2G16G 6
  23439858.453    14591713.268 5  11370120.95321
  23378618.5394   -1677684.48646  -1307275.05561
  21397916.6804    2889868.21946   2251840.14862
  21152787.1484  -12755272.81247  -9903097.63163
  23860991.9774   -2051533.98845  -1530822.21261
  22690064.5554   -9045455.04546  -6613898.21461
 91  4 24 21 30 30.0000000  0  6G18G11G19G 2G16G 6
  23449944.680    14644710.897 5  11411417.53421
  23383286.7424   -1653168.69246  -1288171.87761
  21401399.3834    2908144.94746   2266081.72262
  21149466.6094  -12772717.87747  -9916691.15063
  23864100.3594   -2035187.57145  -1518084.85361
  22684568.7734   -9074348.97546  -6636412.91661
 91  4 24 21 30 45.0000000  0  6G18G11G19G 2G16G 6
  23460038.719    14697749.128 6  11452745.78521
  23387975.727    -1628517.710 6  -1268963.34821
  21404883.234     2926478.762 6   2280367.77322
  21146161.0164  -12790086.81847  -9930225.35563
  23867232.102    -2018735.214 5  -1505264.93221
  22679072.563    -9103235.464 6  -6658921.81121
 91  4 24 21 31  0.0000000  0  6G18G11G19G 2G16G 6
  23470138.1414   14750820.51245  11494099.85261
  23392693.5394   -1603739.01646  -1249655.31161
  21408383.336     2944862.488 6   2294692.73522
  21142869.4384  -12807387.08747  -9943706.05163
  23870387.7114   -2002184.54645  -1492368.42161
  22673574.273    -9132121.641 6  -6681430.45921
 91  4 24 21 31 15.0000000  0  6G18G11G19G 2G16G 6
  23480245.242    14803926.739 5  11535481.05121
  23397435.2034   -1578830.99046  -1230246.47561
  21411891.8594    2963298.05146   2309058.07462
  21139591.3524  -12824616.67547  -9957131.67363
  23873555.023    -1985533.941 5  -1479394.04521
  22668078.0234   -9161005.63846  -6703937.40261
 91  4 24 21 31 30.0000000  0  6G18G11G19G 2G16G 6
  23490356.492    14857068.967 5  11576890.30321
  23402196.219    -1553792.436 6  -1210735.92821
  21415412.2584    2981786.95846   2323464.98462
  21136325.2734  -12841774.52047  -9970501.38963
  23876744.0004   -1968782.12445  -1466340.81561
  22662581.7194   -9189886.06146  -6726441.57261
 91  4 24 21 31 45.0000000  0  6G18G11G19G 2G16G 6
  23500475.8914   14910247.66145  11618327.99161
  23406986.8594   -1528622.35546  -1191122.91861
  21418938.0634    3000330.24346   2337914.26762
  21133073.6174  -12858859.52247  -9983814.35463
  23879951.2034   -1951928.41445  -1453208.17061
  22657084.602    -9218761.773 6  -6748942.06221
 91  4 24 21 32  0.0000000  0  6G18G11G19G 2G16G 6
  23510600.6644   14963460.01545  11659791.88161
  23411803.0004   -1503324.01446  -1171409.92261
  21422476.1174    3018925.09046   2352403.72962
  21129836.844   -12875874.412 7  -9997072.68723
  23883178.258    -1934975.956 5  -1439998.58121
  22651590.1174   -9247635.61146  -6771441.10361
 91  4 24 21 32 15.0000000  0  6G18G11G19G 2G16G 6
  23520731.6804   15016709.13145  11701284.43961
  23416639.8284   -1477893.97146  -1151594.33961
  21426025.5164    3037575.06146   2366936.14662
  21126613.0394  -12892815.70947 -10010273.66463
  23886420.969    -1917921.485 5  -1426709.49521
  22646098.1334   -9276503.89146  -6793935.81361
 91  4 24 21 32 30.0000000  0  6G18G11G19G 2G16G 6
  23530875.3284   15069996.03645  11742806.43561
  23421504.7344   -1452330.99646  -1131675.13961
  21429587.5004    3056281.77346   2381512.77562
  21123401.805   -12909682.191 7 -10023416.35723
  23889685.703    -1900763.879 5  -1413340.04621
  22640606.609    -9305365.179 6  -6816425.07221
 91  4 24 21 32 45.0000000  0  6G18G11G19G 2G16G 6
  23541022.922    15123312.599 5  11784351.53421
  23426391.2114   -1426643.29746  -1111658.78561
  21433154.1644    3075037.18946   2396127.35562
  21120205.6094  -12926481.71347 -10036506.86063
  23892965.9064   -1883511.07244  -1399896.41861
  22635114.5314   -9334227.51846  -6838915.13861
 91  4 24 21 33  0.0000000  0  6G18G11G19G 2G16G 6
  23551173.070    15176661.396 5  11825921.74221
  23431306.4454   -1400828.35046  -1091543.25261
  21436730.781     3093844.108 6   2410782.07022
  21117022.1024  -12943211.63447 -10049543.13263
  23896266.359    -1866160.953 4  -1386376.94721
  22629620.9454   -9363088.05046  -6861403.79861
 91  4 24 21 33 15.0000000  0  6G18G11G19G 2G16G 6
  23561329.1334   15230044.59245  11867518.77261
  23436242.547    -1374883.896 6  -1071326.81021
  21440322.1414    3112705.10646   2425478.92662
  21113852.1254  -12959869.56847 -10062523.31063
  23899585.2504   -1848711.19444  -1372779.86061
  22624132.5704   -9391944.13346  -6883889.00461
 91  4 24 21 33 30.0000000  0  6G18G11G19G 2G16G 6
  23571493.8364   15283460.54745  11909141.31961
  23441205.156    -1348811.443 6  -1051010.64421
  21443924.648     3131619.035 6   2440217.03022
  21110694.4224  -12976456.81147 -10075448.40363
  23902931.328    -1831163.234 5  -1359106.24121
  22618643.3054   -9420797.10646  -6906371.78961
 91  4 24 21 33 45.0000000  0  6G18G11G19G 2G16G 6
  23581669.0394   15336912.95445  11950792.27761
  23446191.070    -1322607.295 6  -1030591.84421
  21447534.570     3150589.881 6   2454999.49122
  21107554.7034  -12992969.20847 -10088315.17663
  23906287.625    -1813513.587 5  -1345353.41221
  22613152.1724   -9449642.90446  -6928848.96661
 91  4 24 21 34  0.0000000  0  6G18G11G19G 2G16G 6
  23591843.9924   15390394.61545  11992466.02861
  23451200.609    -1296278.611 6  -1010076.00521
  21451152.938     3169610.796 6   2469820.95922
  21104423.6094  -13009413.93547 -10101129.21563
  23909663.0314   -1795769.28945  -1331526.80161
  22607664.0164   -9478488.41546  -6951325.93261
 91  4 24 21 34 15.0000000  0  6G18G11G19G 2G16G 6
  23602029.469    15443911.570 5  12034167.26321
  23456237.2344   -1269819.35546   -989458.41361
  21454780.6724    3188688.09546   2484686.35962
  21101308.1564  -13025784.85247 -10113885.74063
  23913059.8364   -1777924.57945  -1317621.99061
  22602174.516    -9507327.413 6  -6973797.82821
 91  4 24 21 34 30.0000000  0  6G18G11G19G 2G16G 6
  23612222.570    15497459.839 5  12075892.91221
  23461295.9144   -1243233.42646   -968742.12961
  21458419.164     3207818.376 6   2499593.05522
  21098206.1884  -13042085.65047 -10126587.62763
  23916475.266    -1759983.200 5  -1303641.79821
  22596686.336    -9536163.477 6  -6996267.43621
 91  4 24 21 34 45.0000000  0  6G18G11G19G 2G16G 6
  23622414.438    15551038.799 5  12117642.48321
  23466376.4534   -1216521.34946   -947927.55561
  21462071.805     3227001.224 6   2514540.70622
  21095118.8754  -13058316.66947 -10139235.14363
  23919905.8674   -1741945.59144  -1289586.62861
  22591198.992    -9564996.877 6  -7018734.96621
 91  4 24 21 35  0.0000000  0  6G18G11G19G 2G16G 6
  23632614.5634   15604647.11845  12159414.90261
  23471483.8284   -1189684.30346   -927015.57161
  21465732.7584    3246235.78746   2529528.64862
  21092043.1174  -13074478.87947 -10151829.04463
  23923363.313    -1723813.089 4  -1275457.50521
  22585711.9304   -9593828.56846  -7041201.15861
 91  4 24 21 35 15.0000000  0  6G18G11G19G 2G16G 6
  23642824.3674   15658286.54745  12201211.57361
  23476617.391    -1162720.648 6   -906004.94421
  21469402.398     3265523.726 6   2544558.20022
  21088980.3754  -13090570.35947 -10164367.82963
  23926828.6804   -1705584.29344  -1261253.36561
  22580226.406    -9622656.537 6  -7063664.44721
 91  4 24 21 35 30.0000000  0  6G18G11G19G 2G16G 6
  23653038.6254   15711958.06345  12243033.25661
  23481770.078    -1135629.374 6   -884894.88521
  21473083.539     3284866.348 6   2559630.35322
  21085931.0784  -13106590.07747 -10176850.69463
  23930319.539    -1687258.257 5  -1246973.47021
  22574739.6644   -9651479.57346  -7086123.90061
 91  4 24 21 35 45.0000000  0  6G18G11G19G 2G16G 6
  23663257.008    15765659.067 5  12284877.91021
  23486950.078    -1108412.941 6   -863687.29421
  21476772.953     3304261.528 6   2574743.46422
  21082896.0704  -13122540.20447 -10189279.33963
  23933819.617    -1668837.149 4  -1232619.50621
  22569257.898    -9680299.714 6  -7108581.11221
 91  4 24 21 36  0.0000000  0  6G18G11G19G 2G16G 6
  23673485.031    15819388.130 5  12326744.42721
  23492152.3594   -1081072.60946   -842383.15561
  21480473.7504    3323708.41346   2589896.84062
  21079874.5164  -13138421.89547 -10201654.64963
  23937342.0784   -1650322.37945  -1218192.51961
  22563776.8594   -9709118.13046  -7131036.96061
 91  4 24 21 36 15.0000000  0  6G18G11G19G 2G16G 6
  23683714.8594   15873151.19445  12368637.43561
  23497380.594    -1053602.699 6   -820978.02121
  21484185.750     3343212.999 6   2605095.21222
  21076866.2504  -13154229.32447 -10213972.09663
  23940885.2034   -1631708.45145  -1203688.28761
  22558292.9844   -9737928.79746  -7153486.78461
 91  4 24 21 36 30.0000000  0  6G18G11G19G 2G16G 6
  23693958.414    15926945.634 5  12410554.90021
  23502633.211    -1026005.393 6   -799473.65621
  21487912.7974    3362773.21846   2620336.91262
  21073871.3914  -13169964.56247 -10226233.28863
  23944443.3054   -1612997.71545  -1189108.61861
  22552811.9844   -9766733.74746  -7175932.14461
 91  4 24 21 36 45.0000000  0  6G18G11G19G 2G16G 6
  23704190.805    15980771.114 5  12452496.57321
  23507906.875     -998281.232 6   -777870.43921
  21491637.9064    3382388.97046   2635621.89062
  21070892.0864  -13185627.80347 -10238438.38163
  23948026.5234   -1594190.61845  -1174453.85661
  22547333.188    -9795532.938 6  -7198373.02421
 91  4 24 21 37  0.0000000  0  6G18G11G19G 2G16G 6
  23714440.2584   16034627.55245  12494462.33461
  23513208.375     -970430.249 6   -756168.38521
  21495386.4454    3402060.65446   2650950.44162
  21067925.2194  -13201218.91447 -10250587.27063
  23951624.070    -1575287.395 5  -1159724.17821
  22541849.617    -9824326.197 6  -7220809.27521
 91  4 24 21 37 15.0000000  0  6G18G11G19G 2G16G 6
  23724698.4774   16088516.45145  12536453.39661
  23518532.1724    -942451.05846   -734366.46861
  21499139.383     3421790.027 6   2666323.96222
  21064970.8594  -13216736.11647 -10262678.56663
  23955240.219    -1556286.411 5  -1144918.33821
  22536373.797    -9853111.792 6  -7243239.56921
 91  4 24 21 37 30.0000000  0  6G18G11G19G 2G16G 6
  23734959.570    16142434.777 5  12578467.39421
  23523880.094     -914346.572 6   -712466.88721
  21502902.086     3441574.392 6   2681740.33222
  21062032.656   -13232182.099 7 -10274714.37023
  23958873.000    -1537190.456 5  -1130038.48021
  22530896.633    -9881892.269 6  -7265665.86421
 91  4 24 21 37 45.0000000  0  6G18G11G19G 2G16G 6
  23745224.773    16196382.659 5  12620504.43521
  23529250.813     -886116.758 6   -690469.64621
  21506680.5554    3461414.19946   2697199.88863
  21059106.1884  -13247556.66947 -10286694.53063
  23962523.3834   -1517999.39545  -1115084.50661
  22525419.8444   -9910667.20246  -7288087.84961
 91  4 24 21 38  0.0000000  0  6G18G11G19G 2G16G 6
  23755494.4064   16250362.75445  12662566.53961
  23534649.695     -857758.379 6   -668372.21621
  21510468.7424    3481312.79546   2712705.25462
  21056196.0864  -13262856.61747 -10298616.53063
  23966196.5004   -1498710.38945  -1100054.24161
  22519945.852    -9939433.320 6  -7310502.93921
 91  4 24 21 38 15.0000000  0  6G18G11G19G 2G16G 6
  23765770.9614   16304372.06345  12704651.44961
  23540069.609     -829274.692 6   -646177.16021
  21514266.3914    3501267.17446   2728254.09162
  21053298.2734  -13278084.93647 -10310482.72563
  23969885.6644   -1479326.81645  -1084950.26161
  22514471.8134   -9968193.57146  -7332913.46161
 91  4 24 21 38 30.0000000  0  6G18G11G19G 2G16G 6
  23776054.625    16358412.199 5  12746760.34621
  23545513.3364    -800664.11846   -623883.23161
  21518077.883     3521279.248 6   2743847.88522
  21050414.6024  -13293239.94247 -10322291.78763
  23973587.3984   -1459847.11845  -1069771.42961
  22509002.8054   -9996946.06146  -7355317.95461
 91  4 24 21 38 45.0000000  0  6G18G11G19G 2G16G 6
  23786346.820    16412483.633 5  12788893.63121
  23550983.047     -771926.127 6   -601490.01521
  21521891.7424    3541349.94946   2759487.36063
  21047545.1724  -13308320.90647 -10334043.15863
  23977315.8364   -1440270.85945  -1054517.33461
  22503531.867   -10025689.891 6  -7377715.68521
 91  4 24 21 39  0.0000000  0  6G18G11G19G 2G16G 6
  23796642.8444   16466583.88445  12831049.38861
  23556473.711     -743063.133 6   -578999.39321
  21525723.594     3561477.045 6   2775170.78522
  21044687.7974  -13323329.83647 -10345738.39563
  23981055.4064   -1420600.22945  -1039189.73661
  22498065.2194  -10054427.21446  -7400108.33861
 91  4 24 21 39 15.0000000  0  6G18G11G19G 2G16G 6
  23806947.2734   16520713.81445  12873228.27161
  23561989.859     -714074.208 6   -556410.65021
  21529563.8914    3581661.90746   2790899.21962
  21041845.273   -13338265.658 7 -10357376.67023
  23984822.555    -1400834.508 5  -1023787.98021
  22492596.570   -10083156.766 6  -7422494.92921
 91  4 24 21 39 30.0000000  0  6G18G11G19G 2G16G 6
  23817251.109    16574871.916 5  12915429.08621
  23567528.141     -684960.835 6   -533724.91921
  21533414.2664    3601903.23746   2806671.65063
  21039017.9064  -13353129.70247 -10368959.01263
  23988599.453    -1380975.146 5  -1008313.27221
  22487131.203   -10111879.679 6  -7444876.36121
 91  4 24 21 39 45.0000000  0  6G18G11G19G 2G16G 6
  23827562.0234   16629058.18445  12957651.86561
  23573094.570     -655722.991 6   -510942.19121
  21537280.0314    3622201.45246   2822488.40662
  21036201.0084  -13367921.81947 -10380485.30863
  23992398.7734   -1361022.06045   -992765.54561
  22481664.859   -10140595.674 6  -7467252.40021
 91  4 24 21 40  0.0000000  0  6G18G11G19G 2G16G 6
  23837877.305    16683273.476 5  12999897.26521
  23578681.4304    -626359.98646   -488061.94061
  21541151.1024    3642557.45146   2838350.18862
  21033401.1954  -13382640.95847 -10391954.74163
  23996214.7584   -1340974.93745   -977144.48361
  22476204.8594  -10169303.67946  -7489622.20461
 91  4 24 21 40 15.0000000  0  6G18G11G19G 2G16G 6
  23848200.5164   16737520.41545  13042167.30761
  23584295.156     -596869.090 6   -465082.03321
  21545036.7424    3662974.47046   2854259.52662
  21030614.9924  -13397284.18947 -10403365.02263
  24000047.3444   -1320830.97245   -961448.01161
  22470742.7974  -10198000.65646  -7511983.42661
 91  4 24 21 40 30.0000000  0  6G18G11G19G 2G16G 6
  23858530.281    16791793.993 5  13084458.10921
  23589929.2894    -567255.19046   -442006.27661
  21548934.2424    3683447.86946   2870212.79062
  21027841.6334  -13411856.25947 -10414719.85663
  24003897.6804   -1300595.04545   -945679.84661
  22465283.797   -10226691.231 6  -7534339.64921
 91  4 24 21 40 45.0000000  0  6G18G11G19G 2G16G 6
  23868861.008    16846094.896 5  13126770.17221
  23595588.227     -537517.438 6   -418834.04121
  21552839.3524    3703978.76346   2886210.86262
  21025084.2584  -13426356.02647 -10426018.34363
  24007767.633    -1280266.209 5   -929839.35121
  22459824.000   -10255374.190 6  -7556689.94521
 91  4 24 21 41  0.0000000  0  6G18G11G19G 2G16G 6
  23879203.422    16900425.404 5  13169105.35821
  23601269.117     -507653.897 6   -395563.76421
  21556762.8204    3724569.20846   2902255.31962
  21022338.109   -13440781.417 7 -10437258.88623
  24011653.2344   -1259842.54045   -913924.94761
  22454368.758   -10284047.317 6  -7579032.58921
 91  4 24 21 41 15.0000000  0  6G18G11G19G 2G16G 6
  23889544.0394   16954781.06145  13211460.12361
  23606974.5314    -477668.87746   -372198.82461
  21560689.6414    3745215.42046   2918343.25062
  21019605.0784  -13455136.55747 -10448444.67363
  24015560.297    -1239328.701 5   -897940.25621
  22448915.6564  -10312714.50546  -7601370.58361
 91  4 24 21 41 30.0000000  0  6G18G11G19G 2G16G 6
  23899891.7344   17009166.00845  13253837.68761
  23612707.4064    -447558.13946   -348735.92761
  21564632.8674    3765921.93046
  21016888.367   -13469416.925 7 -10459572.21523
  24019479.469    -1218720.278 5
  22443459.508   -10341371.207 6  -7623700.42421
 91  4 24 21 41 45.0000000  0  6G18G11G19G 2G16G 6
  23910249.4694   17063577.21645  13296235.76361
  23618459.852     -417324.630 6   -325177.38621
  21568575.9144    3786686.03246
  21014184.8834  -13483625.40547 -10470643.72663
  24023414.547    -1198020.290 5
  22438009.445   -10370020.180 6  -7646024.22021
 91  4 24 21 42  0.0000000  0  6G18G11G19G 2G16G 6
  23920611.742    17118019.998 5  13338658.38721
  23624239.8444    -386962.96846   -301518.99361
  21572545.6094    3807513.47446
  21011495.2424  -13497756.43747 -10481654.89263
  24027372.461    -1177223.453 5
  22432560.7894  -10398655.67846  -7668337.53461
 91  4 24 21 42 15.0000000  0  6G18G11G19G 2G16G 6
  23930974.758    17172491.346 5  13381103.29821
  23630039.117     -356476.311 6   -277763.16621
  21576516.1254    3828401.43746
  21008820.9454  -13511812.87547 -10492607.93263
  24031349.250    -1156332.867 5
  22427110.3674  -10427280.49346  -7690642.51361
 91  4 24 21 42 30.0000000  0  6G18G11G19G 2G16G 6
  23941352.1094   17226990.38045  13423569.81361
  23635864.4774    -325865.45346   -253910.55861
  21580500.0474    3849349.57946
  21006160.5084  -13525795.24648 -10503503.26163
  24035339.008    -1135349.280 5
  22421667.672   -10455894.960 6  -7712939.46321
 91  4 24 21 42 45.0000000  0  6G18G11G19G 2G16G 6
  23951723.3754   17281515.32645  13466056.47461
  23641714.3914    -295132.08046   -229962.49861
  21584500.6414    3870356.48246
  21003513.7344  -13539705.06048 -10514342.04963
  24039348.508    -1114274.823 5
  22416221.6334  -10484500.50846  -7735229.43561
 91  4 24 21 43  0.0000000  0  6G18G11G19G 2G16G 6
  23962102.477    17336067.124 5  13508564.05021
  23647586.406     -264275.348 6   -205918.31521
  21588508.7584    3891423.22946   3032271.18862
  21000879.4924  -13553541.35048 -10525123.54563
  24043379.9534   -1093108.16745
  22410778.2034  -10513095.98346  -7757511.55661
 91  4 24 21 43 15.0000000  0  6G18G11G19G 2G16G 6
  23972490.516    17390648.719 5  13551094.86921
  23653480.3984    -233292.10446   -181775.54861
  21592532.7114    3912553.30446   3048736.14862
  20998262.047   -13567300.826 7 -10535845.18923
  24047429.758    -1071846.368 5   -849813.58421
  22405341.7344  -10541677.91546  -7779783.13861
 91  4 24 21 43 30.0000000  0  6G18G11G19G 2G16G 6
  23982883.7814   17445258.11745  13593647.35961
  23659402.461     -202184.547 6   -157535.91721
  21596559.8054    3933744.92846   3065249.07362
  20995656.531   -13580985.247 7 -10546508.35023
  24051490.188    -1050491.469 5   -833173.52821
  22399906.1094  -10570248.12746  -7802045.57661
 91  4 24 21 43 45.0000000  0  6G18G11G19G 2G16G 6
  23993277.398    17499893.430 5  13636219.99721
  23665343.961     -170954.642 6   -133200.95221
  21600606.8444    3954996.39346   3081808.61262
  20993066.133   -13594596.456 7 -10557114.46023
  24055573.969    -1029045.493 5   -816462.53221
  22394469.828   -10598808.217 6  -7824300.14421
 91  4 24 21 44  0.0000000  0  6G18G11G19G 2G16G 6
  24003683.1884   17554553.66345  13678812.10761
  23671307.0704    -139603.02346   -108771.14461
  21604663.3054    3976307.32446   3098414.50262
  20990490.750   -13608134.861 7 -10567663.84723
  24059669.8134   -1007509.30445   -799681.22861
  22389041.711   -10627358.505 6  -7846547.07021
 91  4 24 21 44 15.0000000  0  6G18G11G19G 2G16G 6
  24014085.9844   17609235.82645  13721421.29661
  23677294.609     -108133.107 6    -84249.16321
  21608727.656     3997674.642 6   3115064.32522
  20987926.391   -13621603.542 7 -10578158.89923
  24063786.109     -985886.500 4   -782832.37921
  22383606.820   -10655902.152 6  -7868788.82721
 91  4 24 21 44 30.0000000  0  6G18G11G19G 2G16G 6
  24024499.7344   17663941.73945  13764048.95361
  23683309.3364     -76542.81446    -59633.35261
  21612806.3134    4019100.68246   3131759.90662
  20985379.016   -13635000.219 7 -10588597.84423
  24067913.7194    -964174.86744   -765914.36261
  22378175.727   -10684436.425 6  -7891023.27221
 91  4 24 21 44 45.0000000  0  6G18G11G19G 2G16G 6
  24034916.9064   17718669.39545  13806693.55961
  23689344.7814     -44834.08746    -34925.29661
  21616892.9064    4040584.08246   3148500.18762
  20982842.094   -13648326.658 7 -10598982.06023
  24072064.289     -942376.295 5
  22372748.6954  -10712963.11946  -7913251.80461
 91  4 24 21 45  0.0000000  0  6G18G11G19G 2G16G 6
  24045327.5944   17773417.74045  13849354.30361
  23695397.1724     -13008.02346    -10125.78061
  21620994.078     4062124.109 6   3165284.58622
  20980320.195   -13661583.780 7 -10609312.26623
  24076233.766     -920492.001 5
  22367318.594   -10741482.941 6  -7935474.99621
 91  4 24 21 45 15.0000000  0  6G18G11G19G 2G16G 6
  24055752.5164   17828191.72645  13892035.02061
  23701480.2194      18940.33946     14769.01961
  21625103.5164    4083725.74246   3182116.99562
  20977809.9304  -13674766.57947 -10619584.54463
  24080414.3054    -898517.32645
  22361895.3444  -10769990.71746  -7957688.80261
 91  4 24 21 45 30.0000000  0  6G18G11G19G 2G16G 6
  24066178.281    17882984.714 5  13934730.54321
  23707579.500       51004.423 6     39753.99521
  21629227.1484    4105382.86046   3198992.63862
  20975314.500   -13687881.383 7 -10629803.85523
  24084607.3524    -876458.42745        -0.43871
  22356471.219   -10798492.614 6  -7979898.02621
 91  4 24 21 45 45.0000000  0  6G18G11G19G 2G16G 6
  24076611.055    17937797.443 5  13977441.46121
  23713706.977       83184.892 6     64829.66121
  21633355.6334    4127096.52846   3215912.34962
  20972832.9384  -13700927.09247 -10639969.31163
  24088825.6094    -854314.90545     17254.11361
  22351050.453   -10826987.524 6  -8002101.80421
 91  4 24 21 46  0.0000000  0  6G18G11G19G 2G16G 6
  24087045.0234   17992630.36745  14020168.11061
  23719846.305      115482.222 6     89996.39521
  21637506.1724    4148867.51146   3232876.71962
  20970364.797   -13713903.034 7 -10650080.41523
  24093052.445     -832085.739 5     34575.39921
  22345627.891   -10855474.632 6  -8024299.50321
 91  4 24 21 46 15.0000000  0  6G18G11G19G 2G16G 6
  24097488.3444   18047488.13245  14062914.12161
  23726019.0704     147901.08446    115257.81661
  21641656.9924    4170700.89346   3249889.70862
  20967908.8754  -13726804.30647 -10660133.32663
  24097303.172     -809766.966 5     51966.57321
  22340210.336   -10883948.937 6  -8046487.23021
 91  4 24 21 46 30.0000000  0  6G18G11G19G 2G16G 6
  24107927.0314   18102367.70345  14105677.11661
  23732214.031      180438.505 6    140611.61321
  21645823.1024    4192593.94146   3266949.18762
  20965468.305   -13739633.706 7 -10670130.23823
  24101562.641     -787361.421 4     69425.28721
  22334793.883   -10912413.087 6  -8068667.03721
 91  4 24 21 46 45.0000000  0  6G18G11G19G 2G16G 6
  24118380.664    18157268.847 5  14148456.91621
  23738426.469      213093.939 6    166057.38721
  21649996.4144    4214546.42746   3284054.99062
  20963039.039   -13752391.562 7 -10680071.39923
  24105848.438     -764869.762 5     86951.11921
  22329380.5394  -10940867.23346  -8090839.05461
 91  4 24 21 47  0.0000000  0  6G18G11G19G 2G16G 6
  24128832.5554   18212190.28945  14191252.52561
  23744661.141      245866.353 6    191594.31821
  21654184.680     4236557.846 6   3301206.70722
  20960626.195   -13765078.567 7 -10689957.35223
  24110141.031     -742293.217 5    104543.09421
  22323965.992   -10969311.976 6  -8113003.74321
 91  4 24 21 47 15.0000000  0  6G18G11G19G 2G16G 6
  24139283.6094   18267128.80045  14234061.44361
  23750920.7584     278752.54746    217219.89361
  21658385.7894    4258625.06846   3318401.91262
  20958223.555   -13777697.944 7 -10699790.60823
  24114458.766     -719634.905 5    122198.75821
  22318554.117   -10997750.263 6  -8135163.39621
 91  4 24 21 47 30.0000000  0  6G18G11G19G 2G16G 6
  24149744.609    18322090.766 5  14276888.65821
  23757200.898      311758.717 6    242938.94721
  21662595.9144    4280754.44446   3335645.55062
  20955834.570   -13790243.192 7 -10709566.10223
  24118781.117     -696888.385 5    139923.16921
  22313146.820   -11026175.563 6  -8157312.93221
 91  4 24 21 47 45.0000000  0  6G18G11G19G 2G16G 6
  24160200.4534   18377070.02445  14319729.30961
  23763503.1174     344879.01046    268746.94961
  21666817.6564    4302940.61746   3352933.44262
  20953462.336   -13802720.025 7 -10719288.28423
  24123121.9924    -674059.72745    157711.56961
  22307736.047   -11054593.342 6  -8179456.59521
 91  4 24 21 48  0.0000000  0  6G18G11G19G 2G16G 6
  24170666.4844   18432071.78645  14362587.49761
  23769829.633      378118.472 6    294647.77221
  21671056.836     4325189.233 6   3370269.97722
  20951102.578   -13815123.067 7 -10728952.96823
  24127485.625     -651143.863 4    175567.94621
  22302333.430   -11082998.036 6  -8201590.08021
 91  4 24 21 48 15.0000000  0  6G18G11G19G 2G16G 6
  24181141.703    18487090.212 5  14405458.70221
  23776178.016      411471.140 6    320636.85021
  21675299.891     4347494.532 6   3387650.70722
  20948753.570   -13827458.035 7 -10738564.60623
  24131857.328     -628146.709 3    193487.66921
  22296928.680   -11111395.369 6  -8223717.82221
 91  4 24 21 48 30.0000000  0  6G18G11G19G 2G16G 6
  24191613.000    18542129.112 5  14448345.81521
  23782542.6564     444941.15346    346717.34461
  21679552.055     4369860.911 6   3405079.02022
  20946421.242   -13839720.768 7 -10748119.95923
  24136258.7664    -605064.49344    211473.69861
  22291529.125   -11139780.889 6  -8245836.35421
 91  4 24 21 48 45.0000000  0  6G18G11G19G 2G16G 6
  24202098.883    18597188.836 5  14491249.19621
  23788934.5944     478528.58546    372889.35261
  21683822.2664    4392288.76046   3422555.22662
  20944100.570   -13851910.869 7 -10757618.71423
  24140664.1724    -581896.90244    229526.19861
  22286127.633   -11168154.115 6  -8267945.30521
 91  4 24 21 49  0.0000000  0  6G18G11G19G 2G16G 6
  24212577.805    18652266.970 5  14534166.90121
  23795349.539      512231.026 6    399150.98221
  21688100.0864    4414776.12746   3440077.82762
  20941796.898   -13864030.363 7 -10767062.45223
  24145085.5474    -558646.46744    247643.28861
  22280728.516   -11196516.883 6  -8290046.11021
 91  4 24 21 49 15.0000000  0  6G18G11G19G 2G16G 6
  24223057.492    18707362.400 5  14577098.07421
  23801784.914      546047.530 6    425501.47021
  21692392.258     4437322.377 6   3457646.27222
  20939503.156   -13876080.201 7 -10776451.91123
  24149523.0864    -535314.20644    265824.11161
  22275334.594   -11224870.056 6  -8312139.44721
 91  4 24 21 49 30.0000000  0  6G18G11G19G 2G16G 6
  24233548.195    18762476.803 5  14620044.04821
  23808242.039      579979.758 6    451942.12921
  21696688.906     4459929.480 6   3475262.17822
  20937221.648   -13888058.285 7 -10785785.46023
  24153986.7274    -511898.31644    284070.09261
  22269942.344   -11253211.410 6  -8334223.55821
 91  4 24 21 49 45.0000000  0  6G18G11G19G 2G16G 6
  24244035.828    18817611.232 5  14663005.63321
  23814721.273      614028.585 6    478473.65721
  21701007.344     4482598.768 6   3492926.51322
  20934955.984   -13899963.525 7 -10795062.24423
  24158445.1094    -488398.08544    302381.82161
  22264550.8984  -11281539.76746  -8356297.54761
 91  4 24 21 50  0.0000000  0  6G18G11G19G 2G16G 6
  24254529.742    18872767.400 5  14705984.14521
  23821224.703      648195.842 6    505097.48021
  21705332.0474    4505332.17646   3510640.82762
  20932708.086   -13911793.983 7 -10804280.76323
  24162945.742     -464811.625 4    320760.74721
  22259161.984   -11309852.909 6  -8378359.68421
 91  4 24 21 50 15.0000000  0  6G18G11G19G 2G16G 6
  24265031.656    18927937.415 5  14748973.44521
  23827744.2814     682473.51746    531807.36861
  21709668.367     4528122.054 6   3528399.14222
  20930467.070   -13923557.295 7 -10813446.95323
  24167447.8524    -441147.01445    339200.56161
  22253776.7584  -11338158.42046  -8400415.87361
 91  4 24 21 50 30.0000000  0  6G18G11G19G 2G16G 6
  24275535.172    18983125.566 5  14791976.87921
  23834290.703      716865.986 6    558606.67521
  21714018.7344    4550973.26046   3546205.22862
  20928242.969   -13935248.820 7 -10822557.20623
  24171970.7424    -417399.52345    357704.95561
  22248391.750   -11366451.394 6  -8422462.28321
 91  4 24 21 50 45.0000000  0  6G18G11G19G 2G16G 6
  24286041.2734   19038332.42945  14834994.87761
  23840858.852      751373.636 6    585495.70821
  21718376.211     4573886.513 6   3564059.67422
  20926030.0084  -13946867.90647 -10831611.01163
  24176509.4224    -393569.23745    376273.84761
  22243008.3674  -11394731.20146  -8444498.44361
 91  4 24 21 51  0.0000000  0  5G18G11G19G 2G 6
  24296547.047    19093555.414 5  14878025.46921
  23847445.430      785993.614 6    612472.28121
  21722757.2734    4596859.35946   3581960.55462
  20923833.9144  -13958417.29047 -10840610.51063
  22237630.461   -11423000.264 6  -8466526.24021
 91  4 24 21 51 15.0000000  0  5G18G11G19G 2G 6
  24307065.9144   19148796.99445  14921070.56761
  23854052.5704     820728.68346    639538.56961
  21727131.1724    4619894.95246   3599910.34162
  20921648.148   -13969893.991 7 -10849553.36423
  22232251.422   -11451255.429 6  -8488543.19321
 91  4 24 21 51 30.0000000  0  5G18G11G19G 2G 6
  24317576.2734   19204056.34845  14964129.45461
  23860684.3914     855578.22146    666694.00761
  21731534.016     4642993.012 6   3617908.77622
  20919480.609   -13981298.521 7 -10858439.99323
  22226878.1644  -11479496.92746  -8510549.49361
 91  4 24 21 51 45.0000000  0  5G18G11G19G 2G 6
  24328101.195    19259333.289 5  15007202.07721
  23867338.2274     890542.00346    693938.50261
  21735936.1954    4666153.68046   3635956.01662
  20917319.766   -13992630.671 7 -10867270.20923
  22221509.648   -11507724.729 6  -8532545.12521
 91  4 24 21 52  0.0000000  0  5G18G11G19G 2G 6
  24338623.234    19314624.965 5  15050286.18621
  23874012.7034     925616.95246    721269.62361
  21740356.6254    4689374.06646   3654049.79062
  20915179.3204  -14003893.37847 -10876046.32263
  22216137.1254  -11535941.38046  -8554532.06061
 91  4 24 21 52 15.0000000  0  5G18G11G19G 2G 6
  24349146.867    19369934.538 5  15093384.25821
  23880711.1954     960806.22546    748689.80261
  21744788.492     4712657.543 6   3672192.72022
  20913048.945   -14015083.301 7 -10884765.71723
  22210770.375   -11564143.394 6  -8576507.60621
 91  4 24 21 52 30.0000000  0  5G18G11G19G 2G 6
  24359675.1094   19425262.00545  15136496.23761
  23887426.930      996109.923 6    776199.15921
  21749226.2734    4736004.76446   3690385.33362
  20910933.9064  -14026200.12047 -10893428.14763
  22205408.8134  -11592330.24946  -8598471.32861
 91  4 24 21 52 45.0000000  0  4G11G19G 2G 6
  23894166.125     1031522.586 6    803793.43521
  21753679.688     4759410.685 6   3708623.66522
  20908831.133   -14037248.865 7 -10902037.53823
  22200046.4224  -11620506.90146  -8620427.09961
 91  4 24 21 53  0.0000000  0  4G11G19G 2G 6
  23900928.9304    1067045.63546    831473.71261
  21758150.445     4782876.921 6   3726909.01722
  20906743.102   -14048227.939 7 -10910592.63423
  22194686.383   -11648671.790 6  -8642373.71421
 91  4 24 21 53 15.0000000  0  4G11G19G 2G 6
  23907708.0944    1102679.50646    859240.35861
  21762623.781     4806404.400 6   3745242.06322
  20904666.773   -14059136.665 7 -10919092.91923
  22189326.0004  -11676823.91846  -8664310.37761
 91  4 24 21 53 30.0000000  0  4G11G19G 2G 6
  23914507.930     1138425.040 5    887094.00121
  21767119.2114    4829994.25446   3763623.73162
  20902602.688   -14069974.043 7 -10927537.60823
  22183976.258   -11704962.006 6  -8686236.11221
 91  4 24 21 53 45.0000000  0  4G11G19G 2G 6
  23921333.4924    1174279.08446    915032.17761
  21771612.742     4853643.668 6   3782051.81022
  20900557.516   -14080742.907 7 -10935928.91623
  22178623.016   -11733088.871 6  -8708153.10021
 91  4 24 21 54  0.0000000  0  4G11G19G 2G 6
  23928175.742     1210239.771 6    943053.48621
  21776130.9384    4877351.08246   3800525.06962
  20898518.523   -14091445.028 7 -10944268.21223
  22173271.500   -11761206.036 6  -8730062.53421
 91  4 24 21 54 15.0000000  0  4G11G19G 2G 6
  23935039.2974    1246309.77946    971159.94561
  21780649.453     4901119.533 6   3819045.92322
  20896494.641   -14102077.399 7 -10952553.15423
  22167923.625   -11789310.353 6  -8751961.94421
 91  4 24 21 54 30.0000000  0  4G11G19G 2G 6
  23941925.0784    1282488.88546    999351.44061
  21785184.406     4924949.119 6   3837614.38722
  20894485.516   -14112639.880 7 -10960783.64223
  22162576.8444  -11817401.57846  -8773851.16361
 91  4 24 21 54 45.0000000  0  4G11G19G 2G 6
  23948832.1094    1318780.55546   1027630.63861
  21789728.664     4948843.674 6   3856233.47522
  20892488.148   -14123129.074 7 -10968957.01723
  22157233.641   -11845475.894 6  -8795727.20221
 91  4 24 21 55  0.0000000  0  4G11G19G 2G 6
  23955758.2974    1355176.47346   1055991.06561
  21794286.789     4972795.367 6   3874897.09322
  20890503.969   -14133552.927 7 -10977079.47723
  22151893.391   -11873541.224 6  -8817596.24321
 91  4 24 21 55 15.0000000  0  4G11G19G 2G 6
  23962703.6804    1391677.95746   1084433.78561
  21798860.289     4996805.615 6   3893606.33222
  20888533.2894  -14143909.90647 -10985149.82663
  22146556.5084  -11901595.87146  -8839456.95161
 91  4 24 21 55 30.0000000  0  4G11G19G 2G 6
  23969671.4064    1428285.77646   1112959.35861
  21803439.7344    5020875.67046   3912362.18362
  20886575.719   -14154199.001 7 -10993167.28023
  22141221.055   -11929638.561 6  -8861308.34121
 91  4 24 21 55 45.0000000  0  4G11G19G 2G 6
  23976657.461     1465002.106 6   1141569.47221
  21808028.703     5045008.000 6   3931166.56022
  20884632.891   -14164417.682 7 -11001129.86323
  22135885.625   -11957666.853 6  -8883148.51721
 91  4 24 21 56  0.0000000  0  4G11G19G 2G 6
  23983664.117     1501826.519 6   1170263.82421
  21812631.6254    5069202.70246   3950019.53062
  20882700.992   -14174566.141 7 -11009037.72622
  22130553.039   -11985680.626 6  -8904977.38121
 91  4 24 21 56 15.0000000  0  4G11G19G 2G 6
  23990689.8834    1538756.24845   1199040.20161
  21817250.117     5093457.191 6   3968919.08122
  20880783.664   -14184647.077 7 -11016892.98122
  22125226.477   -12013682.219 6  -8926796.75121
 91  4 24 21 56 30.0000000  0  4G11G19G 2G 6
  23997739.102     1575789.454 6   1227897.19921
  21821874.484     5117770.118 6   3987864.17622
  20878876.875   -14194661.852 7 -11024696.67322
  22119901.750   -12041673.042 6  -8948607.74121
 91  4 24 21 56 45.0000000  0  4G11G19G 2G 6
  24004805.727     1612927.875 6   1256836.21821
  21826514.172     5142143.527 6   4006856.39522
  20876984.125   -14204608.623 7 -11032447.38023
  22114574.406   -12069650.925 6  -8970408.62621
 91  4 24 21 57  0.0000000  0  4G11G19G 2G 6
  24011896.133     1650175.825 6   1285860.56821
  21831165.008     5166582.171 6   4025899.44322
  20875104.0004  -14214482.58747 -11040141.35062
  22109256.6414  -12097611.08846  -8992195.71561
 91  4 24 21 57 15.0000000  0  4G11G19G 2G 6
  24018999.859     1687522.783 6   1314962.08421
  21835827.938     5191075.849 6   4044985.37522
  20873237.094   -14224294.332 7 -11047786.84322
  22103938.570   -12125563.706 6  -9013976.91621
 91  4 24 21 57 30.0000000  0  4G11G19G 2G 6
  24026127.398     1724974.334 6   1344145.11221
  21840500.7344    5215630.38046   4064118.73862
  20871383.414   -14234037.906 7 -11055379.21023
  22098620.992   -12153502.824 6  -9035747.61721
 91  4 24 21 57 45.0000000  0  4G11G19G 2G 6
  24033275.367     1762528.369 6   1373407.96621
  21845183.234     5240244.036 6   4083298.15922
  20869542.4924  -14243715.23647 -11062919.95962
  22093304.9224  -12181430.11046  -9057509.09761
 91  4 24 21 58  0.0000000  0  4G11G19G 2G 6
  24040438.5004    1800187.61145   1402752.85661
  21849875.148     5264920.018 6   4102526.15022
  20867712.8444  -14253323.32347 -11070406.75463
  22087993.188   -12209342.384 6  -9079258.87221
 91  4 24 21 58 15.0000000  0  4G11G19G 2G 6
  24047626.836     1837952.422 5   1432179.94521
  21854584.734     5289658.923 6   4121803.16522
  20865899.672   -14262861.597 7 -11077839.14923
  22082683.6414  -12237238.92946  -9100996.38161
 91  4 24 21 58 30.0000000  0  4G11G19G 2G 6
  24054834.469     1875821.938 5   1461688.64921
  21859308.4064    5314460.26246   4141128.85162
  20864098.1884  -14272330.61847 -11085217.58063
  22077378.766   -12265119.999 6  -9122721.83421
 91  4 24 21 58 45.0000000  0  4G11G19G 2G 6
  24062057.3914    1913794.62545   1491277.74861
  21864037.0234    5339322.87646   4160502.25862
  20862308.0864  -14281731.63747 -11092543.01863
  22072076.594   -12292986.914 6  -9144436.26521
 91  4 24 21 59  0.0000000  0  4G11G19G 2G 6
  24069303.414     1951874.010 5   1520949.99621
  21868784.641     5364250.702 6   4179926.47722
  20860533.1564  -14291060.91647 -11099812.55763
  22066780.2194  -12320835.57046  -9166136.44561
 91  4 24 21 59 15.0000000  0  4G11G19G 2G 6
  24076570.4614    1990057.48945   1550703.32761
  21873538.492     5389241.418 6   4199399.71522
  20858770.4224  -14300320.93647 -11107028.12863
  22061483.461   -12348668.291 6  -9187824.24021
 91  4 24 21 59 30.0000000  0  4G11G19G 2G 6
  24083856.8984    2028341.29445   1580534.81561
  21878302.711     5414291.604 6   4218919.28622
  20857021.0314  -14309515.26347 -11114192.50963
  22056186.0004  -12376488.36246  -9209502.15061
 91  4 24 21 59 45.0000000  0  4G11G19G 2G 6
  24091162.508     2066728.251 5   1610446.71521
  21883078.297     5439404.490 6   4238487.73122
  20855283.7584  -14318640.71547 -11121303.21863
  22050892.406   -12404292.506 6  -9231167.66321
 91  4 24 22  0  0.0000000  0  4G11G19G 2G 6
  24098484.680     2105214.914 5   1640436.34021
  21887872.727     5464576.850 6   4258102.50622
  20853560.7734  -14327700.29847 -11128362.60763
  22045604.5084  -12432083.74646  -9252823.12061
 91  4 24 22  0 15.0000000  0  4G11G19G 2G 6
  24105824.5864    2143801.07146   1670503.47561
  21892671.703     5489808.941 6   4277763.83222
  20851846.969   -14336694.083 7 -11135370.72223
  22040322.6094  -12459861.73246  -9274468.26561
 91  4 24 22  0 30.0000000  0  4G11G19G 2G 6
  24113187.2584    2182487.49046   1700648.74061
  21897487.445     5515101.841 6   4297472.53322
  20850149.7424  -14345621.11047 -11142326.81963
  22035039.641   -12487625.298 6  -9296102.16321
 91  4 24 22  0 45.0000000  0  4G11G19G 2G 6
  24120571.172     2221280.126 6   1730876.73821
  21902311.500     5540462.004 6   4317233.65122
  20848464.8834  -14354475.01247 -11149225.93263
  22029758.430   -12515368.009 6  -9317719.81621
 91  4 24 22  1  0.0000000  0  4G11G19G 2G 6
  24127973.7344    2260171.37745   1761181.61861
  21907150.188     5565882.212 6   4337041.55422
  20846792.2344  -14363263.19747 -11156073.84263
  22024484.6644  -12543097.02046  -9339326.77961
 91  4 24 22  1 15.0000000  0  4G11G19G 2G 6
  24135390.9224    2299162.70746   1791564.43961
  21911997.938     5591364.225 6   4356897.61222
  20845133.7034  -14371984.00447 -11162869.24563
  22019208.516   -12570810.507 6  -9360921.64621
 91  4 24 22  1 30.0000000  0  4G11G19G 2G 6
  24142833.5554    2338255.81846   1822026.61061
  21916859.109     5616910.161 6   4376803.48822
  20843487.3754  -14380635.45347 -11169610.60763
  22013937.078   -12598506.385 6  -9382502.79721
 91  4 24 22  1 45.0000000  0  4G11G19G 2G 6
  24150287.539     2377445.672 5   1852564.15521
  21921733.203     5642515.315 6   4396755.51422
  20841852.4144  -14389222.19447 -11176301.54463
  22008668.7814  -12626189.14846  -9404073.72261
 91  4 24 22  2  0.0000000  0  4G11G19G 2G 6
  24157765.6414    2416735.17545   1883179.34161
  21926618.945     5668182.815 6   4416756.11322
  20840230.7194  -14397741.27547 -11182939.75763
  22003405.953   -12653855.408 6  -9425631.80221
 91  4 24 22  2 15.0000000  0  4G11G19G 2G 6
  24165260.086     2456126.652 5   1913873.99521
  21931516.867     5693915.457 6   4436807.47022
  20838624.7034  -14406190.18048 -11189523.29363
  21998140.977   -12681502.430 6  -9447174.88521
 91  4 24 22  2 30.0000000  0  4G11G19G 2G 6
  24172774.609     2495615.934 5   1944644.89121
  21936422.805     5719709.478 6   4456906.66022
  20837029.023   -14414572.597 8 -11196055.02223
  21992886.070   -12709133.864 6  -9468705.82521
 91  4 24 22  2 45.0000000  0  4G11G19G 2G 6
  24180309.5314    2535204.00245   1975492.72661
  21941341.500     5745566.142 6   4477054.66922
  20835447.6174  -14422887.31048 -11202533.99063
  21987631.281   -12736748.350 6  -9490223.55421
 91  4 24 22  3  0.0000000  0  4G11G19G 2G 6
  24187863.4454    2574890.87545   2006417.52961
  21946275.883     5771485.805 6   4497251.76122
  20833877.828   -14431134.073 8 -11208960.01123
  21982380.492   -12764345.382 6  -9511727.68621
 91  4 24 22  3 15.0000000  0  4G11G19G 2G 6
  24195430.039     2614671.467 5   2037415.40121
  21951217.953     5797463.757 6   4517494.26322
  20832320.609   -14439317.812 8 -11215336.92723
  21977131.172   -12791929.647 6  -9533221.87021
 91  4 24 22  3 30.0000000  0  4G11G19G 2G 6
  24203017.1414    2654549.21745   2068488.97961
  21956181.188     5823503.957 6   4537785.27522
  20830775.625   -14447434.913 8 -11221661.91823
  21971884.9534  -12819497.11546  -9554702.97761
 91  4 24 22  3 45.0000000  0  4G11G19G 2G 6
  24210628.8204    2694525.23645   2099639.12561
  21961138.477     5849607.907 6   4558125.96922
  20829243.500   -14455483.800 8 -11227933.75823
  21966640.727   -12847046.197 6  -9576169.73921
 91  4 24 22  4  0.0000000  0  4G11G19G 2G 6
  24218253.2814    2734598.68045   2130865.17461
  21966121.945     5875774.719 6   4578515.64422
  20827725.711   -14463465.166 8 -11234152.97723
  21961405.680   -12874577.530 6  -9597622.67221
 91  4 24 22  4 15.0000000  0  4G11G19G 2G 6
  24225896.922     2774769.049 5   2162166.76021
  21971109.008     5902004.522 6   4598954.40522
  20826219.188   -14471379.433 8 -11240319.91823
  21956168.344   -12902091.091 6  -9619061.75221
 91  4 24 22  4 30.0000000  0  4G11G19G 2G 6
  24233556.297     2815031.090 5   2193539.80121
  21976112.156     5928292.561 6   4619438.54422
  20824724.727   -14479231.371 7 -11246438.28923
  21950937.641   -12929591.576 6  -9640490.65421
 91  4 24 22  4 45.0000000  0  4G11G19G 2G 6
  24241237.602     2855386.894 5   2224985.85721
  21981123.9224    5954641.15646   4639969.86062
  20823242.281   -14487018.682 7 -11252506.30223
  21945705.8594  -12957076.48646  -9661907.42961
 91  4 24 22  5  0.0000000  0  4G11G19G 2G 6
  24248939.086     2895842.381 5   2256509.64021
  21986158.0474    5981056.45446   4660553.16562
  20821772.734   -14494735.207 7 -11258519.16223
  21940476.117   -12984539.420 6  -9683307.07621
 91  4 24 22  5 15.0000000  0  4G11G19G 2G 6
  24256654.8204    2936392.81246   2288107.37461
  21991193.148     6007534.248 6   4681185.16022
  20820319.055   -14502385.312 7 -11264480.26523
  21935254.500   -13011984.658 6  -9704692.93421
 91  4 24 22  5 30.0000000  0  4G11G19G 2G 6
  24264383.6564    2977034.95145   2319776.57361
  21996247.7734    6034071.73946   4701863.67462
  20818874.820   -14509971.973 7 -11270391.92523
  21930035.406   -13039414.860 6  -9726067.06921
 91  4 24 22  5 45.0000000  0  4G11G19G 2G 6
  24272141.6724    3017775.90746   2351522.77761
  22001300.1804    6060676.29646   4722594.43762
  20817445.055   -14517487.811 8 -11276248.39723
  21924822.719   -13066822.551 6  -9747423.65721
 91  4 24 22  6  0.0000000  0  4G11G19G 2G 6
  24279909.9924    3058610.20845   2383341.71461
  22006383.750     6087342.881 6   4743373.54222
  20816028.031   -14524938.076 8 -11282053.77723
  21919605.523   -13094212.706 6  -9768766.58821
 91  4 24 22  6 15.0000000  0  4G11G19G 2G 6
  24287699.0944    3099536.41645   2415232.25861
  22011468.461     6114070.339 6   4764200.08422
  20814623.117   -14532323.986 8 -11287809.01423
  21914398.227   -13121586.386 6  -9790096.68021
 91  4 24 22  6 30.0000000  0  4G11G19G 2G 6
  24295504.6254    3140556.32945   2447195.80361
  22016570.2424    6140860.72746   4785075.65262
  20813228.188   -14539643.507 8 -11293512.51023
  21909192.8284  -13148941.26446  -9811412.11761
 91  4 24 22  6 45.0000000  0  4G11G19G 2G 6
  24303327.375     3181666.265 5   2479229.53021
  22021673.242     6167710.677 6   4805997.62922
  20811848.859   -14546900.190 8 -11299167.04823
  21903988.656   -13176280.765 6  -9832715.57621
 91  4 24 22  7  0.0000000  0  4G11G19G 2G 6
  24311167.8754    3222868.65845   2511335.28861
  22026798.3594    6194623.11846   4826968.32062
  20810479.914   -14554091.283 8 -11304770.47423
  21898793.938   -13203601.627 6  -9854004.50821
 91  4 24 22  7 15.0000000  0  4G11G19G 2G 6
  24319025.0784    3264165.03445   2543514.28461
  22031925.141     6221600.027 6   4847989.24222
  20809122.6564  -14561214.98348 -11310321.38563
  21893600.094   -13230902.142 6  -9875277.59121
 91  4 24 22  7 30.0000000  0  4G11G19G 2G 6
  24326901.156     3305556.502 5   2575767.38021
  22037077.602     6248642.830 6   4869061.50222
  20807780.813   -14568269.723 8 -11315818.56723
  21888401.578   -13258180.594 6  -9896533.46521
 91  4 24 22  7 45.0000000  0  4G11G19G 2G 6
  24334796.195     3347038.909 5   2608091.31421
  22042229.2424    6275747.70846   4890182.11962
  20806451.211   -14575259.455 8 -11321265.09223
  21883215.063   -13285440.649 6  -9917775.01021
 91  4 24 22  8  0.0000000  0  4G11G19G 2G 6
  24342706.8204    3388609.53145   2640484.00561
  22047408.2194    6302912.31146   4911349.28362
  20805132.133   -14582186.753 7 -11326662.96723
  21878032.234   -13312684.455 6  -9939003.90621
 91  4 24 22  8 15.0000000  0  4G11G19G 2G 6
  24350634.3204    3430270.44645   2672947.04861
  22052586.047     6330139.223 6   4932565.01422
  20803826.477   -14589049.273 7 -11332010.36323
  21872856.7734  -13339909.58946  -9960218.24061
 91  4 24 22  8 30.0000000  0  4G11G19G 2G 6
  24358580.008     3472021.638 5   2705480.51621
  22057779.672     6357428.615 6   4953829.42022
  20802533.109   -14595846.625 7 -11337306.98523
  21867674.391   -13367115.534 6  -9981417.63221
 91  4 24 22  8 45.0000000  0  4G11G19G 2G 6
  24366542.4694    3513866.28145   2738086.74161
  22062980.4384    6384784.16746   4975145.37862
  20801252.281   -14602575.598 8 -11342550.31923
  21862500.586   -13394298.636 6 -10002599.22021
 91  4 24 22  9  0.0000000  0  4G11G19G 2G 6
  24374522.195     3555796.963 5   2770760.00321
  22068204.1804    6412198.72846   4996507.31061
  20799984.547   -14609243.241 7 -11347745.86423
  21857331.945   -13421465.892 6 -10023768.45621
 91  4 24 22  9 15.0000000  0  4G11G19G 2G 6
  24382516.625     3597817.218 5   2803503.06621
  22073423.8524    6439676.08346   5017918.17762
  20798728.656   -14615845.907 8 -11352890.77923
  21852168.758   -13448613.361 6 -10044922.27021
 91  4 24 22  9 30.0000000  0  4G11G19G 2G 6
  24390531.0164    3639928.29445   2836316.88661
  22078669.547     6467218.024 6   5039379.37722
  20797484.922   -14622381.866 8 -11357983.71023
  21847004.750   -13475739.169 6 -10066059.20821
 91  4 24 22  9 45.0000000  0  4G11G19G 2G 6
  24398560.6024    3682128.18545   2869199.91461
  22083920.8984    6494822.78146   5060889.52562
  20796252.7664  -14628852.90748 -11363026.05463
  21841850.0554  -13502844.96346 -10087180.55061
 91  4 24 22 10  0.0000000  0  4G11G19G 2G 6
  24406606.836     3724416.875 5   2902152.15421
  22089186.227     6522490.884 6   5082449.02922
  20795032.1334  -14635258.61648 -11368017.48663
  21836691.1334  -13529930.11646 -10108285.80261
 91  4 24 22 10 15.0000000  0  4G11G19G 2G 6
  24414670.0474    3766790.09445   2935170.25061
  22094461.0394    6550218.37646   5104054.81361
  20793826.422   -14641603.069 8 -11372961.19223
  21831541.4614  -13556998.43446 -10129377.93761
 91  4 24 22 10 30.0000000  0  4G11G19G 2G 6
  24422751.641     3809254.312 5   2968259.31121
  22099752.266     6578011.993 6   5125712.11622
  20792631.180   -14647879.674 8 -11377852.03223
  21826394.1094  -13584042.93346 -10150451.51461
 91  4 24 22 10 45.0000000  0  4G11G19G 2G 6
  24430850.227     3851807.148 5   3001417.38021
  22105050.0704    6605869.64746   5147419.32162
  20791450.2194  -14654090.68048 -11382691.75163
  21821250.367   -13611065.723 6 -10171508.18421
 91  4 24 22 11  0.0000000  0  4G11G19G 2G 6
  24438963.953     3894450.964 5   3034646.34221
  22110370.414     6633794.125 6   5169178.60122
  20790280.727   -14660233.337 8 -11387478.21123
  21816115.9144  -13638063.76246 -10192545.55961
 91  4 24 22 11 15.0000000  0  4G11G19G 2G 6
  24447095.7114    3937179.67845   3067941.50161
  22115688.8914    6661779.61046   5190985.41362
  20789122.492   -14666313.402 8 -11392215.90323
  21810982.3914  -13665042.80746 -10213568.12161
 91  4 24 22 11 30.0000000  0  4G11G19G 2G 6
  24455243.820     3979993.858 5   3101303.18821
  22121034.406     6689827.215 6   5212840.64422
  20787978.2894  -14672329.99048 -11396904.12763
  21805853.273   -13692001.628 6 -10234574.93821
 91  4 24 22 11 45.0000000  0  4G11G19G 2G 6
  24463409.5004    4022896.32445   3134733.69561
  22126380.398     6717940.046 6   5234746.69322
  20786846.961   -14678280.123 8 -11401540.56623
  21800724.2974  -13718936.93946 -10255563.43461
 91  4 24 22 12  0.0000000  0  4G11G19G 2G 6
  24471590.188     4065887.611 5   3168233.43621
  22131742.742     6746119.029 6   5256704.29822
  20785726.3444  -14684163.04647 -11406124.63463
  21795604.797   -13745847.873 6 -10276532.93721
 91  4 24 22 12 15.0000000  0  4G11G19G 2G 6
  24479786.820     4108964.481 6   3201799.86621
  22137115.0474    6774361.41746   5278711.28961
  20784618.266   -14689981.582 8 -11410658.53523
  21790487.547   -13772736.929 6 -10297485.39121
 91  4 24 22 12 30.0000000  0  4G11G19G 2G 6
  24487999.0554    4152130.45845   3235435.68061
  22142504.6254    6802671.02846   5300770.67262
  20783525.8984  -14695731.89948 -11415139.27763
  21785373.258   -13799600.045 6 -10318417.63721
 91  4 24 22 12 45.0000000  0  4G11G19G 2G 6
  24496229.9694    4195381.90245   3269138.12961
  22147907.8364    6831044.45746   5322879.78462
  20782445.0004  -14701417.45248 -11419569.54963
  21780268.0004  -13826440.58646 -10339332.28361
 91  4 24 22 13  0.0000000  0  4G11G19G 2G 6
  24504480.602     4238718.825 6   3302907.20121
  22153316.1334    6859482.32746   5345039.09961
  20781373.789   -14707037.865 8 -11423949.06323
  21775163.4774  -13853257.97646 -10360228.88561
 91  4 24 22 13 15.0000000  0  3G19G 2G 6
  22158735.6954    6887983.47146   5367247.72261
  20780316.8674  -14712594.29747 -11428278.72863
  21770063.9534  -13880053.11546 -10381108.15761
 91  4 24 22 13 30.0000000  0  3G19G 2G 6
  22164176.375     6916549.367 6   5389506.81121
  20779271.5234  -14718085.37947 -11432557.45863
  21764973.117   -13906824.358 6 -10401968.81021
 91  4 24 22 13 45.0000000  0  3G19G 2G 6
  22169619.4304    6945183.91046   5411819.38362
  20778239.3284  -14723507.32747 -11436782.32663
  21759883.617   -13933567.729 6 -10422807.75921
 91  4 24 22 14  0.0000000  0  3G19G 2G 6
  22175085.469     6973883.403 6   5434182.56622
  20777219.7114  -14728863.90847 -11440956.25463
  21754798.742   -13960286.742 6 -10443627.71121
 91  4 24 22 14 15.0000000  0  3G19G 2G 6
  22180556.0944    7002649.93646   5456597.99362
  20776212.8834  -14734153.15347 -11445077.71563
  21749717.086   -13986979.170 6 -10464426.96021
 91  4 24 22 14 30.0000000  0  3G19G 2G 6
  22186048.727     7031483.457 6   5479065.60522
  20775219.2194  -14739375.27547 -11449146.87063
  21744641.297   -14013644.972 6 -10485205.45421
 91  4 24 22 14 45.0000000  0  3G19G 2G 6
  22191544.6024    7060384.48646   5501585.82762
  20774239.4454  -14744529.69147 -11453163.27463
  21739574.8594  -14040283.35847 -10505962.57161
 91  4 24 22 15  0.0000000  0  3G19G 2G 6
  22197058.0554    7089351.35146   5524157.34762
  20773270.750   -14749618.250 7 -11457128.35923
  21734510.2194  -14066895.95747 -10526699.62061
 91  4 24 22 15 15.0000000  0  3G19G 2G 6
  22202583.2814    7118384.64946   5546780.63462
  20772314.6724  -14754640.50647 -11461041.77363
  21729450.820   -14093482.054 7 -10547416.01721
 91  4 24 22 15 30.0000000  0  3G19G 2G 6
  22208121.031     7147485.314 6   5569456.42321
  20771372.8284  -14759595.53047 -11464902.79763
  21724399.695   -14120040.522 7 -10568110.88121
 91  4 24 22 15 45.0000000  0  3G19G 2G 6
  22213672.6724    7176651.44946   5592183.23062
  20770441.3984  -14764485.36847 -11468713.03363
  21719349.328   -14146573.108 7 -10588785.57321
 91  4 24 22 16  0.0000000  0  3G19G 2G 6
  22219239.8364    7205882.15246   5614960.33462
  20769523.0084  -14769311.00547 -11472473.24663
  21714304.852   -14173080.513 7 -10609440.64321
 91  4 24 22 16 15.0000000  0  3G19G 2G 6
  22224810.1804    7235176.32046   5637786.89962
  20768616.5004  -14774073.53447 -11476184.27963
  21709262.484   -14199563.595 7 -10630076.76321
 91  4 24 22 16 30.0000000  0  3G19G 2G 6
  22230401.0314    7264537.80746   5660665.91462
  20767724.4304  -14778769.44647 -11479843.40063
  21704233.680   -14226018.689 7 -10650691.08221
 91  4 24 22 16 45.0000000  0  3G19G 2G 6
  22235993.6334    7293966.37746   5683597.20561
  20766842.008   -14783398.892 7 -11483450.73723
  21699200.445   -14252445.694 7 -10671283.50721
 91  4 24 22 17  0.0000000  0  3G19G 2G 6
  22241607.5394    7323460.87446   5706579.87461
  20765974.813   -14787963.192 7 -11487007.30823
  21694175.922   -14278845.719 7 -10691854.91222
 91  4 24 22 17 15.0000000  0  3G19G 2G 6
  22247233.3984    7353023.37146   5729615.51661
  20765119.0004  -14792460.34147 -11490511.55063
  21689158.031   -14305216.354 7 -10712403.41121
 91  4 24 22 17 30.0000000  0  3G19G 2G 6
  22252872.688     7382648.183 6   5752699.73221
  20764273.5784  -14796895.86847 -11493967.77563
  21684146.648   -14331563.109 7 -10732933.30822
 91  4 24 22 17 45.0000000  0  3G19G 2G 6
  22258519.1094    7412342.67646   5775838.23661
  20763445.430   -14801262.779 7 -11497370.53923
  21679140.672   -14357878.769 7 -10753438.97122
 91  4 24 22 18  0.0000000  0  3G19G 2G 6
  22264187.4064    7442100.85346   5799026.36961
  20762623.0944  -14805567.19647 -11500724.60163
  21674134.820   -14384168.943 7 -10773924.77622
 91  4 24 22 18 15.0000000  0  3G19G 2G 6
  22269859.1254    7471924.27946   5822265.34261
  20761815.719   -14809807.758 7 -11504028.91223
  21669137.344   -14410432.101 7 -10794389.52322
 91  4 24 22 18 30.0000000  0  3G19G 2G 6
  22275550.664     7501815.208 6   5845556.91921
  20761021.344   -14813981.938 7 -11507281.49523
  21664146.594   -14436665.610 7 -10814831.17922
 91  4 24 22 18 45.0000000  0  3G19G 2G 6
  22281249.3204    7531772.72846   5868900.38261
  20760241.305   -14818090.726 7 -11510483.13123
  21659160.836   -14462870.303 7 -10835250.36822
 91  4 24 22 19  0.0000000  0  3G19G 2G 6
  22286969.805     7561799.335 5   5892297.68021
  20759472.570   -14822132.033 7 -11513632.17623
  21654177.977   -14489043.562 7 -10855645.07122
 91  4 24 22 19 15.0000000  0  3G19G 2G 6
  22292686.6884    7591891.05646   5915745.70461
  20758714.977   -14826109.810 7 -11516731.71523
  21649202.313   -14515189.158 7 -10876018.21122
 91  4 24 22 19 30.0000000  0  3G19G 2G 6
  22298434.898     7622048.337 6   5939244.83321
  20757971.750   -14830023.507 7 -11519781.33123
  21644230.484   -14541306.567 7 -10896369.39722
 91  4 24 22 19 45.0000000  0  3G19G 2G 6
  22304178.2194    7652274.52946   5962797.63961
  20757238.570   -14833870.105 7 -11522778.65323
  21639269.117   -14567392.237 7 -10916695.84422
 91  4 24 22 20  0.0000000  0  3G19G 2G 6
  22309946.4694    7682568.14846   5986402.99661
  20756519.383   -14837651.165 7 -11525724.91523
  21634310.297   -14593447.509 7 -10936998.60822
 91  4 24 22 20 15.0000000  0  3G19G 2G 6
  22315720.7504    7712927.22546   6010059.35961
  20755812.242   -14841368.610 7 -11528621.60723
  21629357.328   -14619474.089 7 -10957279.01822
 91  4 24 22 20 30.0000000  0  3G19G 2G 6
  22321517.6024    7743357.29146   6033771.03562
  20755117.070   -14845016.836 7 -11531464.36023
  21624411.320   -14645466.224 7 -10977532.57922
 91  4 24 22 20 45.0000000  0  3G19G 2G 6
  22327315.8364    7773856.85946   6057536.86761
  20754436.695   -14848597.504 7 -11534254.47823
  21619473.211   -14671425.219 7 -10997760.32122
 91  4 24 22 21  0.0000000  0  3G19G 2G 6
  22333135.6954    7804422.39646   6081354.10561
  20753765.242   -14852114.218 7 -11536994.74823
  21614535.2814  -14697354.55247 -11017964.94062
 91  4 24 22 21 15.0000000  0  3G19G 2G 6
  22338961.9614    7835054.52746   6105223.22061
  20753108.758   -14855566.627 7 -11539684.92223
  21609607.766   -14723253.618 7 -11038145.97922
 91  4 24 22 21 30.0000000  0  3G19G 2G 6
  22344803.1644    7865752.95446   6129144.01261
  20752464.031   -14858955.088 7 -11542325.25923
  21604688.852   -14749122.347 7 -11058303.38022
 91  4 24 22 21 45.0000000  0  3G19G 2G 6
  22350659.9844    7896521.03546   6153119.08461
  20751831.906   -14862276.286 7 -11544913.18623
  21599768.4924  -14774957.22447 -11078434.39862
 91  4 24 22 22  0.0000000  0  3G19G 2G 6
  22356526.0394    7927355.92546   6177146.20661
  20751213.313   -14865533.107 8 -11547450.95323
  21594862.617   -14800761.012 7 -11098541.19522
 91  4 24 22 22 15.0000000  0  3G19G 2G 6
  22362409.086     7958255.393 6   6201223.64321
  20750603.930   -14868727.856 7 -11549940.34623
  21589955.141   -14826535.619 7 -11118625.25722
 91  4 24 22 22 30.0000000  0  3G19G 2G 6
  22368299.453     7989221.806 6   6225353.23921
  20750009.852   -14871858.186 8 -11552379.55023
  21585054.688   -14852278.500 7 -11138684.59322
 91  4 24 22 22 45.0000000  0  3G19G 2G 6
  22374200.4384    8020250.55846   6249531.42561
  20749424.242   -14874928.938 8 -11554772.32023
  21580159.391   -14877994.121 7 -11158722.69122
 91  4 24 22 23  0.0000000  0  3G19G 2G 6
  22380122.4534    8051347.74046   6273762.92561
  20748853.297   -14877933.869 8 -11557113.81023
  21575278.258   -14903676.182 7 -11178734.63422
 91  4 24 22 23 15.0000000  0  3G19G 2G 6
  22386049.344     8082509.547 6   6298044.78921
  20748295.289   -14880876.843 8 -11559407.01623
  21570394.547   -14929328.302 6 -11198723.24622
 91  4 24 22 23 30.0000000  0  3G19G 2G 6
  22391992.6954    8113737.42246   6322378.12661
  20747745.602   -14883756.620 8 -11561650.97823
  21565517.008   -14954948.927 6 -11218687.31622
 91  4 24 22 23 45.0000000  0  3G19G 2G 6
  22397947.8594    8145030.31446   6346762.13361
  20747209.328   -14886574.404 8 -11563846.64123
  21560647.3674  -14980538.96946 -11238627.54962
 91  4 24 22 24  0.0000000  0  3G19G 2G 6
  22403918.4694    8176390.68146   6371198.72261
  20746685.156   -14889327.846 8 -11565992.15723
  21555785.2974  -15006095.86946 -11258541.96062
 91  4 24 22 24 15.0000000  0  3G19G 2G 6
  22409894.2344    8207816.54046   6395686.33961
  20746170.914   -14892019.192 8 -11568089.29823
  21550926.406   -15031621.476 6 -11278431.99522
 91  4 24 22 24 30.0000000  0  3G19G 2G 6
  22415892.2194    8239307.64046   6420224.79661
  20745672.258   -14894648.527 8 -11570138.11223
  21546074.4384  -15057115.60446 -11298297.48562
 91  4 24 22 24 45.0000000  0  3G19G 2G 6
  22421892.1334    8270866.09646   6444815.72861
  20745183.0634  -14897213.89148 -11572137.08363
  21541234.758   -15082576.112 6 -11318136.79622
 91  4 24 22 25  0.0000000  0  3G19G 2G 6
  22427911.828     8302490.734 6   6469458.23221
  20744709.992   -14899716.562 8 -11574087.20623
  21536390.5864  -15108003.90746 -11337950.59362
 91  4 24 22 25 15.0000000  0  3G19G 2G 6
  22433940.3594    8334179.17846   6494150.46561
  20744242.359   -14902158.975 8 -11575990.36623
  21531559.445   -15133401.245 6 -11357740.66222
 91  4 24 22 25 30.0000000  0  3G19G 2G 6
  22439986.8444    8365927.98245   6518889.72461
  20743788.336   -14904544.390 8 -11577849.11423
  21526733.945   -15158771.315 7 -11377509.49922
 91  4 24 22 25 45.0000000  0  3G19G 2G 6
  22446035.656     8397740.900 6   6543678.94521
  20743346.594   -14906869.302 8 -11579660.72123
  21521910.6094  -15184110.22247 -11397254.04762
 91  4 24 22 26  0.0000000  0  3G19G 2G 6
  22452102.555     8429620.769 5   6568520.32321
  20742918.125   -14909130.716 8 -11581422.85023
  21517094.164   -15209414.596 7 -11416971.69322
 91  4 24 22 26 15.0000000  0  3G19G 2G 6
  22458183.4694    8461566.31346   6593412.89461
  20742497.789   -14911330.164 8 -11583136.68823
  21512285.984   -15234685.818 7 -11436663.50322
 91  4 24 22 26 30.0000000  0  3G19G 2G 6
  22464277.945     8493574.593 6   6618354.33821
  20742088.6644  -14913470.80747 -11584804.71063
  21507481.844   -15259926.678 7 -11456331.66022
 91  4 24 22 26 45.0000000  0  3G19G 2G 6
  22470376.5864    8525650.18246   6643348.22961
  20741694.7274  -14915547.99848 -11586423.29263
  21502687.430   -15285132.448 7 -11475972.46822
 91  4 24 22 27  0.0000000  0  3G19G 2G 6
  22476496.6254    8557798.06245   6668398.45761
  20741313.195   -14917556.955 7 -11587988.69723
  21497900.344   -15310298.049 7 -11495581.97422
 91  4 24 22 27 15.0000000  0  4G13G19G 2G 6
  24005677.3834         -0.43954
  22482625.953     8590011.971 6   6693500.12621
  20740942.8594  -14919503.99647 -11589505.85463
  21493116.5314  -15335429.30147 -11515164.72762
 91  4 24 22 27 30.0000000  0  4G13G19G 2G 6
  23994212.8984     -60243.10144
  22488770.719     8622289.221 6   6718651.14821
  20740581.648   -14921391.774 7 -11590976.83923
  21488336.977   -15360528.733 7 -11534722.67922
 91  4 24 22 27 45.0000000  0  4G13G19G 2G 6
  23982748.1644    -120459.35843
  22494922.8524    8654631.70246   6743853.01461
  20740235.828   -14923218.503 8 -11592400.25723
  21483568.0314  -15385594.27047 -11554254.22662
 91  4 24 22 28  0.0000000  0  4G13G19G 2G 6
  23971296.781     -180651.441 4
  22501091.2194    8687036.85646   6769103.72161
  20739898.961   -14924986.517 7 -11593777.91023
  21478805.656   -15410628.237 7 -11573761.17122
 91  4 24 22 28 15.0000000  0  4G13G19G 2G 6
  23959853.258     -240818.882 4        -0.35631
  22507267.7114    8719504.79646   6794403.34861
  20739573.1954  -14926695.85348 -11595109.85163
  21474046.055   -15435630.369 7 -11593243.29422
 91  4 24 22 28 30.0000000  0  4G13G19G 2G 6
  23948408.219     -300960.193 4    -46863.27721
  22513466.031     8752036.379 5   6819752.56221
  20739260.055   -14928345.820 8 -11596395.52323
  21469295.7114  -15460599.49447 -11612699.71462
 91  4 24 22 28 45.0000000  0  4G13G19G 2G 6
  23936963.1884    -361076.02444    -93706.37261
  22519662.484     8784631.054 6   6845150.93521
  20738956.656   -14929937.345 8 -11597635.65523
  21464548.516   -15485536.061 7 -11632130.76322
 91  4 24 22 29  0.0000000  0  4G13G19G 2G 6
  23925531.672     -421161.323 4   -140525.68121
  22525882.3674    8817293.23846   6870601.91961
  20738666.313   -14931465.862 8 -11598826.69023
  21459813.492   -15510435.604 7 -11651532.95822
 91  4 24 22 29 15.0000000  0  4G13G19G 2G 6
  23914095.9384    -481220.77244   -187324.84261
  22532104.289     8850017.710 6   6896101.42821
  20738386.508   -14932936.624 8 -11599972.72323
  21455079.320   -15535303.200 7 -11670910.25522
 91  4 24 22 29 30.0000000  0  4G13G19G 2G 6
  23902665.367     -541249.629 3   -234100.17121
  22538347.836     8882809.034 6   6921653.03721
  20738118.813   -14934345.141 8 -11601070.24923
  21450353.609   -15560133.656 7 -11690258.62322
 91  4 24 22 29 45.0000000  0  4G13G19G 2G 6
  23891252.094     -601247.826 4   -280851.60421
  22544598.227     8915666.581 6   6947256.24621
  20737861.7974  -14935692.00147 -11602119.73963
  21445636.992   -15584927.573 7 -11709578.51022
 91  4 24 22 30  0.0000000  0  4G13G19G 2G 6
  23879846.3284    -661213.64945   -327577.83061
  22550859.8524    8948591.78846   6972912.18061
  20737616.211   -14936976.042 7 -11603120.27923
  21440923.516   -15609683.541 7 -11728868.81822
 91  4 24 22 30 15.0000000  0  4G13G19G 2G 6
  23868437.9844    -721144.20244   -374276.55261
  22557138.141     8981587.241 6   6998622.85221
  20737384.789   -14938194.932 7 -11604070.04823
  21436222.766   -15634398.785 7 -11748127.41122
 91  4 24 22 30 30.0000000  0  4G13G19G 2G 6
  23857048.563     -781037.767 5   -420946.44121
  22563434.906     9014653.912 6   7024389.01221
  20737163.992   -14939347.484 7 -11604968.12323
  21431524.023   -15659071.907 7 -11767353.17622
 91  4 24 22 30 45.0000000  0  4G13G19G 2G 6
  23845652.1094    -840894.01245   -467587.25361
  22569735.219     9047791.763 6   7050210.63721
  20736959.7734  -14940433.69747 -11605814.51963
  21426842.117   -15683702.699 7 -11786545.95722
 91  4 24 22 31  0.0000000  0  4G13G19G 2G 6
  23834264.734     -900716.550 5   -514201.81721
  22576064.359     9080997.023 5   7076084.78321
  20736762.930   -14941457.448 7 -11606612.22623
  21422158.5864  -15708294.74847 -11805708.55262
 91  4 24 22 31 15.0000000  0  4G13G19G 2G 6
  23822893.945     -960504.841 5   -560789.72721
  22582387.203     9114269.833 6   7102011.57221
  20736580.859   -14942418.617 7 -11607361.17423
  21417487.477   -15732847.798 7 -11824840.75822
 91  4 24 22 31 30.0000000  0  4G13G19G 2G 6
  23811514.0084   -1020251.01144   -607344.72161
  22588742.7584    9147617.29846   7127996.54461
  20736413.344   -14943309.979 8 -11608055.72023
  21412824.289   -15757354.107 7 -11843936.53622
 91  4 24 22 31 45.0000000  0  4G13G19G 2G 6
  23800160.0864   -1079961.53945   -653872.02261
  22595092.031     9181032.747 6   7154034.46821
  20736252.914   -14944138.521 8 -11608701.32023
  21408168.3834  -15781820.43247 -11863001.16162
 91  4 24 22 32  0.0000000  0  4G13G19G 2G 6
  23788803.6724   -1139636.81845   -700371.82861
  22601469.930     9214515.517 5   7180124.86221
  20736107.992   -14944905.082 8 -11609298.62223
  21403520.3054  -15806247.49247 -11882035.20262
 91  4 24 22 32 15.0000000  0  4G13G19G 2G 6
  23777449.6884   -1199273.57744   -746841.63161
  22607850.547     9248068.606 6   7206270.05221
  20735975.922   -14945606.676 8 -11609845.30023
  21398878.5164  -15830631.98447 -11901036.06662
 91  4 24 22 32 30.0000000  0  4G13G19G 2G 6
  23766111.047    -1258871.026 4   -793280.75521
  22614245.438     9281692.230 5   7232470.19121
  20735852.680   -14946243.211 8 -11610341.29023
  21394248.2274  -15854973.33147 -11920003.31762
 91  4 24 22 32 45.0000000  0  4G13G19G 2G 6
  23754779.7424   -1318431.57545   -839691.18361
  22620660.531     9315383.665 6   7258723.17621
  20735745.352   -14946817.539 8 -11610788.79723
  21389623.4144  -15879274.07247 -11938938.92162
 91  4 24 22 33  0.0000000  0  4G13G19G 2G 6
  23743452.219    -1377947.598 5   -886066.90321
  22627092.039     9349150.145 5   7285034.63521
  20735649.242   -14947322.339 7 -11611182.13423
  21385009.9614  -15903526.71947 -11957837.05162
 91  4 24 22 33 15.0000000  0  4G13G19G 2G 6
  23732134.1884   -1437418.46645   -932407.42461
  22633525.031     9382991.835 6   7311404.70621
  20735566.016   -14947757.466 7 -11611521.17023
  21380399.8674  -15927730.92347 -11976697.44162
 91  4 24 22 33 30.0000000  0  4G13G19G 2G 6
  23720829.5164   -1496847.62345   -978715.41861
  22639982.4774    9416904.69946   7337830.22761
  20735496.492   -14948126.941 7 -11611809.05923
  21375804.4144  -15951890.60247 -11995523.13162
 91  4 24 22 33 45.0000000  0  4G13G19G 2G 6
  23709520.672    -1556240.241 4  -1024995.00121
  22646446.7344    9450882.94846   7364306.71261
  20735436.375   -14948436.546 8 -11612050.28823
  21371212.2034  -15976011.08847 -12014318.28162
 91  4 24 22 34  0.0000000  0  4G13G19G 2G 6
  23698230.7274   -1615588.86644  -1071240.25661
  22652929.961     9484933.949 5   7390839.87821
  20735392.625   -14948679.241 7 -11612239.38723
  21366634.7974  -16000084.83147 -12033077.00962
 91  4 24 22 34 15.0000000  0  5G13G15G19G 2G 6
  23686940.1644   -1674889.42044  -1117448.08561
  24189136.5784         -0.48155
  22659419.2194    9519061.29246   7417432.52061
  20735357.125   -14948851.346 7
  21362063.6644  -16024108.27247 -12051796.54662
 91  4 24 22 34 30.0000000  0  5G13G15G19G 2G 6
  23675659.773    -1734145.957 4  -1163621.63221
  24184868.9064     -22460.71245
  22665930.117     9553260.430 5   7444081.11921
  20735334.656   -14948957.475 7
  21357500.0474  -16048085.50247 -12070480.07262
 91  4 24 22 34 45.0000000  0  5G13G15G19G 2G 6
  23664403.9694   -1793360.53745  -1209762.43561
  24180610.8594     -44821.52845
  22672451.8674    9587529.00046   7470783.80561
  20735327.922   -14948999.912 8
  21352945.4454  -16072018.72147 -12089129.30062
 91  4 24 22 35  0.0000000  0  5G13G15G19G 2G 6
  23653141.586    -1852529.093 5  -1255867.42321
  24176376.4454     -67078.74045
  22678986.031     9621870.687 5   7497543.46921
  20735332.922   -14948975.140 8
  21348400.1804  -16095903.82747 -12107741.03662
 91  4 24 22 35 15.0000000  0  5G13G15G19G 2G 6
  23641892.289    -1911653.054 5  -1301937.63421
  24172161.695      -89234.017 5
  22685532.3834    9656283.53545   7524358.59661
  20735354.109   -14948885.175 8
  21343865.273   -16119742.765 7 -12126316.79022
 91  4 24 22 35 30.0000000  0  5G13G15G19G 2G 6
  23630646.0864   -1970731.59845  -1347972.48861
  24167960.602     -111286.924 5        -0.10431
  22692096.586     9690767.853 5   7551229.40221
  20735381.758   -14948729.817 7
  21339337.6334  -16143535.04047 -12144856.19362
 91  4 24 22 35 45.0000000  0  5G13G15G19G 2G 6
  23619414.2344   -2029765.03745  -1393972.18561
  24163782.961     -133237.898 5    -17104.68621
  22698671.172     9725322.931 5   7578155.35121
  20735422.7504  -14948509.65447
  21334817.9774  -16167280.98647 -12163359.49363
 91  4 24 22 36  0.0000000  0  5G13G15G19G 2G 6
  23608187.875    -2088749.437 5  -1439933.66421
  24159627.453     -155082.770 5    -34126.57721
  22705259.6804    9759952.51945   7605139.34361
  20735475.820   -14948221.105 7 -11611882.26223
  21330308.5944  -16190976.70147 -12181823.65563
 91  4 24 22 36 15.0000000  0  5G13G15G19G 2G 6
  23596970.1254   -2147687.07245  -1485858.69161
  24155487.7734    -176823.67645    -51067.48461
  22711859.0784    9794653.71945   7632179.15461
  20735544.047   -14947867.003 7 -11611606.32123
  21325808.2584  -16214624.83747 -12200250.73063
 91  4 24 22 36 30.0000000  0  5G13G15G19G 2G 6
  23585769.4304   -2206573.38845  -1531743.78061
  24151377.461     -198456.526 5    -67924.16421
  22718485.133     9829430.628 5   7659277.94821
  20735622.875   -14947443.504 7 -11611276.30623
  21321316.531   -16238221.065 7 -12218637.35723
 91  4 24 22 36 45.0000000  0  5G13G15G19G 2G 6
  23574566.4614   -2265410.72045  -1577590.65261
  24147279.0164    -219983.50245    -84698.34161
  22725112.3364    9864280.71045   7686433.76661
  20735719.281   -14946953.115 7 -11610894.16723
  21316839.3594  -16261767.65447 -12236985.31563
 91  4 24 22 37  0.0000000  0  5G13G15G19G 2G 6
  23563384.2344   -2324197.00845  -1623397.76461
  24143198.8674    -241402.49045   -101388.36861
  22731762.6174    9899205.47745   7713647.77061
  20735824.508   -14946394.427 7 -11610458.80923
  21312366.2814  -16285262.82347 -12255293.20563
 91  4 24 22 37 15.0000000  0  5G13G15G19G 2G 6
  23552202.9774   -2382931.00745  -1669164.15561
  24139141.9534    -262712.46045   -117993.41961
  22738418.102     9934205.629 5   7740920.53321
  20735943.570   -14945766.624 7 -11609969.59923
  21307905.8524  -16308705.50847 -12273560.19863
 91  4 24 22 37 30.0000000  0  5G13G15G19G 2G 6
  23541038.4144   -2441616.11245  -1714892.40561
  24135107.414     -283916.942 5   -134516.30121
  22745098.2114    9969277.40345   7768249.09261
  20736077.563   -14945073.438 7 -11609429.43223
  21303453.0554  -16332099.34647 -12291789.13463
 91  4 24 22 37 45.0000000  0  5G13G15G19G 2G 6
  23529883.1484   -2500246.36145  -1760577.97861
  24131094.203     -305009.875 5   -150952.22721
  22751783.7424   10004426.23246   7795637.69361
  20736220.844   -14944309.559 7 -11608834.18823
  21299013.2814  -16355438.55447 -12309975.49563
 91  4 24 22 38  0.0000000  0  5G13G15G19G 2G 6
  23518729.102    -2558824.387 5  -1806222.83821
  24127102.266     -325994.195 5   -167303.58021
  22758491.4304   10039649.35845   7823084.19961
  20736380.016   -14943477.979 7 -11608186.19323
  21294581.6884  -16378726.08347 -12328121.58863
 91  4 24 22 38 15.0000000  0  5G13G15G19G 2G 6
  23507597.5164   -2617344.21845  -1851822.28661
  24123135.5554    -346864.02145   -183565.67761
  22765202.3444   10074952.31645   7850592.90061
  20736551.016   -14942573.248 7 -11607481.19023
  21290159.6094  -16401956.00747 -12346222.79962
 91  4 24 22 38 30.0000000  0  5G13G15G19G 2G 6
  23496468.352    -2675808.498 5  -1897378.56221
  24119179.984     -367621.823 5   -199740.51221
  22771939.1174   10110332.06545   7878161.44061
  20736738.406   -14941598.245 7 -11606721.43423
  21285751.4614  -16425130.85647 -12364281.09162
 91  4 24 22 38 45.0000000  0  5G13G15G19G 2G 6
  23485354.4614   -2734212.04945  -1942887.45061
  24115254.8674    -388262.66945   -215824.19661
  22778683.953    10145793.167 5   7905793.38721
  20736936.828   -14940548.520 7 -11605903.45523
  21281350.4064  -16448246.08447 -12382292.93162
 91  4 24 22 39  0.0000000  0  5G13G15G19G 2G 6
  23474254.273    -2792559.800 5  -1988352.86921
  24111348.4844    -408791.68545   -231820.74761
  22785446.7034   10181330.27045   7933484.53861
  20737150.180   -14939429.480 7 -11605031.46423
  21276962.039   -16471306.640 7 -12400262.16722
 91  4 24 22 39 15.0000000  0  5G13G15G19G 2G 6
  23463162.086    -2850849.501 5  -2033773.04221
  24107460.477     -429206.542 5   -247728.32021
  22792222.4774   10216945.29445   7961236.41661
  20737375.492   -14938239.253 8 -11604104.00223
  21272587.8674  -16494310.33547 -12418187.09462
 91  4 24 22 39 30.0000000  0  5G13G15G19G 2G 6
  23452082.5394   -2909081.14445  -2079148.00461
  24103601.6414    -449507.30245   -263547.00661
  22799018.094    10252637.515 5   7989048.44221
  20737617.664   -14936978.362 8 -11603121.47423
  21268219.328   -16517257.671 7 -12436068.10322
 91  4 24 22 39 45.0000000  0  5G13G15G19G 2G 6
  23441008.2894   -2967252.76845  -2124476.15061
  24099761.8364    -469691.89245   -279275.15961
  22805822.008    10288408.744 5   8016922.03521
  20737871.625   -14935645.276 8 -11602082.69223
  21263864.2274  -16540146.65847 -12453903.64862
 91  4 24 22 40  0.0000000  0  5G13G15G19G 2G 6
  23429953.961    -3025360.199 5  -2169754.30421
  24095939.500     -489756.494 5   -294909.82821
  22812644.742    10324262.744 5   8044860.11521
  20738137.930   -14934236.546 8 -11600984.96723
  21259517.9304  -16562973.25447 -12471690.57062
 91  4 24 22 40 15.0000000  0  5G13G15G19G 2G 6
  23418904.633    -3083404.242 5  -2214983.07421
  24092143.2274    -509702.14545   -310451.82161
  22819482.3834   10360198.11645   8072861.61561
  20738421.664   -14932753.217 8 -11599829.11123
  21255187.578   -16585738.532 7 -12489429.70822
 91  4 24 22 40 30.0000000  0  5G13G15G19G 2G 6
  23407873.734    -3141384.281 5  -2260161.96921
  24088369.680     -529528.114 5   -325900.54721
  22826340.0234   10396215.25745   8100926.83061
  20738716.203   -14931195.075 8 -11598614.96023
  21250866.7034  -16608442.04447 -12507120.72562
 91  4 24 22 40 45.0000000  0  5G13G15G19G 2G 6
  23396850.570    -3199297.056 5  -2305288.46421
  24084617.508     -549231.063 5   -341253.42321
  22833207.539    10432317.060 5   8129058.02621
  20739029.969   -14929559.245 8 -11597340.27323
  21246559.5864  -16631080.58347 -12524761.10862
 91  4 24 22 41  0.0000000  0  4G13G15G19G 6
  23385842.234    -3257141.767 5  -2350361.90821
  24080895.7664    -568810.62645   -356510.12961
  22840100.242    10468503.712 5   8157255.33221
  21242263.3524  -16653653.67047 -12542350.48562
 91  4 24 22 41 15.0000000  0  5G13G15G19G 2G 6
  23374848.3284   -3314923.66245  -2395386.41661
  24077195.266     -588271.983 5   -371674.73621
  22846994.430    10504769.561 5   8185514.33821
  20739693.375          -0.99418
  21237979.9384  -16676166.66647 -12559893.03963
 91  4 24 22 41 30.0000000  0  5G13G15G19G 2G 6
  23363865.9384   -3372640.70645  -2440360.41561
  24073510.734     -607612.969 5   -386745.53821
  22853915.7504   10541116.27745   8213836.35661
  20740046.2114       1858.55347
  21233707.1174  -16698617.61647 -12577387.24663
 91  4 24 22 41 45.0000000  0  5G13G15G19G 2G 6
  23352893.2894   -3430293.88645  -2485284.59761
  24069855.7734    -626834.60445   -401723.35161
  22860844.2194   10577542.52845   8242220.34961
  20740415.6804       3790.48047        -0.15473
  21229448.3914  -16721007.62047 -12594833.96362
 91  4 24 22 42  0.0000000  0  5G13G15G19G 2G 6
  23341935.250    -3487879.136 5  -2530155.85521
  24066221.102     -645933.402 5   -416605.45421
  22867792.5554   10614051.66245   8270668.93061
  20740797.078        5798.503 7      1564.54923
  21225198.3984  -16743333.08347 -12612230.40363
 91  4 24 22 42 15.0000000  0  5G13G15G19G 2G 6
  23330985.7734   -3545394.88245  -2574972.98661
  24062611.945     -664907.813 5   -431390.62221
  22874756.7114   10650644.84445   8299183.00761
  20741195.9694       7883.50947      3189.23663
  21220964.0944  -16765592.55347 -12629575.41663
 91  4 24 22 42 30.0000000  0  5G13G15G19G 2G 6
  23320059.1724   -3602845.03645  -2619738.99761
  24059018.141     -683761.586 5   -446081.76621
  22881734.0944   10687317.98745   8327759.38761
  20741605.102       10041.080 8      4870.47323
  21216738.4144  -16787789.95747 -12646872.06063
 91  4 24 22 42 45.0000000  0  5G13G15G19G 2G 6
  23309135.469    -3660229.987 5  -2664454.21621
  24055460.5864    -702495.28445   -460679.39061
  22888729.4534   10724070.20645   8356397.38261
  20742029.7664      12270.47248      6607.66363
  21212523.9614  -16809925.75747 -12664120.70363
 91  4 24 22 43  0.0000000  0  5G13G15G19G 2G 6
  23298236.742    -3717545.483 5  -2709115.29221
  24051916.6484    -721104.70345   -475180.13161
  22895738.570    10760905.233 5   8385099.89521
  20742467.156       14575.355 8      8403.68923
  21208325.6954  -16831996.19147 -12681318.40663
 91  4 24 22 43 15.0000000  0  5G13G15G19G 2G 6
  23287336.8054   -3774793.65445  -2753723.94261
  24048397.539     -739592.274 5   -489585.95221
  22902758.7034   10797820.48245   8413864.93161
  20742921.0944      16953.15848     10256.53363
  21204138.3834  -16854003.51447 -12698466.93463
 91  4 24 22 43 30.0000000  0  5G13G15G19G 2G 6
  23276460.7424   -3831973.73745  -2798279.47161
  24044902.6804    -757957.40645   -503896.35661
  22909802.898    10834816.175 5   8442692.64021
  20743385.9694      19404.02747     12166.30163
  21199964.6254  -16875947.20347 -12715565.88563
 91  4 24 22 43 45.0000000  0  5G13G15G19G 2G 6
  23265585.6954   -3889084.98445  -2842781.42561
  24041431.4454    -776199.02445   -518110.54261
  22916855.1254   10871893.03045   8471583.61061
  20743867.844       21928.843 8     14133.70123
  21195799.4064  -16897826.23047 -12732614.43663
 91  4 24 22 44  0.0000000  0  5G13G15G19G 2G 6
  23254730.6024   -3946125.75545  -2887228.45261
  24037980.727     -794315.493 5   -532227.20221
  22923933.500    10909052.087 5   8500538.61621
  20744361.7504      24528.68148     16159.55263
  21191648.7664  -16919639.24647 -12749611.55663
 91  4 24 22 44 15.0000000  0  5G13G15G19G 2G 6
  23243889.430    -4003093.429 5  -2931618.48921
  24034561.9614    -812304.55045   -546244.57161
  22931015.7504   10946295.29545   8529559.19261
  20744870.9454      27205.36948     18245.28663
  21187511.695   -16941384.054 7 -12766555.51323
 91  4 24 22 44 30.0000000  0  5G13G15G19G 2G 6
  23233067.2894   -4059992.02945  -2975954.74361
  24031157.930     -830170.372 5   -560165.90921
  22938122.4384   10983618.22245   8558641.89361
  20745394.8524      29954.56048     20387.51863
  21183381.039   -16963064.653 7 -12783449.44522
 91  4 24 22 44 45.0000000  0  5G13G15G19G 2G 6
  23222244.984    -4116823.332 5  -3020238.55921
  24027780.1564    -847914.84545   -573992.67361
  22945236.508    11021018.740 5   8587785.04421
  20745930.1484      32773.68348     22584.24163
  21179271.7034  -16984683.20447 -12800295.03462
 91  4 24 22 45  0.0000000  0  5G13G15G19G 2G 6
  23211444.4224   -4173586.04845  -3064468.91561
  24024427.5004    -865536.82645   -587724.02161
  22952371.641    11058497.649 5   8616989.28621
  20746479.734       35663.609 8     24836.14923
  21175169.6024  -17006238.49947 -12817091.33162
 91  4 24 22 45 15.0000000  0  5G13G15G19G 2G 6
  23200655.0164   -4230283.37845  -3108648.33261
  24021101.055     -883039.420 5   -601362.31521
  22959514.5314   11096051.39345   8646251.85161
  20747043.1804      38620.88448     27140.52663
  21171077.4064  -17027733.78747 -12833840.86362
 91  4 24 22 45 30.0000000  0  5G13G15G19G 2G 6
  23189881.313    -4286913.963 5  -3152775.73521
  24017791.5394    -900421.35445   -614906.57961
  22966679.8914   11133680.81445   8675573.37961
  20747619.680       41646.424 8     29498.10323
  21166997.1334  -17049168.03147 -12850542.83962
 91  4 24 22 45 45.0000000  0  5G13G15G19G 2G 6
  23179120.016    -4343475.489 5  -3196849.30821
  24014507.1644    -917680.54545   -628355.23361
  22973847.133    11171387.754 5   8704955.30121
  20748209.2894      44742.03248
  21162933.2894  -17070539.11547 -12867195.59162
 91  4 24 22 46  0.0000000  0  4G13G15G19G 6
  23168369.195    -4399968.204 5  -3240869.28321
  24011248.453     -934817.312 5   -641708.48521
  22981038.680    11209171.619 5   8734397.16921
  21158877.3594  -17091847.29947 -12883799.34262
 91  4 24 22 46 15.0000000  0  5G13G15G19G 2G 6
  23157626.750    -4456395.956 5  -3284838.65721
  24008008.2114    -951835.86045   -654969.63361
  22988243.820    11247028.201 5   8763895.70221
  20749425.516          -0.89918
  21154834.477   -17113096.656 7 -12900357.25422
 91  4 24 22 46 30.0000000  0  5G13G15G19G 2G 6
  23146901.328    -4512758.524 5  -3328757.23521
  24004793.328     -968735.634 5   -668138.20621
  22995458.9144   11284957.14445   8793450.60861
  20750052.656        3294.003 8
  21150803.4304  -17134287.09847 -12916869.25262
 91  4 24 22 46 45.0000000  0  5G13G15G19G 2G 6
  23136190.266    -4569056.301 5  -3372625.28621
  24001595.875     -985517.229 5   -681214.72221
  23002691.4844   11322957.82845   8823061.41261
  20750692.9304       6652.93948        -0.22073
  21146779.5474  -17155419.01947 -12933335.64362
 91  4 24 22 47  0.0000000  0  5G13G15G19G 2G 6
  23125490.742    -4625286.895 5  -3416441.02821
  23998425.3444   -1002178.60145   -694197.52261
  23009941.1884   11361031.85845   8852729.36561
  20751342.977       10077.721 8      2668.44923
  21142769.8594  -17176490.57247 -12949755.00663
 91  4 24 22 47 15.0000000  0  5G13G15G19G 2G 6
  23114798.453    -4681450.535 5  -3460204.60121
  23995280.305    -1018719.909 5   -707086.77021
  23017199.695    11399178.916 5   8882454.25321
  20752007.633       13567.684 8      5387.91123
  21138772.3674  -17197501.89247 -12966127.42263
 91  4 24 22 47 30.0000000  0  5G13G15G19G 2G 6
  23104127.656    -4737550.747 5  -3503918.74521
  23992153.484    -1035144.649 5   -719885.18421
  23024472.797    11437394.973 5   8912232.88921
  20752681.9924      17118.92347      8155.11863
  21134784.1564  -17218456.68747 -12982455.79963
 91  4 24 22 47 45.0000000  0  5G13G15G19G 2G 6
  23093461.602    -4793587.039 5  -3547583.04321
  23989052.109    -1051452.725 5   -732592.68921
  23031756.391    11475679.746 5   8942065.07621
  20753371.5234      20731.26448     10969.93463
  21130808.2974  -17239354.70547 -12998739.92563
 91  4 24 22 48  0.0000000  0  5G13G15G19G 2G 6
  23082816.1804   -4849554.89345  -3591194.05761
  23985971.8364   -1067639.78646   -745205.92861
  23039054.8914   11514037.53545   8971954.15361
  20754070.6644      24408.80048     13835.55363
  21126842.445   -17260191.609 7 -13014976.43223
 91  4 24 22 48 15.0000000  0  5G13G15G19G 2G 6
  23072172.1174   -4905459.78745  -3634756.00861
  23982913.383    -1083711.287 5   -757729.11421
  23046364.289    11552462.543 5   9001895.61321
  20754782.2504      28145.79747     16747.50263
  21122885.9534  -17280972.90047 -13031169.60463
 91  4 24 22 48 30.0000000  0  5G13G15G19G 2G 6
  23061550.516    -4961300.755 5  -3678268.14521
  23979877.391    -1099666.344 5   -770161.55621
  23053699.836    11590955.242 5   9031889.81521
  20755503.8984      31942.76448     19706.18463
  21118942.758   -17301697.813 7 -13047318.84223
 91  4 24 22 48 45.0000000  0  5G13G15G19G 2G 6
  23050927.336    -5017072.228 5  -3721726.14521
  23976862.9304   -1115499.36245   -782498.89561
  23061028.359    11629520.754 5   9061940.74721
  20756238.4614      35804.88448     22715.63163
  21115013.359   -17322360.847 7 -13063419.85123
 91  4 24 22 49  0.0000000  0  5G13G15G19G 2G 6
  23040330.492    -5072779.818 5  -3765134.37521
  23973869.219    -1131216.269 5   -794745.76021
  23068384.5234   11668152.87545   9092043.57961
  20756985.5864      39725.89748     25770.97263
  21111090.398   -17342967.860 7 -13079477.22323
 91  4 24 22 49 15.0000000  0  5G13G15G19G 2G 6
  23029742.258    -5128419.924 5  -3808490.00221
  23970904.1174   -1146813.41645   -806899.30861
  23075745.9304   11706854.97145   9122200.94361
  20757743.2274      43708.95248     28874.65363
  21107179.1484  -17363515.45847 -13095488.30162
 91  4 24 22 49 30.0000000  0  5G13G15G19G 2G 6
  23019167.430    -5183995.788 5  -3851795.56421
  23967961.9144   -1162294.24245   -818962.20161
  23083122.758    11745623.311 5   9152409.92421
  20758512.7424      47750.43847     32023.87063
  21103281.2894  -17384007.04247 -13111455.73962
 91  4 24 22 49 45.0000000  0  5G13G15G19G 2G 6
  23008601.391    -5239509.478 5  -3895052.70221
  23965033.867    -1177660.927 5   -830936.16921
  23090517.828    11784455.177 5   9182668.41521
  20759291.3914      51847.87347     35216.68463
  21099391.914   -17404444.776 7 -13127381.22422
 91  4 24 22 50  0.0000000  0  5G13G15G19G 2G 6
  22998054.7894   -5294953.77145  -3938255.75761
  23962129.2194   -1192906.20245   -842815.54061
  23097922.3054   11823357.55545   9212981.84661
  20760082.4454      56007.97048     38458.31763
  21095511.828   -17424821.631 7 -13143259.27022
 91  4 24 22 50 15.0000000  0  5G13G15G19G 2G 6
  22987512.859    -5350330.774 5  -3981406.37221
  23959257.2114   -1208032.64745   -854602.32561
  23105331.922    11862327.804 5   9243348.15821
  20760887.0474      60228.13548     41746.76163
  21091648.539   -17445139.778 7 -13159091.56922
 91  4 24 22 50 30.0000000  0  5G13G15G19G 2G 6
  22976990.742    -5405641.798 5  -4024505.58521
  23956395.7034   -1223041.44945   -866297.41161
  23112766.4614   11901364.22945   9273766.03861
  20761699.8524      64506.64847     45080.67863
  21087791.945   -17465400.862 7 -13174879.40622
 91  4 24 22 50 45.0000000  0  5G13G15G19G 2G 6
  22966475.8674   -5460887.59445  -4067553.98561
  23953567.0634   -1237933.47445   -877901.51561
  23120203.1414   11940465.91145   9304234.75561
  20762526.4144      68842.31147     48459.12363
  21083947.414   -17485605.508 7 -13190623.26022
 91  4 24 22 51  0.0000000  0  5G13G15G19G 2G 6
  22955973.117    -5516069.250 5  -4110552.39021
  23950750.063    -1252710.024 5   -889415.63221
  23127657.4384   11979631.15045   9334753.00761
  20763361.9844      73233.50948     51880.83863
  21080113.578   -17505755.059 7 -13206324.18423
 91  4 24 22 51 15.0000000  0  5G13G15G19G 2G 6
  22945487.2424   -5571182.36745  -4153497.40961
  23947962.9844   -1267366.66945   -900836.28961
  23135121.398    12018863.827 5   9365323.80921
  20764209.3754      77684.24248     55348.94463
  21076289.6644  -17525845.21047 -13221978.80763
 91  4 24 22 51 30.0000000  0  5G13G15G19G 2G 6
  22935011.3594   -5626226.30145  -4196388.51061
  23945196.4384   -1281902.93045   -912163.21461
  23142598.9694   12058163.88745   9395947.10761
  20765066.4064      82194.57448     58863.48963
  21072478.3524  -17545875.65847 -13237586.91763
 91  4 24 22 51 45.0000000  0  5G13G15G19G 2G 6
  22924550.500    -5681203.451 5  -4239227.57321
  23942457.148    -1296321.169 5   -923398.10121
  23150093.414    12097528.970 5   9426621.07421
  20765936.1644      86762.07348     62422.58863
  21068678.1334  -17565848.56547 -13253150.19363
 91  4 24 22 52  0.0000000  0  5G13G15G19G 2G 6
  22914098.836    -5736119.716 5  -4282019.18921
  23939730.453    -1310627.729 5   -934546.01021
  23157593.4064   12136952.42845   9457340.52861
  20766816.1254      91380.29548     66021.20563
  21064884.3134  -17585770.36147 -13268673.62763
 91  4 24 22 52 15.0000000  0  5G13G15G19G 2G 6
  22903660.969    -5790966.801 5  -4324756.91321
  23937030.0704   -1324814.21045   -945600.35961
  23165110.3204   12176442.35945   9488111.77961
  20767705.2194      96056.96448     69665.36863
  21061107.2974  -17605632.81447 -13284150.83163
 91  4 24 22 52 30.0000000  0  5G13G15G19G 2G 6
  22893234.5554   -5845743.78545  -4367440.02161
  23934353.320    -1338879.960 5   -956560.59921
  23172638.4774   12215999.06245   9518935.04961
  20768606.3364     100792.47348     73355.38363
  21057337.8524  -17625435.03247 -13299581.10163
 91  4 24 22 52 45.0000000  0  5G13G15G19G 2G 6
  22882830.344    -5900453.922 5  -4410071.02921
  23931702.102    -1352828.435 5   -967429.49121
  23180175.9614   12255618.55645   9549807.25761
  20769519.0864     105582.85848     77088.15863
  21053580.711   -17645180.782 7 -13314967.37323
 91  4 24 22 53  0.0000000  0  5G13G15G19G 2G 6
  22872430.391    -5955096.698 5  -4452649.57221
  23929063.438    -1366658.888 4   -978206.38821
  23187728.0394   12295301.29945   9580728.75561
  20770438.9924     110428.57247     80864.04663
  21049834.625   -17664869.360 7 -13330309.09923
 91  4 24 22 53 15.0000000  0  5G13G15G19G 2G 6
  22862046.1644   -6009675.54645  -4495178.25761
  23926457.070    -1380375.323 5   -988894.44121
  23195290.766    12335043.313 5   9611696.42421
  20771371.2424     115325.58247     84679.90663
  21046099.086   -17684504.414 7 -13345609.11823
 91  4 24 22 53 30.0000000  0  5G13G15G19G 2G 6
  22851667.0784   -6064187.45145  -4537654.82361
  23923867.227    -1393974.921 5   -999491.45121
  23202867.6564   12374846.65245   9642711.89561
  20772313.1334     120276.29747     88537.61263
  21042372.844   -17704083.397 7 -13360865.45123
 91  4 24 22 53 45.0000000  0  5G13G15G19G 2G 6
  22841304.172    -6118633.911 5  -4580080.38521
  23921299.820    -1407459.110 5  -1009998.51521
  23210450.7344   12414709.60845   9673773.81061
  20773265.3834     125278.76748     92435.64963
  21038657.594   -17723607.838 7 -13376079.27922
 91  4 24 22 54  0.0000000  0  5G13G15G19G 2G 6
  22830961.438    -6173017.450 5  -4622456.90721
  23918758.7504   -1420830.38145  -1020417.61961
  23218050.453    12454629.531 5   9704880.11721
  20774226.9614     130330.20748     96371.83863
  21034951.555   -17743080.076 7 -13391252.42822
 91  4 24 22 54 15.0000000  0  5G13G15G19G 2G 6
  22820625.156    -6227330.296 6  -4664778.34321
  23916239.109    -1434081.048 5  -1030742.75821
  23225656.156    12494613.787 5   9736036.56721
  20775198.5004     135438.04148    100351.98063
  21031259.852   -17762492.400 7 -13406378.89323
 91  4 24 22 54 30.0000000  0  5G13G15G19G 2G 6
  22810300.0864   -6281573.14246  -4707045.26261
  23913739.047    -1447212.192 5  -1040974.77421
  23233277.414    12534661.107 5   9767242.12621
  20776181.8754     140601.16248    104375.19263
  21027575.469   -17781845.877 7 -13421459.49922
 91  4 24 22 54 45.0000000  0  5G13G15G19G 2G 6
  22799993.5164   -6335751.21746  -4749261.70761
  23911261.3524   -1460229.15945  -1051117.78061
  23240906.8284   12574765.79745   9798492.40761
  20777173.164      145813.686 8    108436.91423
  21023903.6644  -17801145.91547 -13436498.46563
 91  4 24 22 55  0.0000000  0  5G13G15G19G 2G 6
  22789694.211    -6389863.067 6  -4791426.52221
  23908806.281    -1473130.559 5  -1061170.75421
  23248549.9924   12614929.04845   9829788.32061
  20778174.2664     151076.82848    112538.06963
  21020239.117   -17820391.034 7 -13451494.63323
 91  4 24 22 55 15.0000000  0  5G13G15G19G 2G 6
  22779410.656    -6443909.408 6  -4833540.30821
  23906371.8444   -1485917.33045  -1071134.39461
  23256202.508    12655149.418 5   9861128.72921
  20779185.3204     156389.16648    116677.56163
  21016586.5704  -17839582.36947 -13466448.88063
 91  4 24 22 55 30.0000000  0  5G13G15G19G 2G 6
  22769134.0084   -6497889.17946  -4875602.24261
  23903962.9614   -1498588.58145  -1081008.02161
  23263873.7194   12695427.47745   9892514.11161
  20780205.117      161751.311 7    120855.86823
  21012945.4224  -17858718.93647 -13481360.46063
 91  4 24 22 55 45.0000000  0  5G13G15G19G 2G 6
  22758876.5864   -6551800.47946  -4917610.80761
  23901573.3674   -1511142.58145  -1090790.29861
  23271546.4614   12735764.70145   9923945.57461
  20781235.7734     167164.94147    125074.29063
  21009315.0314  -17877798.97847 -13496227.99963
 91  4 24 22 56  0.0000000  0  5G13G15G19G 2G 6
  22748633.477    -6605642.081 6  -4959565.06521
  23899206.1024   -1523578.07545  -1100480.24661
  23279236.0474   12776161.92245   9955423.80261
  20782275.156      172630.747 8    129333.36923
  21005695.2504  -17896821.26947 -13511050.53063
 91  4 24 22 56 15.0000000  0  5G13G15G19G 2G 6
  22738398.7974   -6659416.31446  -5001466.83161
  23896861.3914   -1535897.28745  -1110079.55161
  23286930.359    12816616.483 5   9986946.70521
  20783324.867      178145.968 7    133630.96123
  21002087.914   -17915788.208 7 -13525829.93523
 91  4 24 22 56 30.0000000  0  5G13G15G19G 2G 6
  22728178.9614   -6713127.56746  -5043319.51261
  23894540.7664   -1548104.70345  -1119591.76161
  23294641.570    12857123.790 5  10018510.70021
  20784383.6954     183706.09148    137963.52963
  20998487.805   -17934704.156 7 -13540569.61123
 91  4 24 22 56 45.0000000  0  5G13G15G19G 2G 6
  22717970.9924   -6766769.67946  -5085118.32261
  23892239.3054   -1560194.50245  -1129012.30861
  23302359.4534   12897689.28745  10050120.05161
  20785449.7814     189316.64848    142335.40163
  20994898.2504  -17953563.32047 -13555265.03463
 91  4 24 22 57  0.0000000  0  5G13G15G19G 2G 6
  22707776.8834   -6820344.21446  -5126864.49861
  23889960.195    -1572168.521 5  -1138342.64821
  23310091.609    12938311.056 5  10081773.23921
  20786528.3364     194975.60748    146744.98363
  20991320.4924  -17972367.46547 -13569917.58863
 91  4 24 22 57 15.0000000  0  5G13G15G19G 2G 6
  22697588.4614   -6873851.78746  -5168558.47761
  23887703.1334   -1584027.44045  -1147583.31961
  23317827.992    12978987.821 5  10113469.29921
  20787613.8754     200681.70448    151191.29263
  20987751.3134  -17991117.36447 -13584527.86263
 91  4 24 22 57 30.0000000  0  5G13G15G19G 2G 6
  22687425.797    -6927288.961 6  -5210197.58621
  23885471.1724   -1595767.93745  -1156731.69261
  23325584.281    13019722.576 5  10145210.53221
  20788709.2504     206437.88548    155676.63963
  20984195.609   -18009809.590 7 -13599093.20823
 91  4 24 22 57 45.0000000  0  5G13G15G19G 2G 6
  22677270.5554   -6980658.30846  -5251783.85961
  23883258.5314   -1607392.61745  -1165789.81961
  23333344.508    13060512.373 5  10176994.66121
  20789813.6564     212241.35948    160198.83363
  20980647.563   -18028446.969 7 -13613615.81723
 91  4 24 22 58  0.0000000  0  5G13G15G19G 2G 6
  22667120.383    -7033958.563 6  -5293316.30821
  23881067.641    -1618900.290 5  -1174756.74721
  23341123.313    13101357.971 5  10208822.26621
  20790926.5944     218093.08948    164758.62963
  20977111.4454  -18047028.11147 -13628094.59463
 91  4 24 22 58 15.0000000  0  5G13G15G19G 2G 6
  22656992.7504   -7087191.61946  -5334796.40161
  23878899.1484   -1630293.12945  -1183634.22561
  23348897.5394   13142257.24745  10240691.71061
  20792050.3364     223990.73548    169354.20363
  20973585.9924  -18065555.14447 -13642531.21162
 91  4 24 22 58 30.0000000  0  5G13G15G19G 2G 6
  22646881.6414   -7140351.80946  -5376219.69161
  23876752.5394   -1641565.80045  -1192418.07761
  23356694.8674   13183215.19645  10272606.86161
  20793180.6954     229939.11948    173989.31163
  20970072.3444  -18084022.77147 -13656921.53663
 91  4 24 22 58 45.0000000  0  5G13G15G19G 2G 6
  22636775.930    -7193440.921 6  -5417587.60521
  23874630.8364   -1652720.32345  -1201109.85661
  23364494.563    13224229.623 5  10304566.02821
  20794320.7194     235936.18248    178662.35263
  20966568.445   -18102432.892 7 -13671267.06423
 91  4 24 22 59  0.0000000  0  5G13G15G19G 2G 6
  22626687.344    -7246460.149 6  -5458901.07221
  23872531.9844   -1663757.94745  -1209710.53561
  23372313.883    13265298.714 5  10336567.78021
  20795473.4224     241980.33748    183372.08463
  20963076.992   -18120786.720 7 -13685568.72223
 91  4 24 22 59 15.0000000  0  5G13G15G19G 2G 6
  22616612.9534   -7299402.98146  -5500154.99561
  23870454.7974   -1674672.33145  -1218215.19861
  23380139.9534   13306428.50245  10368616.84561
  20796632.7814     248077.64648    188123.23863
  20959596.305   -18139077.971 7 -13699821.62523
 91  4 24 22 59 30.0000000  0  5G13G15G19G 2G 6
  22606550.516    -7352276.491 6  -5541354.92221
  23868399.3444   -1685470.15845  -1226629.01461
  23387979.164    13347612.073 5  10400707.80521
  20797802.4384     254220.99748    192910.27063
  20956125.789   -18157313.408 7 -13714031.03423
 91  4 24 22 59 45.0000000  0  5G13G15G19G 2G 6
  22596502.4304   -7405081.13346  -5582501.18661
  23866366.867    -1696152.316 5  -1234952.68721
  23395825.3594   13388848.22845  10432839.73861
  20798979.7114     260409.28947    197732.32163
  20952665.047   -18175493.826 7 -13728197.56623
 91  4 24 23  0  0.0000000  0  5G13G15G19G 2G 6
  22586465.1094   -7457818.14246  -5623594.73461
  23864356.570    -1706720.569 5  -1243187.66121
  23403677.719    13430135.137 5  10465011.21021
  20800164.5004     266640.60147    202587.88363
  20949217.109   -18193620.823 7 -13742322.48223
 91  4 24 23  0 15.0000000  0  5G13G15G19G 2G 6
  22576445.2344   -7510483.03446  -5664632.08861
  23862366.359    -1717170.464 5  -1251330.37321
  23411546.6094   13471476.81945  10497225.37861
  20801360.3364     272918.97048    207480.12363
  20945777.4384  -18211689.97147 -13756402.31363
 91  4 24 23  0 30.0000000  0  5G13G15G19G 2G 6
  22566435.8524   -7563078.14546  -5705615.08061
  23860401.2034   -1727504.20745  -1259382.58261
  23419424.8054   13512870.44145  10529480.00361
  20802564.4844     279241.69348    212406.92863
  20942350.3524  -18229703.69347 -13770438.94763
 91  4 24 23  0 45.0000000  0  5G13G15G19G 2G 6
  22556441.0004   -7615601.33946  -5746542.02361
  23858457.3594   -1737719.99545  -1267342.87561
  23427313.203    13554317.670 5  10561776.41921
  20803774.6564     285610.55348    217369.68563
  20938931.930   -18247660.098 7 -13784430.92923
 91  4 24 23  1  0.0000000  0  5G13G15G19G 2G 6
  22546460.063    -7668055.140 6  -5787414.89021
  23856533.8594   -1747820.57645  -1275213.38761
  23435212.8284   13595815.75045  10594112.46361
  20804994.9694     292022.67148    222366.14163
  20935525.6724  -18265561.60547 -13798380.12163
 91  4 24 23  1 15.0000000  0  5G13G15G19G 2G 6
  22536491.586    -7720440.116 6  -5828234.14821
  23854631.109    -1757806.438 5  -1282994.51621
  23443115.258    13637363.500 5  10626487.19621
  20806223.5474     298477.09948    227395.56763
  20932129.563   -18283408.976 7 -13812287.14023
 91  4 24 23  1 30.0000000  0  5G13G15G19G 2G 6
  22526534.078    -7772752.116 6  -5868996.52721
  23852757.156    -1767673.668 5  -1290683.21721
  23451037.484    13678964.589 5  10658903.48821
  20807460.4064     304977.29548    232460.66263
  20928744.797   -18301198.316 7 -13826148.93623
 91  4 24 23  1 45.0000000  0  5G13G15G19G 2G 6
  22516591.313    -7824990.924 6  -5909701.88621
  23850900.594    -1777422.299 5  -1298279.50621
  23458960.1644   13720618.84245  10691361.22061
  20808707.3054     311523.20248    237561.37063
  20925371.188   -18318929.410 7 -13839965.34922
 91  4 24 23  2  0.0000000  0  5G13G15G19G 2G 6
  22506666.3364   -7877163.46146  -5950355.60761
  23849068.3444   -1787059.32445  -1305788.79261
  23466894.0704   13762318.96445  10723854.68461
  20809959.1094     318107.49948    242691.99563
  20922005.438   -18336609.167 7 -13853741.76823
 91  4 24 23  2 15.0000000  0  5G13G15G19G 2G 6
  22496751.5394   -7929266.28746  -5990955.00161
  23847254.727    -1796581.421 5  -1313208.56921
  23474838.5554   13804068.02745  10756386.28561
  20811220.1954     324733.32048    247854.97563
  20918652.086   -18354234.210 7 -13867475.54923
 91  4 24 23  2 30.0000000  0  5G13G15G19G 2G 6
  22486849.273    -7981301.938 6  -6031502.05521
  23845464.000    -1805991.308 5  -1320540.86921
  23482797.2194   13845862.89645  10788953.56961
  20812488.3134     331397.33448    253047.72163
  20915307.750   -18371807.538 7 -13881169.03023
 91  4 24 23  2 45.0000000  0  5G13G15G19G 2G 6
  22476961.0084   -8033268.70746  -6071995.43261
  23843696.633    -1815287.383 5  -1327784.52521
  23490751.680    13887704.951 5  10821557.63321
  20813763.7584     338101.24948    258271.55163
  20911974.258   -18389327.352 7 -13894820.81523
 91  4 24 23  3  0.0000000  0  5G13G15G19G 2G 6
  22467085.141    -8085165.760 6  -6112434.47321
  23841948.6174   -1824468.93545  -1334938.91561
  23498734.453    13929594.483 5  10854198.68621
  20815046.1254     344845.46548    263526.78963
  20908652.383   -18406793.039 7 -13908430.41723
 91  4 24 23  3 15.0000000  0  5G13G15G19G 2G 6
  22457219.0234   -8136992.62646  -6152818.85461
  23840224.641    -1833535.769 5  -1342003.91521
  23506706.7274   13971531.49245  10886876.72061
  20816336.3834     351629.85448    268813.32964
  20905336.9384  -18424204.13747 -13921997.48063
 91  4 24 23  3 30.0000000  0  5G13G15G19G 2G 6
  22447371.867    -8188749.577 6  -6193148.73621
  23838520.7584   -1842488.51645  -1348980.02961
  23514699.0634   14013515.24045  10919591.19061
  20817637.3914     358453.82048    274130.71563
  20902033.4694  -18441561.00347 -13935522.27563
 91  4 24 23  3 45.0000000  0  5G13G15G19G 2G 6
  22437538.000    -8240439.833 6  -6233426.65921
  23836835.7194   -1851330.72245  -1355870.00461
  23522692.3054   14055541.83145  10952339.04261
  20818943.7034     365313.37748    279475.83263
  20898742.4304  -18458867.23047 -13949007.62063
 91  4 24 23  4  0.0000000  0  5G13G15G19G 2G 6
  22427714.031    -8292061.128 6  -6273650.84521
  23835175.4614   -1860059.66645  -1362671.72361
  23530702.594    14097613.510 5  10985122.03221
  20820255.4384     372210.76248    284850.42563
  20895456.961   -18476120.353 7 -13962451.58123
 91  4 24 23  4 15.0000000  0  5G13G15G19G 2G 6
  22417902.1254   -8343615.70146  -6313823.03361
  23833534.1724   -1868677.93145  -1369387.19561
  23538715.7734   14139727.38845  11017937.89161
  20821573.7504     379143.11047    290252.25863
  20892184.594   -18493322.900 7 -13975856.14323
 91  4 24 23  4 30.0000000  0  5G13G15G19G 2G 6
  22408105.609    -8395103.429 6  -6353943.14721
  23831915.8134   -1877186.00045  -1376016.82461
  23546737.773    14181882.901 5  11050786.19421
  20822898.6564     386109.79547    295680.84763
  20888920.234   -18510475.079 7 -13989221.45223
 91  4 24 23  4 45.0000000  0  5G13G15G19G 2G 6
  22398319.984    -8446521.333 6  -6394008.85521
  23830317.875    -1885580.564 5  -1382557.97121
  23554763.2584   14224083.02045  11083669.25561
  20824232.9614     393113.99347    301138.67363
  20885665.609   -18527573.699 7 -14002545.03223
 91  4 24 23  5  0.0000000  0  5G13G15G19G 2G 6
  22388546.758    -8497867.878 6  -6434018.94321
  23828744.641    -1893860.401 5  -1389009.73121
  23562805.727    14266328.735 5  11116587.85421
  20825572.6724     400156.81048    306626.58663
  20882422.922   -18544617.261 7 -14015825.71723
 91  4 24 23  5 15.0000000  0  5G13G15G19G 2G 6
  22378789.9384   -8549147.61146  -6473976.99261
  23827188.266    -1902029.965 5  -1395375.57821
  23570851.4694   14308615.23945  11149538.22761
  20826919.8674     407233.44648    312140.84863
  20879190.867   -18561610.278 7 -14029067.00922
 91  4 24 23  5 30.0000000  0  5G13G15G19G 2G 6
  22369046.5634   -8600360.83746  -6513883.19761
  23825654.359    -1910090.053 5  -1401656.11921
  23578910.1414   14350941.40445  11182519.49261
  20828270.2504     414342.76148    317680.57363
  20875964.883   -18578553.518 7 -14042269.51223
 91  4 24 23  5 45.0000000  0  5G13G15G19G 2G 6
  22359312.7114   -8651509.50746  -6553739.10161
  23824142.414    -1918042.709 5  -1407852.94121
  23586968.000    14393304.751 5  11215529.74821
  20829631.2584     421482.30348    323243.84863
  20872749.6414  -18595449.12547 -14055434.89463
 91  4 24 23  6  0.0000000  0  5G13G15G19G 2G 6
  22349590.375    -8702589.992 6  -6593541.88221
  23822650.703    -1925884.218 5  -1413963.17621
  23595041.859    14435708.593 4  11248571.56621
  20830995.6884     428655.35748    328833.24563
  20869544.7664  -18612293.45647 -14068560.31663
 91  4 24 23  6 15.0000000  0  5G13G15G19G 2G 6
  22339885.430    -8753603.937 6  -6633292.81721
  23821178.7344   -1933616.76045  -1419988.47661
  23603112.484    14478150.690 5  11281643.18021
  20832365.3834     435859.80848    334447.10563
  20866349.5864  -18629088.36847 -14081647.22063
 91  4 24 23  6 30.0000000  0  5G13G15G19G 2G 6
  22330187.3444   -8804550.00746  -6672990.87561
  23819728.3754   -1941239.04945  -1425927.88161
  23611200.2814   14520632.24944  11314745.54161
  20833743.3674     443096.82648    340086.34163
  20863163.6174  -18645832.31447 -14094694.42363
 91  4 24 23  6 45.0000000  0  5G13G15G19G 2G 6
  22320504.6254   -8855426.08146  -6712634.37761
  23818299.609    -1948749.178 5  -1431779.87821
  23619291.1334   14563154.61345  11347879.69961
  20835126.9144     450367.91348    345752.12763
  20859987.6094  -18662523.62947 -14107700.61163
 91  4 24 23  7  0.0000000  0  5G13G15G19G 2G 6
  22310838.883    -8906234.603 6  -6752225.24121
  23816885.8204   -1956149.91545  -1437546.64361
  23627393.9924   14605714.78644  11381043.33561
  20836518.7504     457669.95148    351442.03063
  20856820.4534  -18679164.93447 -14120667.83063
 91  4 24 23  7 15.0000000  0  5G13G15G19G 2G 6
  22301181.2344   -8956975.75446  -6791763.62361
  23815503.672    -1963441.269 5  -1443228.17221
  23635494.0784   14648312.37545  11414236.09561
  20837912.0394     465002.76447    357155.91363
  20853662.945   -18695756.308 7 -14133596.14823
 91  4 24 23  7 30.0000000  0  5G13G15G19G 2G 6
  22291536.969    -9007647.454 6  -6831247.87421
  23814135.6564   -1970621.23945  -1448822.92061
  23643610.6334   14690949.20645  11447459.45561
  20839314.1414     472368.17247    362895.19363
  20850513.4924  -18712295.44447 -14146483.76363
 91  4 24 23  7 45.0000000  0  5G13G15G19G 2G 6
  22281908.508    -9058250.219 6  -6870678.40421
  23812788.9614   -1977690.79545  -1454331.62861
  23651730.1254   14733623.99145  11480712.38561
  20840720.0554     479764.93947    368658.91963
  20847379.172   -18728783.400 7 -14159331.49923
 91  4 24 23  8  0.0000000  0  5G13G15G19G 2G 6
  22272294.305    -9108784.974 6  -6910055.94421
  23811464.6644   -1984651.15945  -1459755.24361
  23659863.6174   14776335.44845  11513993.89461
  20842134.4694     487191.89747    374446.16464
  20844250.5944  -18745221.05247 -14172140.03663
 91  4 24 23  8 15.0000000  0  5G13G15G19G 2G 6
  22262688.3204   -9159248.21546  -6949377.76961
  23810161.6254   -1991498.78545  -1465091.00561
  23667989.9144   14819086.87845  11547306.53961
  20843555.9844     494652.26947    380259.44463
  20841131.805   -18761604.977 7 -14184906.70623
 91  4 24 23  8 30.0000000  0  5G13G15G19G 2G 6
  22253101.3364   -9209639.82546  -6988643.77661
  23808882.1644   -1998233.93545  -1470339.15361
  23676138.570    14861877.696 4  11580649.89721
  20844981.2194     502145.42447    386098.28063
  20838024.2344  -18777935.18447 -14197631.51663
 91  4 24 23  8 45.0000000  0  5G13G15G19G 2G 6
  22243527.289    -9259958.873 6  -7027853.24521
  23807622.742    -2004855.459 5  -1475498.71821
  23684286.313    14904708.440 5  11614024.32521
  20846412.9534     509672.13947    391963.25763
  20834927.0394  -18794210.82747 -14210313.80163
 91  4 24 23  9  0.0000000  0  5G13G15G19G 2G 6
  22233962.195    -9310203.849 6  -7067004.99821
  23806383.3524   -2011362.13845  -1480568.80261
  23692450.977    14947580.171 4  11647430.72421
  20847852.4694     517233.48648    397855.21863
  20831839.7274  -18810430.59747 -14222952.55163
 91  4 24 23  9 15.0000000  0  5G13G15G19G 2G 6
  22224415.8984   -9360377.03746  -7106100.81261
  23805164.3284   -2017756.34445  -1485551.26161
  23700608.688    14990490.422 4  11680867.12321
  20849296.6094     524826.89648    403772.16463
  20828764.5474  -18826596.51047 -14235549.34163
 91  4 24 23  9 30.0000000  0  5G13G15G19G 2G 6
  22214883.4844   -9410478.47946  -7145140.72361
  23803969.234    -2024038.379 5  -1490446.33621
  23708784.766    15033438.314 4  11714332.85621
  20850747.3914     532451.72647    409713.59163
  20825699.2814  -18842709.22047 -14248104.66863
 91  4 24 23  9 45.0000000  0  5G13G15G19G 2G 6
  22205360.6884   -9460510.44246  -7184126.47661
  23802794.0554   -2030211.02345  -1495256.15361
  23716962.586    15076421.119 4  11747825.78221
  20852205.0314     540105.21347    415677.35163
  20822640.438   -18858770.957 7 -14260620.28823
 91  4 24 23 10  0.0000000  0  5G13G15G19G 2G 6
  22195854.3674   -9510467.57746  -7223053.92361
  23801641.2584   -2036269.23745  -1499976.79761
  23725152.250    15119443.809 4  11781349.81521
  20853666.7664     547792.27947    421667.27363
  20819596.992   -18874776.400 7 -14273092.03823
 91  4 24 23 10 15.0000000  0  5G13G15G19G 2G 6
  22186361.8204   -9560348.22846  -7261921.80961
  23800510.750    -2042211.505 5  -1504607.11421
  23733342.6884   15162507.62244  11814905.87961
  20855136.3524     555514.37747    427684.50263
  20816561.0864  -18890724.10547 -14285518.79763
 91  4 24 23 10 30.0000000  0  5G13G15G19G 2G 6
  22176880.906    -9610156.680 6  -7300733.41421
  23799403.125    -2048042.141 5  -1509150.42621
  23741551.6024   15205607.76444  11848490.25161
  20856610.8594     563266.61047    433725.20263
  20813536.6644  -18906618.43647 -14297903.96463
 91  4 24 23 10 45.0000000  0  5G13G15G19G 2G 6
  22167417.9454   -9659890.36546  -7339486.76761
  23798316.945    -2053758.460 5  -1513604.65221
  23749757.1094   15248746.42344  11882104.63761
  20858094.1094     571051.46647    439791.32663
  20810523.258   -18922456.666 7 -14310245.42023
 91  4 24 23 11  0.0000000  0  5G13G15G19G 2G 6
  22157971.016    -9709551.252 6  -7378183.39621
  23797249.250    -2059362.542 5  -1517971.44721
  23757970.5634   15291921.28544  11915747.22261
  20859580.5554     578866.68747    445881.11363
  20807519.3284  -18938240.77647 -14322544.69863
 91  4 24 23 11 15.0000000  0  5G13G15G19G 2G 6
  22148534.172    -9759140.151 6  -7416823.92421
  23796199.828    -2064855.785 5  -1522251.85221
  23766194.7664   15335131.04744  11949417.01561
  20861072.2194     586710.90847    451993.49964
  20804524.3984  -18953971.91647 -14334802.69263
 91  4 24 23 11 30.0000000  0  5G13G15G19G 2G 6
  22139110.508    -9808660.536 6  -7455411.07521
  23795176.633    -2070241.782 5  -1526448.67021
  23774419.344    15378371.611 4  11983110.77521
  20862569.3204     594580.27647    458125.47563
  20801539.211   -18969653.588 7 -14347022.15323
 91  4 24 23 11 45.0000000  0  5G13G15G19G 2G 6
  22129699.1884   -9858107.78546  -7493941.24061
  23794172.9694   -2075516.22145  -1530558.58861
  23782660.617    15421647.085 4  12016831.77521
  20864072.8594     602478.60147    464280.01563
  20798567.313   -18985281.583 7 -14359199.80323
 91  4 24 23 12  0.0000000  0  5G13G15G19G 2G 6
  22120303.508    -9907480.823 6  -7532413.56021
  23793191.094    -2080677.884 5  -1534580.63621
  23790901.3524   15464958.24743  12050580.54061
  20865581.2894     610406.76447    470457.80763
  20795602.836   -19000854.682 7 -14371334.66123
 91  4 24 23 12 15.0000000  0  5G13G15G19G 2G 6
  22110922.7034   -9956783.10746  -7570830.77361
  23792230.4454   -2085730.54045  -1538517.75561
  23799149.7734   15508301.15643  12084354.08461
  20867095.2974     618361.02448    476655.93463
  20792650.219   -19016376.544 7 -14383429.60423
 91  4 24 23 12 30.0000000  0  5G13G15G19G 2G 6
  22101553.813   -10006014.647 6  -7609192.84521
  23791289.711    -2090674.339 5  -1542370.03321
  23807405.1804   15551675.39843  12118152.00961
  20868613.0784     626340.85748    482873.99563
  20789705.336   -19031847.151 7 -14395484.60823
 91  4 24 23 12 45.0000000  0  5G13G15G19G 2G 6
  22092198.2584  -10055172.59446  -7647497.57561
  23790369.3914   -2095506.64845  -1546135.40561
  23815658.844    15595083.515 3  12151976.35221
  20870138.1024     634348.98248    489114.09063
  20786771.977   -19047263.742 7 -14407497.52023
 91  4 24 23 13  0.0000000  0  5G13G15G19G 2G 6
  22082859.0784  -10104266.16446  -7685752.15861
  23789470.9304   -2100236.93945  -1549821.31261
  23823928.867    15638515.847 3  12185819.55421
  20871665.5314     642375.78447    495368.73263
  20783847.625   -19062635.430 7 -14419475.43323
 91  4 24 23 13 15.0000000  0  5G13G15G19G 2G 6
  22073527.5164  -10153291.71946  -7723953.73161
  23788590.453    -2104861.849 5  -1553425.13021
  23832197.531    15681975.114 4  12219683.74221
  20873196.5704     650424.39047    501640.37563
  20780930.688   -19077958.867 7 -14431415.75423
 91  4 24 23 13 30.0000000  0  5G13G15G19G 2G 6
  22064213.0634  -10202248.56146  -7762101.76061
  23787729.914    -2109380.723 5  -1556946.30821
  23840480.5234   15725461.80344  12253569.31061
  20874731.9384     658495.08647    507929.22663
  20778022.7814  -19093233.30547 -14443317.88263
 91  4 24 23 13 45.0000000  0  5G13G15G19G 2G 6
  22054905.2894  -10251138.66446  -7800197.78961
  23786889.7974   -2113795.75746  -1560386.54861
  23848752.6644   15768973.62744  12287474.44361
  20876272.4454     666585.56147    514233.49063
  20775126.258   -19108460.898 7 -14455183.51723
 91  4 24 23 14  0.0000000  0  5G13G15G19G 2G 6
  22045615.8284  -10299962.75746  -7838242.39261
  23786069.188    -2118107.850 5  -1563746.58821
  23857041.2974   15812509.55444  12321398.37661
  20877815.1954     674694.87447    520552.43463
  20772238.875   -19123642.413 7 -14467013.25423
 91  4 24 23 14 15.0000000  0  5G13G15G19G 2G 6
  22036338.9694  -10348724.40546  -7876238.33561
  23785266.5004   -2122320.68545  -1567029.29461
  23865329.5474   15856065.28445  12355337.73861
  20879361.0084     682818.87347    526882.82463
  20769356.375   -19138781.639 7 -14478810.03523
 91  4 24 23 14 30.0000000  0  5G13G15G19G 2G 6
  22027068.688   -10397427.562 6  -7914188.69421
  23784485.477    -2126438.560 5  -1570237.99021
  23873625.2894   15899636.33745  12389289.02261
  20880908.7114     690953.12847    533221.20263
  20766483.977   -19153882.630 7 -14490577.02323
 91  4 24 23 14 45.0000000  0  5G13G15G19G 2G 6
  22017815.1804  -10446069.92246  -7952091.68061
  23783717.078    -2130459.090 5  -1573370.83821
  23881913.8834   15943224.94845  12423254.00561
  20882459.2734     699099.80847    539569.26663
  20763618.273   -19168942.792 7 -14502312.19923
 91  4 24 23 15  0.0000000  0  5G13G15G19G 2G 6
  22008567.8594  -10494658.75746  -7989952.95561
  23782970.516    -2134389.885 5  -1576433.77421
  23890214.531    15986823.315 4  12457226.56521
  20884011.3134     707251.01847    545920.85463
  20760758.586   -19183969.891 7 -14514021.61423
 91  4 24 23 15 15.0000000  0  5G13G15G19G 2G 6
  21999330.5314  -10543191.07146  -8027770.18961
  23782240.9534   -2138228.10245  -1579424.56161
  23898508.4844   16030433.79744  12491208.58861
  20885562.3204     715409.51948    552278.12763
  20757903.6414  -19198960.96047 -14525702.95563
 91  4 24 23 15 30.0000000  0  5G13G15G19G 2G 6
  21990102.883   -10591672.454 6  -8065547.75321
  23781525.8284   -2141979.80045  -1582347.92561
  23906811.2274   16074050.48744  12525195.43861
  20887113.2664     723569.26148    558636.37264
  20755058.016   -19213921.502 7 -14537360.50123
 91  4 24 23 15 45.0000000  0  5G13G15G19G 2G 6
  21980892.211   -10640109.531 6  -8103290.79621
  23780826.617    -2145651.683 5  -1585209.10121
  23915106.8524   16117666.27644  12559181.60561
  20888667.8984     731723.29148    564990.15763
  20752214.750   -19228858.313 7 -14548999.55023
 91  4 24 23 16  0.0000000  0  5G13G15G19G 2G 6
  21971680.4694  -10688502.80646  -8140999.67661
  23780145.086    -2149244.545 5  -1588008.71021
  23923415.109    16161280.275 4  12593166.37421
  20890217.6334     739870.79048    571338.86063
  20749378.578   -19243771.965 7 -14560620.55423
 91  4 24 23 16 15.0000000  0  5G13G15G19G 2G 6
  21962476.938   -10736849.516 6  -8178672.30621
  23779475.5864   -2152755.52545  -1590744.52161
  23931705.6254   16204894.89744  12627151.61261
  20891769.1334     748014.18548    577684.35463
  20746544.391   -19258659.594 7 -14572221.28523
 91  4 24 23 16 30.0000000  0  5G13G15G19G 2G 6
  21953285.984   -10785154.151 6  -8216312.14621
  23778823.7894   -2156189.63245  -1593420.40561
  23940012.7274   16248505.03244  12661133.38361
  20893316.1484     756148.50348    584022.79063
  20743716.430   -19273525.956 7 -14583805.43923
 91  4 24 23 16 45.0000000  0  5G13G15G19G 2G 6
  21944102.0004  -10833417.47846  -8253919.78161
  23778182.711    -2159548.062 5  -1596037.35121
  23948308.539    16292109.340 5  12695110.57421
  20894861.3444     764272.44247    590353.12863
  20740889.563   -19288372.114 7 -14595373.85323
 91  4 24 23 17  0.0000000  0  5G13G15G19G 2G 6
  21934925.891   -10881647.226 6  -8291501.27221
  23777556.469    -2162838.478 5  -1598601.28521
  23956599.3834   16335699.57644  12729076.81861
  20896403.2274     772378.13947    596669.25763
  20738069.711   -19303205.526 7 -14606932.34123
 91  4 24 23 17 15.0000000  0  5G13G15G19G 2G 6
  21925753.1884  -10929848.67546  -8329060.69561
  23776944.883    -2166065.887 5  -1601116.12521
  23964887.1094   16379270.39844  12763027.93961
  20897941.2194     780460.12547    602966.90463
  20735246.742   -19318031.480 7 -14618485.01623
 91  4 24 23 17 30.0000000  0  5G13G15G19G 2G 6
  21916579.9384  -10978021.36146  -8366597.70861
  23776340.539    -2169230.348 5  -1603581.90921
  23973181.625    16422821.481 4  12796963.67321
  20899475.6954     788518.24948    609245.96963
  20732426.344   -19332849.816 7 -14630031.74523
 91  4 24 23 17 45.0000000  0  5G13G15G19G 2G 6
  21907422.672   -11026162.435 6  -8404110.09621
  23775750.531    -2172329.096 5  -1605996.51021
  23981457.5004   16466355.38144  12830886.01461
  20901003.4534     796555.06447    615508.42563
  20729608.328   -19347657.712 7 -14641570.34523
 91  4 24 23 18  0.0000000  0  5G13G15G19G 2G 6
  21898267.430   -11074281.106 6  -8441605.03721
  23775170.273    -2175371.798 5  -1608367.41821
  23989742.5004   16509862.37844  12864787.39461
  20902528.2664     804560.86748    621746.70863
  20726792.125   -19362464.435 7 -14653108.02823
 91  4 24 23 18 15.0000000  0  5G13G15G19G 2G 6
  21889115.9774  -11122375.83146  -8479081.29961
  23774603.0314   -2178356.84145  -1610693.39761
  23998018.7894   16553343.59744  12898668.69361
  20904045.7114     812537.15648    627962.00263
  20723974.383   -19377268.477 7 -14664643.63323
 91  4 24 23 18 30.0000000  0  5G13G15G19G 2G 6
  21879966.328   -11170445.925 6  -8516538.38621
  23774045.6884   -2181283.91645  -1612974.21161
  24006287.586    16596799.155 3  12932529.98121
  20905557.9534     820483.83048    634154.21563
  20721159.750   -19392069.348 7 -14676176.75623
 91  4 24 23 18 45.0000000  0  5G13G15G19G 2G 6
  21870823.688   -11218489.693 6  -8553974.95721
  23773501.906    -2184151.828 5  -1615208.88721
  24014549.992    16640230.279 4  12966372.26921
  20907064.7194     828402.27148    640324.42463
  20718342.3984  -19406865.49047 -14687706.18963
 91  4 24 23 19  0.0000000  0  5G13G15G19G 2G 6
  21861685.008   -11266518.961 6  -8591400.22921
  23772965.781    -2186972.353 5  -1617406.66021
  24022812.820    16683624.965 3  13000186.10721
  20908565.1724     836280.56848    646463.36063
  20715524.563   -19421668.517 7 -14699240.99023
 91  4 24 23 19 15.0000000  0  5G13G15G19G 2G 6
  21852549.125   -11314528.735 6  -8628810.31121
  23772437.8754   -2189740.52346  -1619563.64161
  24031061.9694   16726987.70644  13033975.08761
  20910057.6954     844123.17548    652574.49063
  20712708.359   -19436473.603 7 -14710777.40523
 91  4 24 23 19 30.0000000  0  5G13G15G19G 2G 6
  21843416.0234  -11362520.69546  -8666206.51261
  23771921.3914   -2192458.31745  -1621681.39961
  24039307.508    16770316.331 3  13067737.46721
  20911542.1024     851927.95247    658656.13663
  20709891.328   -19451282.585 7 -14722316.85123
 91  4 24 23 19 45.0000000  0  5G13G15G19G 2G 6
  21834286.070   -11410497.695 6  -8703591.05521
  23771411.2664   -2195128.75945  -1623762.24061
  24047543.3204   16813607.61144  13101470.74961
  20913018.7114     859691.71747    664705.82563
  20707069.563   -19466098.260 7 -14733861.51723
 91  4 24 23 20  0.0000000  0  5G13G15G19G 2G 6
  21825158.6954  -11458457.04146  -8740961.84961
  23770914.6174   -2197749.62046  -1625804.41961
  24055781.5864   16856863.67344  13135176.60261
  20914488.1254     867416.77747    670725.35363
  20704248.789   -19480918.198 7 -14745409.50223
 91  4 24 23 20 15.0000000  0  5G13G15G19G 2G 6
  21816037.8674  -11506397.22746  -8778317.70961
  23770424.516    -2200319.683 6  -1627807.02421
  24064000.2034   16900085.74644  13168855.92761
  20915951.5164     875104.38447    676715.68863
  20701429.430   -19495740.896 7 -14756959.63823
 91  4 24 23 20 30.0000000  0  5G13G15G19G 2G 6
  21806918.2424  -11554315.63246  -8815656.60461
  23769944.023    -2202836.280 5  -1629767.98921
  24072223.164    16943276.135 3  13202510.60121
  20917408.8914     882757.09247    682678.83063
  20698608.984   -19510563.641 7 -14768509.80423
 91  4 24 23 20 45.0000000  0  5G13G15G19G 2G 6
  21797805.8984  -11602209.53246  -8852976.40361
  23769479.9384   -2205296.89846  -1631685.32561
  24080430.1024   16986436.87043  13236142.15961
  20918856.5784     890377.02247    688616.43063
  20695787.891   -19525383.897 7 -14780058.04523
 91  4 24 23 21  0.0000000  0  5G13G15G19G 2G 6
  21788696.8054  -11650070.45646  -8890270.51361
  23769018.4064   -2207693.46445  -1633552.73461
  24088642.789    17029575.958 3  13269756.85521
  20920303.1094     897972.17447    694534.72563
  20692971.406   -19540193.361 7 -14791597.87223
 91  4 24 23 21 15.0000000  0  5G13G15G19G 2G 6
  21779595.883   -11697900.447 6  -8927540.50621
  23768574.313    -2210028.035 5  -1635371.85221
  24096848.5314   17072690.98544  13303352.80761
  20921744.1174     905540.02948    700431.74563
  20690153.3364  -19554993.96747 -14803130.80263
 91  4 24 23 21 30.0000000  0  5G13G15G19G 2G 6
  21770501.3204  -11745693.60546  -8964781.80461
  23768145.297    -2212295.085 5  -1637138.37021
  24105055.688    17115787.418 3  13336934.24921
  20923179.3834     913086.28448    706311.94563
  20687339.555   -19569779.917 7 -14814652.31023
 91  4 24 23 21 45.0000000  0  5G13G15G19G 2G 6
  21761411.8594  -11793448.54746  -9001993.32061
  23767725.320    -2214493.319 5  -1638851.21421
  24113247.4614   17158866.12844  13370501.87861
  20924611.3204     920612.10148    712176.21463
  20684530.258   -19584549.878 7 -14826161.35323
 91  4 24 23 22  0.0000000  0  5G13G15G19G 2G 6
  21752332.5314  -11841160.62146  -9039171.44861
  23767321.0944   -2216618.58145  -1640507.24461
  24121445.8204   17201931.14744  13404058.86661
  20926042.3984     928121.53647    718027.73563
  20681721.906   -19599299.429 7 -14837654.49223
 91  4 24 23 22 15.0000000  0  5G13G15G19G 2G 6
  21743262.1024  -11888830.13746  -9076316.39761
  23766929.117    -2218671.222 5  -1642106.67421
  24129639.8364   17244982.00045  13437604.78461
  20927466.0554     935614.22747    723866.19263
  20678918.406   -19614028.766 7 -14849131.87623
 91  4 24 23 22 30.0000000  0  5G13G15G19G 2G 6
  21734202.0944  -11936448.53346  -9113421.52261
  23766555.2584   -2220642.74745  -1643642.90761
  24137824.2734   17288026.68444  13471145.90461
  20928891.6644     943098.13447    729697.80864
  20676121.727   -19628729.515 7 -14860586.98523
 91  4 24 23 22 45.0000000  0  5G13G15G19G 2G 6
  21725150.2814  -11984010.00346  -9150482.28161
  23766196.8674   -2222527.69045  -1645111.64861
  24146014.352    17331070.718 4  13504686.52021
  20930315.1724     950578.86647    735526.95063
  20673331.281   -19643395.770 7 -14872015.22323
 91  4 24 23 23  0.0000000  0  5G13G15G19G 2G 6
  21716108.2814  -12031513.54446  -9187497.90061
  23765853.7664   -2224325.06645  -1646512.17161
  24154211.9224   17374114.66043  13538227.05661
  20931738.1564     958057.22647    741354.25263
  20670546.883   -19658026.547 7 -14883415.80923
 91  4 24 23 23 15.0000000  0  5G13G15G19G 2G 6
  21707081.8364  -12078952.55046  -9224463.24261
  23765529.5704   -2226028.85645  -1647839.76861
  24162396.594    17417164.669 3  13571772.33121
  20933160.9384     965539.26847    747184.41463
  20667771.039   -19672615.416 7 -14894783.73823
 91  4 24 23 23 30.0000000  0  5G13G15G19G 2G 6
  21698070.5164  -12126325.42746  -9261377.05061
  23765223.359    -2227637.527 5  -1649093.25121
  24170593.195    17460221.822 3  13605323.18921
  20934585.5314     973026.36848    753018.51863
  20665003.0474  -19687160.85547 -14906117.84963
 91  4 24 23 23 45.0000000  0  5G13G15G19G 2G 6
  21689065.0864  -12173629.51046  -9298237.25461
  23764940.1564   -2229148.64845  -1650270.72061
  24178790.3204   17503288.24443  13638881.23761
  20936012.8134     980520.68648    758858.25063
  20662244.5864  -19701660.19947 -14917416.02763
 91  4 24 23 24  0.0000000  0  5G13G15G19G 2G 6
  21680076.2974  -12220864.04946  -9335043.25961
  23764665.2274   -2230561.50345  -1651371.60361
  24186988.773    17546364.271 3  13672446.76621
  20937439.9614     988022.75547    764704.01163
  20659495.414   -19716112.739 7 -14928677.73223
 91  4 24 23 24 15.0000000  0  5G13G15G19G 2G 6
  21671103.023   -12268017.717 6  -9371786.26321
  23764416.6334   -2231865.11745  -1652387.38361
  24195177.617    17589460.998 3  13706028.45121
  20938871.3524     995543.59948    770564.40263
  20656754.070   -19730507.302 7 -14939894.26023
 91  4 24 23 24 30.0000000  0  5G13G15G19G 2G 6
  21662147.1094  -12315088.20546  -9408464.44561
  23764194.609    -2233057.209 5  -1653316.23821
  24203386.906    17632580.303 3  13739627.72121
  20940306.5634    1003085.25048    776441.01163
  20654026.648   -19744841.484 7 -14951063.72823
 91  4 24 23 24 45.0000000  0  5G13G15G19G 2G 6
  21653205.5704  -12362073.81546  -9445076.49361
  23763989.125    -2234136.259 5  -1654157.00321
  24211598.9774   17675723.51643  13773245.63061
  20941744.9774    1010649.26047    782335.04663
  20651312.102   -19759113.473 7 -14962184.74423
 91  4 24 23 25  0.0000000  0  5G13G15G19G 2G 6
  21644280.406   -12408971.159 6  -9481619.74521
  23763806.453    -2235099.037 5  -1654907.17021
  24219818.9064   17718893.75143  13806884.56361
  20943188.8594    1018238.56847    788248.79363
  20648608.688   -19773319.990 7 -14973254.74123
 91  4 24 23 25 15.0000000  0  5G13G15G19G 2G 6
  21635374.2274  -12455779.40146  -9518093.57861
  23763643.8444   -2235945.40145  -1655566.61361
  24228033.492    17762091.103 3  13840544.63721
  20944638.5784    1025853.34247    794182.38863
  20645917.1724  -19787460.49747 -14984273.30563
 91  4 24 23 25 30.0000000  0  5G13G15G19G 2G 6
  21626483.0164  -12502493.95346  -9554494.40961
  23763506.844    -2236671.013 5  -1656131.98821
  24236262.641    17805319.663 3  13874229.02221
  20946092.0474    1033497.85947    800139.15663
  20643238.6334  -19801530.41047 -14995236.86663
 91  4 24 23 25 45.0000000  0  5G13G15G19G 2G 6
  21617612.4454  -12549115.93646  -9590823.10761
  23763388.672    -2237277.444 5  -1656604.47721
  24244485.891    17848577.517 3  13907936.25621
  20947554.2274    1041170.50748    806117.84463
  20640574.4844  -19815531.21347 -15006146.57563
 91  4 24 23 26  0.0000000  0  5G13G15G19G 2G 6
  21608759.617   -12595638.835 6  -9627074.60821
  23763300.570    -2237758.016 5  -1656978.90521
  24252735.148    17891871.111 2  13941671.33521
  20949021.1414    1048877.82048    812123.55063
  20637925.250   -19829456.098 7 -15016997.12223
 91  4 24 23 26 15.0000000  0  5G13G15G19G 2G 6
  21599925.602   -12642058.307 6  -9663245.51521
  23763233.2734   -2238108.28145  -1657251.78661
  24260978.5314   17935204.58742  13975437.50661
  20950495.6024    1056623.78448    818159.36863
  20635290.328   -19843300.746 7 -15027785.14523
 91  4 24 23 26 30.0000000  0  5G13G15G19G 2G 6
  21591115.0554  -12688368.37147  -9699331.15261
  23763190.8054   -2238322.89945  -1657418.99161
  24269233.617    17978583.278 2  14009238.88621
  20951977.5004    1064413.88948    824229.57863
  20632672.828   -19857059.210 7 -15038506.00023
 91  4 24 23 26 45.0000000  0  5G13G15G19G 2G 6
  21582319.1804  -12734573.71246  -9735335.19861
  23763176.0864   -2238406.72946
  24277495.336    18022002.070 3  14043071.52521
  20953466.6644    1072243.32548    830330.43463
  20630070.727   -19870736.270 7 -15049163.43623
 91  4 24 23 27  0.0000000  0  5G13G15G19G 2G 6
  21573547.336   -12780668.996 6  -9771253.48721
  23763183.4694   -2238354.33345
  24285770.2974   18065465.90843  14076939.24961
  20954965.2584    1080116.97048    836465.73663
  20627483.961   -19884326.591 7 -15059753.28123
 91  4 24 23 27 15.0000000  0  4G13G15G 2G 6
  21564797.117   -12826652.745 6  -9807084.87021
  23763219.4304   -2238164.78245
  20956471.2734    1088035.87047    842636.29663
  20624915.242   -19897828.859 7 -15070274.51923
 91  4 24 23 27 30.0000000  0  4G13G15G 2G 6
  21556069.7734  -12872523.05846  -9842827.84961
  23763282.758    -2237836.342 5
  20957987.6724    1096002.09947    848843.74463
  20622361.469   -19911240.983 7 -15080725.51123
 91  4 24 23 27 45.0000000  0  4G13G15G 2G 6
  21547361.4304  -12918278.48146  -9878481.31361
  23763369.3754   -2237367.72845  -1656674.46361
  20959512.4774    1104016.53747    855088.75063
  20619826.688   -19924561.546 7 -15091105.14723
 91  4 24 23 28  0.0000000  0  4G13G15G 2G 6
  21538676.4454  -12963917.21146  -9914043.84461
  23763490.594    -2236757.465 5  -1656198.89721
  20961047.8914    1112080.44548    861372.31363
  20617309.2814  -19937788.97047 -15101412.22663
 91  4 24 23 28 15.0000000  0  4G13G15G 2G 6
  21530012.328   -13009443.449 6  -9949518.72921
  23763631.266    -2236009.674 5  -1655616.14621
  20962590.5554    1120189.43548    867691.00163
  20614810.648   -19950927.565 7 -15111650.07823
 91  4 24 23 28 30.0000000  0  4G13G15G 2G 6
  21521373.453   -13054849.757 6  -9984900.15221
  23763800.0704   -2235117.37745  -1654920.79561
  20964145.2584    1128350.66648    874050.39163
  20612328.2814  -19963969.87647 -15121812.90963
 91  4 24 23 28 45.0000000  0  4G13G15G 2G 6
  21512752.188   -13100137.521 6 -10020189.21221
  23763996.320    -2234082.156 5  -1654114.07621
  20965705.7974    1136562.62748    880449.32763
  20609866.156   -19976917.199 7 -15131901.71523
 91  4 24 23 29  0.0000000  0  4G13G15G 2G 6
  21504159.906   -13145307.373 6 -10055386.39421
  23764226.6024   -2232905.35845  -1653197.06761
  20967276.2894    1144823.97848    886886.73463
  20607417.375   -19989770.439 7 -15141917.21523
 91  4 24 23 29 15.0000000  0  4G13G15G 2G 6
  21495586.422   -13190355.490 6 -10090488.71121
  23764473.500    -2231582.797 5  -1652166.42721
  20968861.7194    1153138.34648    893365.46963
  20604990.141   -20002525.688 7 -15151856.35323
 91  4 24 23 29 30.0000000  0  4G13G15G 2G 6
  21487037.6174  -13235279.36146 -10125494.22061
  23764753.2734   -2230112.49745  -1651020.70161
  20970451.8204    1161507.90948    899887.19863
  20602583.867   -20015180.540 7 -15161717.26023
 91  4 24 23 29 45.0000000  0  4G13G15G 2G 6
  21478514.4304  -13280084.14446 -10160406.92661
  23765060.1254   -2228499.81545  -1649764.01461
  20972054.1024    1169927.33147    906447.78163
  20600193.7814  -20027740.02947 -15171503.86463
 91  4 24 23 30  0.0000000  0  4G13G15G 2G 6
  21470009.1334  -13324766.66346 -10195224.34861
  23765394.031    -2226741.770 5  -1648394.04621
  20973664.8674    1178399.28947    913049.31163
  20597820.930   -20040201.129 7 -15181213.79623
 91  4 24 23 30 15.0000000  0  4G13G15G 2G 6
  21461529.320   -13369323.989 6 -10229944.24121
  23765755.5314   -2224835.64045  -1646908.71661
  20975288.8594    1186926.65748    919694.00863
  20595469.883   -20052560.800 7 -15190844.68523
 91  4 24 23 30 30.0000000  0  4G13G15G 2G 6
  21453074.2504  -13413757.32446 -10264567.51261
  23766147.9534   -2222782.78045  -1645309.04061
  20976921.9844    1195508.10348    926380.84163
  20593136.250   -20064820.372 7 -15200397.58523
 91  4 24 23 30 45.0000000  0  4G13G15G 2G 6
  21444642.258   -13458065.359 6 -10299093.14721
  23766564.430    -2220582.249 5  -1643594.30621
  20978566.953     1204144.310 8    933110.33923
  20590824.922   -20076978.523 7 -15209871.45623
 91  4 24 23 31  0.0000000  0  4G13G15G 2G 6
  21436232.656   -13502250.391 6 -10333522.94521
  23767010.4224   -2218236.66445  -1641766.51661
  20980220.9774    1212832.56748    939880.40663
  20588527.445   -20089037.980 7 -15219268.42123
 91  4 24 23 31 15.0000000  0  4G13G15G 2G 6
  21427848.961   -13546312.585 6 -10367857.01521
  23767487.0394   -2215746.29045  -1639825.90861
  20981884.2584    1221572.63848    946690.84363
  20586253.281   -20100998.421 7 -15228588.22823
 91  4 24 23 31 30.0000000  0  4G13G15G 2G 6
  21419487.188   -13590249.424 6 -10402093.40021
  23767988.883    -2213108.857 5  -1637770.71321
  20983557.1174    1230366.73448    953543.38063
  20583995.1094  -20112857.46747 -15237829.03263
 91  4 24 23 31 45.0000000  0  4G13G15G 2G 6
  21411153.648   -13634058.551 6 -10436230.28121
  23768518.492    -2210322.213 5  -1635599.29021
  20985242.0084    1239217.04748    960439.72463
  20581758.016   -20124612.948 7 -15246989.13323
 91  4 24 23 32  0.0000000  0  4G13G15G 2G 6
  21402839.156   -13677743.101 7 -10470270.07821
  23769073.8054   -2207389.73845  -1633314.21861
  20986933.0944    1248119.96348    967377.06663
  20579539.172   -20136267.799 7 -15256070.82123
 91  4 24 23 32 15.0000000  0  4G13G15G 2G 6
  21394549.359   -13721299.410 6 -10504209.94721
  23769662.9924   -2204308.15045  -1630912.92161
  20988640.0004    1257078.76248    974357.94663
  20577342.273   -20147818.588 7 -15265071.41423
 91  4 24 23 32 30.0000000  0  4G13G15G 2G 6
  21386286.852   -13764730.612 7 -10538052.33721
  23770279.227    -2201080.840 5  -1628398.07721
  20990352.4064    1266089.88548    981379.60263
  20575162.188   -20159268.363 7 -15273993.29523
 91  4 24 23 32 45.0000000  0  4G13G15G 2G 6
  21378045.359   -13808033.258 6 -10571794.54721
  23770920.6644   -2197704.60945  -1625767.19761
  20992079.5944    1275156.53948    988444.53463
  20573005.430   -20170613.906 7 -15282833.96723
 91  4 24 23 33  0.0000000  0  4G13G15G 2G 6
  21369826.5394  -13851209.05046 -10605437.92661
  23771587.141    -2194180.971 5  -1623021.45621
  20993814.5784    1284277.02948    995551.41363
  20570865.8914  -20181856.75347 -15291594.61663
 91  4 24 23 33 15.0000000  0  4G13G15G 2G 6
  21361635.7034  -13894259.69346 -10638983.78061
  23772291.1254   -2190511.78245  -1620162.31661
  20995560.5474    1293449.48348   1002698.77463
  20568744.734   -20192998.499 7 -15300276.48023
 91  4 24 23 33 30.0000000  0  4G13G15G 2G 6
  21353465.586   -13937182.955 6 -10672430.38021
  23773009.0394   -2186695.38045  -1617188.45961
  20997315.5634    1302675.63448   1009887.97563
  20566644.031   -20204037.043 7 -15308877.92223
 91  4 24 23 33 45.0000000  0  4G13G15G 2G 6
  21345327.328   -13979978.339 7 -10705777.32721
  23773768.0394   -2182731.56245  -1614099.73361
  20999081.5864    1311955.58048   1017119.10063
  20564561.938   -20214972.050 7 -15317398.68923
 91  4 24 23 34  0.0000000  0  4G13G15G 2G 6
  21337206.750   -14022648.364 7 -10739026.58121
  23774545.156    -2178623.231 5  -1610898.39521
  21000858.6564    1321286.50748   1024389.94963
  20562501.102   -20225806.070 7 -15325840.75723
 91  4 24 23 34 15.0000000  0  4G13G15G 2G 6
  21329111.453   -14065188.309 7 -10772174.48421
  23775361.352    -2174365.917 5  -1607580.96821
  21002642.2344    1330672.73748   1031703.89363
  20560460.789   -20236534.540 7 -15334200.58023
 91  4 24 23 34 30.0000000  0  4G13G15G 2G 6
  21321041.078   -14107599.387 6 -10805221.97521
  23776201.289    -2169960.973 5  -1604148.48621
  21004439.8594    1340112.82748   1039059.81063
  20558438.867   -20247158.411 7 -15342478.90423
 91  4 24 23 34 45.0000000  0  4G13G15G 2G 6
  21312992.773   -14149880.737 6 -10838168.37921
  23777066.578    -2165407.794 5  -1600600.50821
  21006246.039     1349607.524 8   1046458.28523
  20556436.555   -20257676.935 7 -15350675.14823
 91  4 24 23 35  0.0000000  0  4G13G15G 2G 6
  21304971.6254  -14192036.68546 -10871017.07661
  23777959.2664   -2160710.81445  -1596940.49161
  21008066.3984    1359152.17048   1053895.67163
  20554455.6024  -20268094.38347 -15358792.62663
 91  4 24 23 35 15.0000000  0  4G13G15G 2G 6
  21296972.906   -14234067.195 6 -10903768.02621
  23778877.461    -2155870.301 5  -1593168.59621
  21009888.1804    1368746.56848   1061371.83063
  20552490.859   -20278410.823 7 -15366831.39223
 91  4 24 23 35 30.0000000  0  4G13G15G 2G 6
  21288998.4534  -14275967.97047 -10936417.87761
  23779826.5314   -2150882.16145  -1589281.71461
  21011724.3204    1378394.69148   1068889.84563
  20550548.461   -20288622.040 7 -15374788.17123
 91  4 24 23 35 45.0000000  0  4G13G15G 2G 6
  21281051.094   -14317743.371 7 -10968970.04021
  23780803.516    -2145750.975 5  -1585283.31921
  21013572.0474    1388092.09648   1076446.26163
  20548623.297   -20298732.216 7 -15382666.21423
 91  4 24 23 36  0.0000000  0  4G13G15G 2G 6
  21273122.438   -14359390.906 6 -11001422.56621
  23781808.2974   -2140474.60545  -1581171.82361
  21015425.8204    1397840.67948   1084042.55863
  20546721.398   -20308739.131 7 -15390463.79023
 91  4 24 23 36 15.0000000  0  4G13G15G 2G 6
  21265223.5634  -14400910.84346 -11033775.66861
  23782839.4384   -2135053.47945  -1576947.50961
  21017289.5084    1407640.08247   1091678.46063
  20544834.977   -20318642.824 7 -15398180.94023
 91  4 24 23 36 30.0000000  0  4G13G15G 2G 6
  21257345.3674  -14442302.85946 -11066029.08361
  23783905.680    -2129487.579 5  -1572610.42221
  21019163.2344    1417490.12247   1099353.81063
  20542969.969   -20328443.201 7 -15405817.57723
 91  4 24 23 36 45.0000000  0  4G13G15G 2G 6
  21249493.6564  -14483569.69847 -11098184.96861
  23784986.742    -2123779.773 5  -1568162.75321
  21021048.6094    1427388.18847   1107066.58963
  20541123.9064  -20338142.72847 -15413375.64263
 91  4 24 23 37  0.0000000  0  4G13G15G 2G 6
  21241668.313   -14524704.686 7 -11130238.10521
  23786096.711    -2117924.048 5  -1563599.81021
  21022941.3284    1437340.41847   1114821.58263
  20539299.8364  -20347734.94247 -15420850.08263
 91  4 24 23 37 15.0000000  0  4G13G15G 2G 6
  21233861.1804  -14565713.33547 -11162192.80461
  23787244.5234   -2111925.88645  -1558925.89261
  21024844.7814    1447341.01747   1122614.25863
  20537494.250   -20357225.489 7 -15428245.29923
 91  4 24 23 37 30.0000000  0  4G13G15G 2G 6
  21226083.5314  -14606594.26547 -11194047.98561
  23788406.6254   -2105784.18445  -1554140.12461
  21026760.1724    1457391.23347   1130445.60463
  20535706.969   -20366612.840 7 -15435560.09823
 91  4 24 23 37 45.0000000  0  4G13G15G 2G 6
  21218328.7344  -14647347.68047 -11225803.79861
  23789607.859    -2099499.300 5  -1549242.79221
  21028679.7814    1467490.62347   1138315.26663
  20533940.000   -20375897.187 7 -15442794.63723
 91  4 24 23 38  0.0000000  0  4G13G15G 2G 6
  21210597.1484  -14687973.23847 -11257459.98361
  23790826.359    -2093071.103 5  -1544233.75621
  21030611.5394    1477639.17147   1146223.22563
  20532192.578   -20385078.235 7 -15449948.69123
 91  4 24 23 38 15.0000000  0  4G13G15G 2G 6
  21202890.7664  -14728467.80347 -11289014.09461
  23792081.273    -2086496.668 5  -1539110.79021
  21032551.5234    1487839.76647   1154171.74863
  20530466.688   -20394152.790 7 -15457019.75223
 91  4 24 23 38 30.0000000  0  4G13G15G 2G 6
  21195208.3524  -14768834.07647 -11320468.24661
  23793361.305    -2079779.126 5  -1533876.30021
  21034501.4454    1498089.33547   1162158.43363
  20528757.000   -20403123.761 7 -15464010.10023
 91  4 24 23 38 45.0000000  0  4G13G15G 2G 6
  21187550.563   -14809077.870 7 -11351826.94621
  23794662.820    -2072924.446 5  -1528534.96721
  21036459.7584    1508381.94247   1170178.64663
  20527069.6094  -20411996.87147 -15470924.20163
 91  4 24 23 39  0.0000000  0  4G13G15G 2G 6
  21179915.6334  -14849192.13347 -11383084.72661
  23795994.320    -2065925.706 5  -1523081.36321
  21038428.8364    1518724.51947   1178237.80563
  20525403.148   -20420764.850 7 -15477756.37923
 91  4 24 23 39 15.0000000  0  4G13G15G 2G 6
  21172309.172   -14889174.861 7 -11414240.00721
  23797351.148    -2058781.439 5  -1517514.39621
  21040408.4534    1529118.67247   1186337.14763
  20523754.414   -20429425.870 7 -15484505.21223
 91  4 24 23 39 30.0000000  0  4G13G15G 2G 6
  21164722.0864  -14929029.80447 -11445295.71461
  23798737.375    -2051495.507 5  -1511836.97821
  21042394.9384    1539560.35547   1194473.53063
  20522126.867   -20437983.731 7 -15491173.65823
 91  4 24 23 39 45.0000000  0  4G13G15G 2G 6
  21157165.1804  -14968755.77047 -11476250.92861
  23800153.5084   -2044066.90045  -1506048.41461
  21044391.9534    1550050.42347   1202647.61763
  20520516.008   -20446437.287 7 -15497760.83423
 91  4 24 23 40  0.0000000  0  4G13G15G 2G 6
  21149626.5864  -15008355.37947 -11507107.67461
  23801591.6954   -2036498.96745  -1500151.29561
  21046394.6254    1560586.18747   1210857.30463
  20518927.875   -20454789.217 7 -15504268.81323
 91  4 24 23 40 15.0000000  0  4G13G15G 2G 6
  21142120.2274  -15047826.88047 -11537864.59761
  23803059.977    -2028789.584 5  -1494143.97521
  21048408.5164    1571169.27947   1219103.87563
  20517358.000   -20463037.539 7 -15510696.06423
 91  4 24 23 40 30.0000000  0  4G13G15G 2G 6
  21134630.8444  -15087172.75347 -11568523.62961
  23804556.5704   -2020941.43945  -1488028.49061
  21050429.9694    1581796.97747   1227385.19663
  20515807.1564  -20471184.70447 -15517044.49363
 91  4 24 23 40 45.0000000  0  4G13G15G 2G 6
  21127168.305   -15126393.326 7 -11599085.02721
  23806073.750    -2012955.441 5  -1481805.58821
  21052461.9304    1592468.46047   1235700.64663
  20514277.055   -20479231.355 7 -15523314.59723
 91  4 24 23 41  0.0000000  0  4G13G15G 2G 6
  21119729.4534  -15165484.34447 -11629545.47261
  23807619.7584   -2004827.51745  -1475472.13461
  21054504.4304    1603187.79747   1244053.37963
  20512763.555   -20487173.128 7 -15529502.98023
 91  4 24 23 41 15.0000000  0  4G13G15G 2G 6
  21112314.836   -15204446.861 7 -11659905.78721
  23809195.2584   -1996558.88945  -1469029.01061
  21056549.1644    1613953.52747   1252442.26563
  20511272.188   -20495011.056 7 -15535610.44023
 91  4 24 23 41 30.0000000  0  4G13G15G 2G 6
  21104925.5474  -15243283.11647 -11690167.72361
  23810795.8054   -1988152.26145  -1462478.35261
  21058608.0394    1624763.18347   1260865.36663
  20509801.531   -20502747.429 7 -15541638.77323
 91  4 24 23 41 45.0000000  0  4G13G15G 2G 6
  21097559.6884  -15281992.55447 -11720330.82961
  23812421.484    -1979607.370 5  -1455819.98121
  21060673.6884    1635617.22647   1269323.06063
  20508348.6484  -20510381.50447 -15547587.38863
 91  4 24 23 42  0.0000000  0  4G13G15G 2G 6
  21090216.5164  -15320569.49947 -11750390.69561
  23814074.016    -1970918.559 5  -1449049.45021
  21062747.3054    1646521.02747   1277819.52463
  20506917.383   -20517907.896 7 -15553452.09223
 91  4 24 23 42 15.0000000  0  4G13G15G 2G 6
  21082900.055   -15359017.040 7 -11780349.73421
  23815759.2114   -1962089.51946  -1442169.64361
  21064829.8284    1657470.99447   1286351.96263
  20505502.734   -20525329.724 7 -15559235.31923
 91  4 24 23 42 30.0000000  0  4G13G15G 2G 6
  21075610.250   -15397331.552 7 -11810205.11821
  23817458.2424   -1953116.71345  -1435177.83661
  21066925.7034    1668470.84647   1294923.28163
  20504112.844   -20532643.273 7 -15564934.17523
 91  4 24 23 42 45.0000000  0  4G13G15G 2G 6
  21068342.797   -15435515.946 7 -11839959.10321
  23819193.7504   -1944003.18145  -1428076.38761
  21069024.4534    1679517.42747   1303531.00363
  20502741.313   -20539851.228 7 -15570550.74923
 91  4 24 23 43  0.0000000  0  4G13G15G 2G 6
  21061102.211   -15473571.099 7 -11869612.38921
  23820961.227    -1934749.896 5  -1420866.00121
  21071135.2664    1690609.64847   1312174.29863
  20501390.859   -20546954.545 7 -15576085.78423
 91  4 24 23 43 15.0000000  0  4G13G15G 2G 6
  21053885.2894  -15511495.54347 -11899163.81361
  23822747.0474   -1925355.77845  -1413545.91761
  21073257.3204    1701748.93147   1320854.26663
  20500059.617   -20553951.776 7 -15581538.15923
 91  4 24 23 43 30.0000000  0  4G13G15G 2G 6
  21046691.125   -15549291.225 7 -11928614.90921
  23824560.9304   -1915823.19345  -1406117.89461
  21075385.531     1712932.745 7   1329568.93623
  20498744.7974  -20560845.00447 -15586909.49263
 91  4 24 23 43 45.0000000  0  4G13G15G 2G 6
  21039525.7034  -15586954.76247 -11957963.03361
  23826404.7114   -1906148.94946  -1398579.48861
  21077519.9844    1724164.57147   1338321.00663
  20497456.008   -20567630.561 7 -15592196.91823
 91  4 24 23 44  0.0000000  0  4G13G15G 2G 6
  21032381.508   -15624489.127 7 -11987210.50921
  23828270.4774   -1896336.20045  -1390933.18861
  21079667.2734    1735440.92547   1347107.77263
  20496184.461   -20574311.671 7 -15597402.96323
 91  4 24 23 44 15.0000000  0  4G13G15G 2G 6
  21025265.3594  -15661894.11747 -12016357.16661
  23830163.0784   -1886385.16145  -1383179.11461
  21081823.1644    1746761.95047   1355929.33963
  20494931.250   -20580888.042 7 -15602527.39423
 91  4 24 23 44 30.0000000  0  4G13G15G 2G 6
  21018168.391   -15699168.083 7 -12045401.73621
  23832081.3594   -1876294.05145  -1375315.89661
  21083985.2114    1758129.26947   1364786.98863
  20493701.500   -20587357.739 7 -15607568.70523
 91  4 24 23 44 45.0000000  0  4G13G15G 2G 6
  21011104.258   -15736310.686 7 -12074343.94521
  23834027.477    -1866062.827 6  -1367343.49721
  21086158.6334    1769542.92947   1373680.75363
  20492488.539   -20593720.651 7 -15612526.80123
 91  4 24 23 45  0.0000000  0  4G13G15G 2G 6
  21004058.023   -15773325.053 7 -12103186.22221
  23836000.6174   -1855695.04745  -1359264.64561
  21088338.2194    1780999.42847   1382607.88863
  20491298.711   -20599979.983 7 -15617404.18223
 91  4 24 23 45 15.0000000  0  4G13G15G 2G 6
  20997039.9304  -15810209.04147 -12131926.91061
  23838002.328    -1845188.980 5  -1351078.10221
  21090526.7734    1792500.47847   1391569.75363
  20490126.578   -20606133.610 7 -15622199.20023
 91  4 24 23 45 30.0000000  0  4G13G15G 2G 6
  20990046.0784  -15846962.88747 -12160566.18061
  23840023.0554   -1834545.14445  -1342784.11761
  21092724.0314    1804045.68047   1400566.02463
  20488978.164   -20612181.685 7 -15626911.97523
 91  4 24 23 45 45.0000000  0  4G13G15G 2G 6
  20983075.281   -15883586.068 7 -12189103.64021
  23842079.7664   -1823763.28845  -1334382.66561
  21094928.7664    1815635.58948   1409597.12963
  20487846.125   -20618123.648 7 -15631542.05223
 91  4 24 23 46  0.0000000  0  4G13G15G 2G 6
  20976131.781   -15920076.975 7 -12217538.03321
  23844152.547    -1812842.045 5  -1325872.57721
  21097143.0704    1827271.27848   1418663.90063
  20486735.516   -20623958.060 7 -15636088.33623
 91  4 24 23 46 15.0000000  0  4G13G15G 2G 6
  20969214.227   -15956434.107 7 -12245868.18721
  23846261.8204   -1801780.02945  -1317252.81461
  21099365.9144    1838954.32248   1427767.57863
  20485646.641   -20629683.098 7 -15640549.38523
 91  4 24 23 46 30.0000000  0  4G13G15G 2G 6
  20962320.266   -15992661.922 7 -12274097.57921
  23848390.180    -1790582.066 5  -1308527.13421
  21101597.7734    1850679.95948   1436904.42863
  20484576.047   -20635303.389 7 -15644928.80923
 91  4 24 23 46 45.0000000  0  4G13G15G 2G 6
  20955451.805   -16028762.957 7 -12302228.17121
  23850544.164    -1779250.806 5  -1299697.57421
  21103837.8204    1862445.54448   1446072.42163
  20483525.133   -20640821.446 7 -15649228.57923
 91  4 24 23 47  0.0000000  0  4G13G15G 2G 6
  20948604.438   -16064731.433 7 -12330255.47321
  23852730.188    -1767780.921 5  -1290759.96221
  21106085.8754    1874256.47948   1455275.75063
  20482497.305   -20646231.468 7 -15653444.16123
 91  4 24 23 47 15.0000000  0  4G13G15G 2G 6
  20941783.875   -16100571.082 7 -12358182.39321
  23854939.3834   -1756175.81345  -1281716.97661
  21108339.9534    1886108.99948   1464511.48863
  20481489.125   -20651537.042 7 -15657578.35723
 91  4 24 23 47 30.0000000  0  4G13G15G 2G 6
  20934990.016   -16136280.638 7 -12386007.94821
  23857176.531    -1744434.869 5  -1272568.20321
  21110601.5474    1898004.15347   1473780.44463
  20480498.203   -20656736.953 7 -15661630.22023
 91  4 24 23 47 45.0000000  0  4G13G15G 2G 6
  20928219.859   -16171859.357 7 -12413731.54721
  23859435.086    -1732557.481 5
  21112874.8914    1909942.41948
  20479528.961   -20661830.469 7 -15665599.18223
 91  4 24 23 48  0.0000000  0  4G13G15G 2G 6
  20921474.633   -16207309.056 7 -12441354.60721
  23861719.7894   -1720545.92645
  21115153.6334    1921921.91048
  20478579.156   -20666819.321 7 -15669486.58323
 91  4 24 23 48 15.0000000  0  4G13G15G 2G 6
  20914752.602   -16242629.050 7 -12468876.60221
  23864033.891    -1708399.716 5  -1244489.24021
  21117441.7974    1933943.14648   1501784.86263
  20477649.555   -20671702.803 7 -15673291.87423
 91  4 24 23 48 30.0000000  0  4G13G15G 2G 6
  20908055.289   -16277816.461 7 -12496295.28321
  23866369.0864   -1696116.28446  -1234917.68861
  21119738.0474    1946008.62548   1511186.53763
  20476741.203   -20676478.090 7 -15677012.86023
 91  4 24 23 48 45.0000000  0  4G13G15G 2G 6
  20901384.227   -16312872.408 7 -12523611.52421
  23868730.2194   -1683696.99346  -1225240.25561
  21122042.0394    1958117.20148   1520621.79663
  20475854.234   -20681146.157 7 -15680650.30223
 91  4 24 23 49  0.0000000  0  4G13G15G 2G 6
  20894739.602   -16347797.223 7 -12550825.58621
  23871118.2734   -1671142.55046  -1215457.54561
  21124355.1954    1970268.23748   1530090.13563
  20474984.359   -20685707.522 7 -15684204.59722
 91  4 24 23 49 14.9990000  0  4G13G15G 2G 6
  20888117.612   -16382589.527 7 -12577936.39321
  23873537.4174   -1658454.79345  -1205570.97961
  21126672.8864    1982459.64748   1539589.93463
  20474136.823   -20690162.822 7 -15687676.24622
 91  4 24 23 49 29.9990000  0  4G13G15G 2G 6
  20881521.081   -16417254.798 7 -12604948.21521
  23875972.4874   -1645633.38345  -1195580.23861
  21129003.9014    1994691.97248   1549121.62063
  20473309.855   -20694513.402 7 -15691066.29622
 91  4 24 23 49 44.9990000  0  4G13G15G 2G 6
  20874951.651   -16451785.024 7 -12631854.81321
  23878440.2374   -1632673.39345  -1185481.56761
  21131336.0114    2006970.35948   1558689.19063
  20472504.355   -20698752.947 7 -15694369.81922
 91  4 24 23 49 59.9990000  0  4G13G15G 2G 6
  20868405.940   -16486183.892 7 -12658659.04521
  23880930.1124   -1619578.91545  -1175278.05761
  21133683.7534    2019290.66148   1568289.41963
  20471715.261   -20702885.271 7 -15697589.79322
 91  4 24 23 50 14.9990000  0  4G13G15G 2G 6
  20861884.839   -16520450.266 7 -12685360.03821
  23883452.011    -1606348.971 5  -1164968.97721
  21136035.9334    2031653.97248   1577923.16663
  20470950.128   -20706909.319 7 -15700725.39922
 91  4 24 23 50 29.9990000  0  4G13G15G 2G 6
  20855390.7844  -16554577.71247 -12711952.77361
  23885988.730    -1592977.525 5  -1154549.66921
  21138398.6124    2044066.36148   1587595.15363
  20470206.034   -20710818.718 7 -15703771.67122
 91  4 24 23 50 44.9990000  0  4G13G15G 2G 6
  20848920.761   -16588569.267 7 -12738439.61421
  23888565.8234   -1579468.10745  -1144022.80461
  21140770.1674    2056524.65848   1597302.91963
  20469483.526   -20714616.438 7 -15706730.92022
 91  4 24 23 50 59.9990000  0  4G13G15G 2G 6
  20842480.0034  -16622426.61047 -12764821.89661
  23891163.3084   -1565822.35045  -1133389.71461
  21143147.8004    2069026.95648   1607044.96563
  20468784.2694  -20718304.10047 -15709604.41062
 91  4 24 23 51 14.9990000  0  4G13G15G 2G 6
  20836062.245   -16656149.045 7 -12791099.03821
  23893784.1054   -1552039.82245  -1122650.09561
  21145537.1984    2081573.79648   1616821.72163
  20468101.8084  -20721881.10447 -15712391.67862
 91  4 24 23 51 29.9990000  0  4G13G15G 2G 6
  20829670.917   -16689739.337 7 -12817273.22121
  23896429.417    -1538123.394 5  -1111806.08521
  21147934.0424    2094162.27848   1626630.91963
  20467440.315   -20725349.951 7 -15715094.65522
 91  4 24 23 51 44.9990000  0  4G13G15G 2G 6
  20823303.120   -16723193.121 7 -12843341.02121
  23899100.8084   -1524069.00345  -1100854.53161
  21150336.1904    2106796.67748   1636475.89863
  20466803.2144  -20728706.13347 -15717709.85262
 91  4 24 23 51 59.9990000  0  4G13G15G 2G 6
  20816961.097   -16756510.830 7 -12869302.79221
  23901801.722    -1509877.569 5  -1089796.20921
  21152750.6674    2119476.28448   1646356.11163
  20466183.8554  -20731950.34747 -15720237.80862
 91  4 24 23 52 14.9990000  0  4G13G15G 2G 6
  20810648.425   -16789689.091 7 -12895155.91421
  23904532.355    -1495546.168 4  -1078628.85621
  21155170.6674    2132204.12748   1656273.91663
  20465590.0654  -20735079.24547 -15722675.90262
 91  4 24 23 52 29.9990000  0  4G13G15G 2G 6
  20804363.464   -16822724.834 7 -12920897.97721
  23907285.9404   -1481071.60945  -1067350.00461
  21157599.7224    2144983.18947   1666231.62363
  20465018.8154  -20738089.60247 -15725021.62662
 91  4 24 23 52 44.9990000  0  4G13G15G 2G 6
  20798101.2304  -16855629.42647 -12946537.85161
  23910070.0894   -1466465.63245  -1055968.68561
  21160039.8394    2157801.91148   1676220.22763
  20464464.3154  -20740992.79047 -15727283.84162
 91  4 24 23 52 59.9990000  0  4G13G15G 2G 6
  20791866.487   -16888397.235 7 -12972071.13721
  23912875.8084   -1451723.00845  -1044480.92861
  21162489.3004    2170666.03348   1686244.21863
  20463931.8154  -20743783.07847 -15729458.08262
 91  4 24 23 53 14.9990000  0  4G13G15G 2G 6
  20785657.2374  -16921028.84647 -12997498.29761
  23915703.3704   -1436844.50645  -1032887.24961
  21164947.7224    2183574.70448   1696302.92163
  20463422.9254  -20746461.05147 -15731544.80762
 91  4 24 23 53 29.9990000  0  4G13G15G 2G 6
  20779471.323   -16953523.551 7 -13022818.77421
  23918560.5424   -1421829.63745  -1021187.31461
  21167412.1364    2196528.57048   1706396.84263
  20462935.6514  -20749025.96747 -15733543.43562
 91  4 24 23 53 44.9990000  0  4G13G15G 2G 6
  20773316.4334  -16985881.87747 -13048032.98861
  23921448.1674   -1406679.14145  -1009381.67661
  21169883.6674    2209526.88547   1716525.39463
  20462469.8394  -20751478.14347 -15735454.21862
 91  4 24 23 53 59.9990000  0  4G13G15G 2G 6
  20767182.909   -17018101.931 7 -13073139.44821
  23924352.183    -1391391.233 5   -997469.01421
  21172365.7144    2222571.39247   1726689.94163
  20462025.5264  -20753815.72047 -15737275.69562
 91  4 24 23 54 14.9990000  0  4G13G15G 2G 6
  20761080.230   -17050180.456 7 -13098135.62621
  23927293.339    -1375963.206 5   -985447.15821
  21174855.7454    2235664.76047   1736892.56463
  20461601.5584  -20756035.78947 -15739005.61562
 91  4 24 23 54 29.9990000  0  4G13G15G 2G 6
  20755003.245   -17082116.739 7 -13123020.97421
  23930252.3944   -1360394.78645   -973315.92961
  21177358.5114    2248807.89847   1747133.96863
  20461200.1674  -20758137.34047 -15740643.18562
 91  4 24 23 54 44.9990000  0  4G13G15G 2G 6
  20748951.597   -17113914.637 7 -13147798.48121
  23933242.1054   -1344689.55146   -961078.05961
  21179868.3864    2261997.01548   1757411.20863
  20460823.7764  -20760124.10247 -15742191.30062
 91  4 24 23 54 59.9990000  0  4G13G15G 2G 6
  20742927.7144  -17145571.43147 -13172466.04561
  23936257.7144   -1328845.39045   -948731.93061
  21182389.7064    2275234.42248   1767726.06863
  20460467.2064  -20761993.25047 -15743647.77562
 91  4 24 23 55 14.9990000  0  4G13G15G 2G 6
  20736928.284   -17177089.798 7 -13197025.73621
  23939293.9644   -1312865.55645   -936280.08361
  21184916.5264    2288516.79348   1778075.97063
  20460131.5344  -20763747.97147 -15745015.08862
 91  4 24 23 55 29.9990000  0  4G13G15G 2G 6
  20730957.425   -17208468.569 7 -13221476.65521
  23942363.605    -1296748.448 5   -923721.22321
  21187451.9334    2301845.75347   1788462.17163
  20459822.0654  -20765386.58247 -15746291.92363
 91  4 24 23 55 44.9990000  0  4G13G15G 2G 6
  20725012.6364  -17239711.39147 -13245821.64561
  23945454.159    -1280498.096 5   -911058.54621
  21189997.3474    2315217.73748   1798881.90163
  20459530.1834  -20766912.53547 -15747480.97363
 91  4 24 23 55 59.9990000  0  4G13G15G 2G 6
  20719093.6834  -17270811.89747 -13270055.74061
  23948575.159    -1264108.669 5   -898287.51521
  21192550.9094    2328638.47247   1809339.62163
  20459265.4404  -20768319.69447 -15748577.45362
 91  4 24 23 56 14.9990000  0  4G13G15G 2G 6
  20713204.1674  -17301769.70247 -13294178.64061
  23951718.995    -1247579.970 5   -885407.98821
  21195113.5034    2342108.41147   1819835.67963
  20459019.1124  -20769607.55947 -15749580.98062
 91  4 24 23 56 29.9990000  0  4G13G15G 2G 6
  20707338.0504  -17332589.81047 -13318194.23061
  23954889.714    -1230917.381 6   -872424.11121
  21197683.3084    2355622.42547   1830366.06963
  20458794.7144  -20770781.11847 -15750495.43862
 91  4 24 23 56 44.9990000  0  4G13G15G 2G 6
  20701498.628   -17363265.174 7 -13342097.04321
  23958088.401    -1214113.722 5   -859330.33121
  21200264.8944    2369187.48447   1840936.24563
  20458596.4954  -20771833.18647 -15751315.22262
 91  4 24 23 56 59.9990000  0  4G13G15G 2G 6
  20695689.1834  -17393804.86447 -13365894.13961
  23961308.269    -1197178.716 5   -846134.15621
  21202855.5424    2382794.28247   1851538.94063
  20458416.7764  -20772772.88747 -15752047.45662
 91  4 24 23 57 14.9990000  0  4G13G15G 2G 6
  20689904.3234  -17424198.16447 -13389577.16461
  23964560.448    -1180101.713 5   -832827.37121
  21205452.3154    2396453.20947   1862182.26363
  20458261.9254  -20773589.51347 -15752683.78362
 91  4 24 23 57 29.9990000  0  4G13G15G 2G 6
  20684148.3554  -17454448.63047 -13413148.88961
  23967837.8554   -1162886.44545   -819412.87461
  21208060.8314    2410160.88247   1872863.56163
  20458128.9874  -20774286.53947 -15753226.91563
 91  4 24 23 57 44.9990000  0  4G13G15G 2G 6
  20678418.581   -17484558.830 7 -13436611.31421
  23971138.730    -1145535.894 5   -805892.95821
  21210680.4724    2423914.64847   1883580.78163
  20458019.1754  -20774866.40047 -15753678.75063
 91  4 24 23 57 59.9990000  0  4G13G15G 2G 6
  20672716.9254  -17514527.02147 -13459963.08161
  23974467.5974   -1128048.46045   -792266.38961
  21213305.9644    2437716.10747   1894335.15763
  20457929.1204  -20775327.32047 -15754037.90363
 91  4 24 23 58 14.9990000  0  4G13G15G 2G 6
  20667041.7374  -17544352.46147 -13483203.61161
  23977816.4404   -1110423.83845   -778532.88761
  21215944.237     2451565.651 7   1905126.99923
  20457865.5814  -20775668.58647 -15754303.82263
 91  4 24 23 58 29.9990000  0  4G13G15G 2G 6
  20661391.9874  -17574034.43347 -13506332.34761
  23981196.972    -1092661.581 5   -764692.18521
  21218589.3704    2465463.89748   1915956.78963
  20457821.9644  -20775889.40647 -15754475.88163
 91  4 24 23 58 44.9990000  0  4G13G15G 2G 6
  20655773.5814  -17603574.07147 -13529350.19361
  23984604.964    -1074763.154 5   -750745.34721
  21221239.5194    2479409.37747   1926823.39263
  20457805.0814  -20775990.95447
 91  4 24 23 58 59.9990000  0  4G13G15G 2G 6
  20650175.9484  -17632972.30247 -13552257.83561
  23988038.3864   -1056729.47145   -736693.14061
  21223902.2614    2493401.33247   1937726.20463
  20457807.9954  -20775973.95847
 91  4 24 23 59 14.9990000  0  3G13G 2G 6
  20644609.9954  -17662228.92347 -13575055.14461
  21226572.8004    2507439.84347   1948665.30263
  20457834.6834  -20775838.19247
 91  4 24 23 59 29.9990000  0  3G13G 2G 6
  20639069.1444  -17691344.53347 -13597742.56861
  21229255.5264    2521524.32147   1959640.21363
  20457879.9724  -20775584.13047
 91  4 24 23 59 44.9990000  0  3G13G 2G 6
  20633554.2844  -17720322.57247 -13620322.79161
  21231942.940     2535650.931 7   1970647.95623
  20457950.3624  -20775215.34247 -15753950.61663
 91  4 24 23 59 59.9990000  0  3G13G 2G 6
  20628065.394   -17749161.896 7 -13642794.92221
  21234636.6054    2549820.72347   1981689.34163
  20458044.2374  -20774730.76247 -15753573.01563
 91  4 25  0  0 14.9990000  0  3G13G 2G 6
  20622605.3554  -17777858.53147 -13665155.86861
  21237343.3394    2564037.66447   1992767.46763
  20458159.9094  -20774126.08147 -15753101.83663
 91  4 25  0  0 29.9990000  0  3G13G 2G 6
  20617170.7224  -17806413.52647 -13687406.44361
  21240058.9174    2578300.41247   2003881.28963
  20458294.8004  -20773402.58947 -15752538.07562
 91  4 25  0  0 44.9990000  0  3G13G 2G 6
  20611765.8234  -17834827.61547 -13709547.23761
  21242780.4954    2592608.30647   2015030.28863
  20458457.1204  -20772560.45047 -15751881.86163
 91  4 25  0  0 59.9990000  0  3G13G 2G 6
  20606383.7694  -17863099.84847 -13731577.48762
  21245512.7534    2606962.13947   2026215.08363
  20458641.3154  -20771599.08447 -15751132.73363
 91  4 25  0  1 14.9990000  0  3G13G 2G 6
  20601031.972   -17891229.314 7 -13753496.50021
  21248254.9014    2621362.84847   2037436.40463
  20458844.8784  -20770517.31547 -15750289.79663
 91  4 25  0  1 29.9990000  0  3G13G 2G 6
  20595707.3234  -17919213.87147 -13775302.58262
  21251002.5734    2635812.40247   2048695.78663
  20459073.8084  -20769313.19447 -15749351.51563
 91  4 25  0  1 44.9990000  0  3G13G 2G 6
  20590407.5654  -17947056.91147 -13796998.39462
  21253760.112     2650307.195 7   2059990.42023
  20459327.4724  -20767989.84947 -15748320.32563
 91  4 25  0  1 59.9990000  0  3G13G 2G 6
  20585137.7374  -17974758.29047 -13818583.82362
  21256525.5264    2664847.32347   2071320.38363
  20459601.4724  -20766546.99747 -15747196.02962
 91  4 25  0  2 14.9990000  0  3G13G 2G 6
  20579892.2694  -18002317.23147 -13840058.26061
  21259301.565     2679433.531 7   2082686.24823
  20459898.0974  -20764984.08847 -15745978.17063
 91  4 25  0  2 29.9990000  0  3G13G 2G 6
  20574675.5734  -18029735.91247 -13861423.40061
  21262088.7844    2694063.60047   2094086.29363
  20460218.8704  -20763303.03447 -15744668.25062
 91  4 25  0  2 44.9990000  0  3G13G 2G 6
  20569482.776   -18057013.079 7 -13882678.28122
  21264879.605     2708738.345 7   2105521.15623
  20460561.0424  -20761502.78847 -15743265.45462
 91  4 25  0  2 59.9990000  0  3G13G 2G 6
  20564320.4254  -18084148.56847 -13903822.76261
  21267680.0034    2723458.14347   2116991.10963
  20460925.4254  -20759582.82447 -15741769.37463
 91  4 25  0  3 14.9990000  0  3G13G 2G 6
  20559182.6364  -18111140.57947 -13924855.44061
  21270489.8944    2738224.67947   2128497.48763
  20461312.8234  -20757541.37147 -15740178.62763
 91  4 25  0  3 29.9990000  0  3G13G 2G 6
  20554074.5974  -18137989.16347 -13945776.36262
  21273307.9094    2753037.65747   2140040.05863
  20461728.3394  -20755378.61647 -15738493.35563
 91  4 25  0  3 44.9990000  0  3G13G 2G 6
  20548991.8314  -18164694.93647 -13966585.99061
  21276138.2844    2767896.33847   2151618.23763
  20462161.1124  -20753094.98347 -15736713.89562
 91  4 25  0  3 59.9990000  0  3G13G 2G 6
  20543938.9954  -18191255.79647 -13987282.70061
  21278976.4954    2782802.95048   2163233.77063
  20462619.9404  -20750688.27147 -15734838.52762
 91  4 25  0  4 14.9990000  0  3G13G 2G 6
  20538910.6364  -18217674.75847 -14007868.84761
  21281818.1124    2797754.38847   2174884.24063
  20463100.4254  -20748161.42647 -15732869.55163
 91  4 25  0  4 29.9990000  0  3G13G 2G 6
  20533909.9724  -18243946.56347 -14028340.32962
  21284675.925     2812755.627 7   2186573.50123
  20463605.2924  -20745509.26747 -15730802.93063
 91  4 25  0  4 44.9990000  0  3G13G 2G 6
  20528938.5894  -18270075.00847 -14048700.09561
  21287539.0894    2827803.01347   2198298.72963
  20464131.901   -20742735.378 7 -15728641.44423
 91  4 25  0  4 59.9990000  0  3G13G 2G 6
  20523992.659   -18296063.016 7 -14068950.43722
  21290410.300     2842893.422 7   2210057.47423
  20464682.0734  -20739842.53747 -15726387.27862
 91  4 25  0  5 14.9990000  0  3G13G 2G 6
  20519073.745   -18321908.986 7 -14089090.09822
  21293289.8704    2858028.12447   2221850.74563
  20465256.5654  -20736829.34647 -15724039.32963
 91  4 25  0  5 29.9990000  0  3G13G 2G 6
  20514184.198   -18347613.216 7 -14109119.31622
  21296177.183     2873207.102 7   2233678.49923
  20465849.6124  -20733695.99147 -15721597.75263
 91  4 25  0  5 44.9990000  0  3G13G 2G 6
  20509320.581   -18373170.237 7 -14129033.81821
  21299073.7844    2888435.69947   2245544.93063
  20466471.769   -20730436.747 7 -15719058.07223
 91  4 25  0  5 59.9990000  0  3G13G 2G 6
  20504484.6204  -18398586.68047 -14148838.77961
  21301981.417     2903707.295 7   2257444.86423
  20467116.1674  -20727058.18647 -15716425.42363
 91  4 25  0  6 14.9990000  0  3G13G 2G 6
  20499673.6124  -18423861.33647 -14168533.26161
  21304896.7924    2919022.99247   2269379.17263
  20467781.0974  -20723559.05247 -15713698.82263
 91  4 25  0  6 29.9990000  0  3G13G 2G 6
  20494892.323   -18448992.962 7 -14188116.29322
  21307821.0974    2934383.77748   2281348.61463
  20468469.8624  -20719937.99947 -15710877.22063
 91  4 25  0  6 44.9990000  0  3G13G 2G 6
  20490136.0344  -18473978.04947 -14207585.13262
  21310749.7304    2949792.99547   2293355.79463
  20469184.0654  -20716191.74347 -15707958.05963
 91  4 25  0  6 59.9990000  0  3G13G 2G 6
  20485410.440   -18498818.228 7 -14226941.07121
  21313692.2924    2965248.97347   2305399.40663
  20469918.1054  -20712321.61847 -15704942.37262
 91  4 25  0  7 14.9990000  0  3G13G 2G 6
  20480711.495   -18523512.787 7 -14246183.53121
  21316644.065     2980752.764 7   2317480.27023
  20470680.6054  -20708326.80147 -15701829.52863
 91  4 25  0  7 29.9990000  0  3G13G 2G 6
  20476039.144   -18548062.451 7 -14265313.08321
  21319603.9484    2996303.34847   2329597.60363
  20471463.3474  -20704208.01947 -15698620.09063
 91  4 25  0  7 44.9990000  0  3G13G 2G 6
  20471395.8154  -18572465.35547 -14284328.27761
  21322568.7374    3011902.56547   2341752.82763
  20472272.6674  -20699963.24747 -15695312.48063
 91  4 25  0  7 59.9990000  0  3G13G 2G 6
  20466780.3704  -18596723.38947 -14303230.58161
  21325545.5894    3027548.36347   2353944.35163
  20473102.5034  -20695594.57347 -15691908.32062
 91  4 25  0  8 14.9990000  0  3G13G 2G 6
  20462190.0034  -18620837.63147 -14322020.84662
  21328532.3704    3043239.59847   2366171.28363
  20473957.6124  -20691102.76547 -15688408.21062
 91  4 25  0  8 29.9990000  0  3G13G 2G 6
  20457630.690   -18644804.692 7 -14340696.42921
  21331528.5814    3058979.56747   2378436.19363
  20474836.0894  -20686484.60247 -15684809.64862
 91  4 25  0  8 44.9990000  0  3G13G 2G 6
  20453094.659   -18668632.791 7 -14359263.72722
  21334535.5584    3074760.08247   2390732.69363
  20475738.3624  -20681748.10747 -15681118.87462
 91  4 25  0  8 59.9990000  0  3G13G 2G 6
  20448590.339   -18692314.821 7 -14377717.21121
  21337546.081     3090588.087 7   2403066.19423
  20476663.6674  -20676886.07947 -15677330.28363
 91  4 25  0  9 14.9990000  0  3G13G 2G 6
  20444108.667   -18715853.074 7 -14396058.65522
  21340564.1204    3106461.44647   2415435.02963
  20477611.9484  -20671900.77047 -15673445.63562
 91  4 25  0  9 29.9990000  0  3G13G 2G 6
  20439657.792   -18739245.017 7 -14414286.09021
  21343596.089     3122382.708 7   2427841.19423
  20478584.2224  -20666789.44547 -15669462.78762
 91  4 25  0  9 44.9990000  0  3G13G 2G 6
  20435234.605   -18762490.248 7 -14432399.20421
  21346631.9954    3138352.11447   2440284.88363
  20479582.1284  -20661551.72747 -15665381.45462
 91  4 25  0  9 59.9990000  0  3G13G 2G 6
  20430839.3084  -18785589.35547 -14450398.45361
  21349681.9644    3154368.86247   2452765.45763
  20480602.6834  -20656188.17847 -15661202.07062
 91  4 25  0 10 14.9990000  0  3G13G 2G 6
  20426468.3234  -18808542.60747 -14468284.04661
  21352735.933     3170432.820 7   2465282.81623
  20481647.1904  -20650698.98347 -15656924.78062
 91  4 25  0 10 29.9990000  0  3G13G 2G 6
  20422128.925   -18831354.963 7 -14486059.86121
  21355803.542     3186539.025 7   2477833.09423
  20482713.1674  -20645088.76147 -15652553.18262
 91  4 25  0 10 44.9990000  0  3G13G 2G 6
  20417814.948   -18854024.257 7 -14503724.19821
  21358875.808     3202689.417 7   2490417.80223
  20483805.5344  -20639355.63347 -15648085.81662
 91  4 25  0 10 59.9990000  0  3G13G 2G 6
  20413528.050   -18876548.610 7 -14521275.59421
  21361958.855     3218885.910 7   2503038.43423
  20484920.3944  -20633497.45047 -15643521.00562
 91  4 25  0 11 14.9990000  0  3G13G 2G 6
  20409271.292   -18898925.296 7 -14538711.92922
  21365048.0114    3235130.97847   2515696.92063
  20486058.3154  -20627511.65547 -15638856.75163
 91  4 25  0 11 29.9990000  0  3G13G 2G 6
  20405041.230   -18921154.485 7 -14556033.32221
  21368151.8004    3251424.72947   2528393.34563
  20487220.8554  -20621398.19547 -15634093.02362
 91  4 25  0 11 44.9990000  0  3G13G 2G 6
  20400838.464   -18943240.966 7 -14573243.51921
  21371262.433     3267762.277 7   2541123.88423
  20488408.2064  -20615161.69847 -15629233.41062
 91  4 25  0 11 59.9990000  0  3G13G 2G 6
  20396662.9874  -18965183.67447 -14590341.67061
  21374378.8864    3284144.63147   2553889.34563
  20489618.5424  -20608801.18047 -15624277.16962
 91  4 25  0 12 14.9990000  0  3G13G 2G 6
  20392515.597   -18986980.721 7 -14607326.34121
  21377503.2064    3300573.82247   2566691.30563
  20490854.9404  -20602314.39647 -15619222.52662
 91  4 25  0 12 29.9990000  0  3G13G 2G 6
  20388394.558   -19008633.066 7 -14624198.24421
  21380641.3394    3317048.77947   2579528.92563
  20492109.8624  -20595702.38147 -15614070.30862
 91  4 25  0 12 44.9990000  0  3G13G 2G 6
  20384301.714   -19030142.679 7 -14640958.93821
  21383779.9014    3333567.50147   2592400.65063
  20493392.7224  -20588966.87547 -15608821.85362
 91  4 25  0 12 59.9990000  0  3G13G 2G 6
  20380237.409   -19051504.530 7 -14657604.49121
  21386935.7764    3350134.64947   2605310.11963
  20494700.6284  -20582103.08147 -15603473.44362
 91  4 25  0 13 14.9990000  0  3G13G 2G 6
  20376200.417   -19072719.550 7 -14674135.62322
  21390094.2304    3366749.66747   2618256.88663
  20496030.3864  -20575111.55847 -15598025.50362
 91  4 25  0 13 29.9990000  0  3G13G 2G 6
  20372189.456   -19093787.917 7 -14690552.49722
  21393267.7844    3383412.24447   2631240.70663
  20497385.2534  -20567992.42747 -15592478.12762
 91  4 25  0 13 44.9990000  0  3G13G 2G 6
  20368207.526   -19114712.306 7 -14706857.15621
  21396445.6364    3400119.85047   2644259.60662
  20498762.4334  -20560748.30147 -15586833.35762
 91  4 25  0 13 59.9990000  0  3G13G 2G 6
  20364255.198   -19135491.853 7 -14723048.97422
  21399635.6834    3416873.09947   2657314.08263
  20500164.1444  -20553378.37347 -15581090.55462
 91  4 25  0 14 14.9990000  0  3G13G 2G 6
  20360327.097   -19156125.470 7 -14739127.07221
  21402832.0654    3433673.25747   2670405.10862
  20501591.0424  -20545881.53447 -15575248.86562
 91  4 25  0 14 29.9990000  0  3G13G 2G 6
  20356428.964   -19176615.330 7 -14755093.14621
  21406032.7144    3450517.97347   2683530.86163
  20503041.6594  -20538259.77647 -15569309.82962
 91  4 25  0 14 44.9990000  0  3G13G 2G 6
  20352557.730   -19196960.308 7 -14770946.32821
  21409255.3554    3467408.44647   2696692.26363
  20504515.1984  -20530511.78147 -15563272.42962
